GFSSE_sfc_thetae_000.txt.gz
Theta_e
339 341 351 351 353 351 350 349 345 341 338 336 333 336 337 341 340 337 338 333 332 332 333 334 336 339 342 342 340 340 337 337 335 335 336 337 337 339 336 333 335 334 336
340 340 351 353 352 351 349 348 344 340 338 336 333 332 333 333 334 333 334 337 333 331 333 335 336 336 337 338 336 336 334 334 332 332 335 336 335 337 333 332 334 338 338
339 340 351 355 353 351 350 346 343 341 339 336 336 333 333 334 333 334 336 336 333 331 332 335 335 336 338 338 336 334 333 334 331 332 335 331 331 334 334 334 334 338 340
339 340 345 353 353 352 349 346 343 341 339 337 336 335 334 337 334 334 333 334 334 334 332 332 334 333 335 336 336 334 332 331 332 333 330 329 330 332 334 333 334 336 337
339 342 346 354 352 351 349 348 345 342 341 338 335 337 337 340 337 336 333 333 332 331 331 331 331 333 334 334 335 334 332 333 330 331 328 330 333 331 332 335 333 334 337
340 343 349 354 353 352 349 348 345 343 340 339 338 337 338 340 340 338 337 334 331 331 331 331 331 331 332 333 334 335 333 334 330 331 327 329 332 333 332 333 334 333 335
340 343 345 352 352 351 348 346 344 343 341 340 338 338 340 340 343 339 339 335 332 332 332 332 333 333 332 332 332 333 333 334 330 332 329 326 329 332 335 335 334 334 333
340 344 343 348 353 352 349 348 346 344 343 341 338 338 339 341 343 342 339 336 333 333 333 331 334 335 335 334 334 333 333 334 328 330 330 328 328 332 335 336 333 335 333
342 343 343 344 348 350 349 349 348 346 344 342 339 337 339 339 339 340 338 335 336 336 334 334 334 335 336 336 335 334 335 334 330 328 328 329 330 328 333 335 335 335 336
342 343 343 344 346 346 346 346 346 346 344 343 342 341 339 338 338 336 338 336 336 337 336 334 334 334 334 336 334 334 334 333 328 328 328 328 330 331 331 332 335 336 336
338 342 344 343 345 345 345 343 344 343 342 341 339 338 336 334 335 334 335 335 336 335 335 335 334 334 336 335 335 334 332 329 326 325 325 330 329 333 333 332 332 335 335
333 338 342 343 344 345 343 344 343 341 341 339 338 336 334 333 335 334 332 333 335 336 336 335 335 334 334 332 331 332 330 329 328 327 325 330 328 331 332 333 332 332 333
330 334 339 342 344 344 344 344 343 342 341 340 338 337 335 333 334 334 334 333 334 332 333 333 333 332 331 331 331 331 331 330 329 328 328 330 328 331 332 330 332 333 332
328 329 334 339 342 344 344 343 342 341 340 339 339 337 336 335 334 333 333 334 334 333 333 334 333 333 332 332 331 330 330 330 330 330 329 329 328 330 333 332 330 330 332
327 329 331 334 338 341 343 343 342 340 339 338 339 338 338 336 335 335 334 335 335 335 334 334 334 333 333 332 332 332 331 331 332 331 331 327 329 328 331 333 333 332 330
324 324 326 330 333 338 340 341 340 340 339 339 339 338 337 336 336 335 335 335 335 335 335 334 333 333 332 333 332 332 332 332 332 332 332 332 329 328 328 332 334 334 334
321 321 322 324 328 334 337 339 339 340 338 338 338 337 336 336 335 335 335 334 335 335 334 334 333 333 332 332 331 331 332 331 331 331 332 332 331 327 327 329 333 335 335
320 321 323 323 325 331 334 336 337 338 338 337 337 336 334 334 334 334 334 334 334 333 332 331 330 329 329 328 328 329 329 330 330 330 330 331 330 330 329 328 328 331 334
319 322 323 325 328 330 332 333 332 332 333 333 334 334 334 333 332 333 331 328 327 327 327 326 326 325 324 324 323 325 326 327 328 329 330 329 329 329 329 327 327 326 328
320 324 325 328 329 330 331 332 333 333 331 328 324 323 322 319 320 321 318 317 318 318 317 316 316 317 318 319 317 319 322 323 325 326 327 328 330 330 330 329 329 328 324
319 321 325 328 329 331 331 328 325 320 318 317 316 315 314 313 313 313 313 313 313 312 312 312 312 311 311 313 311 312 313 317 320 319 326 323 324 326 329 329 330 329 328
315 317 319 323 326 329 329 324 320 318 316 315 314 313 312 311 310 310 310 310 310 310 310 309 310 308 309 310 307 307 304 309 312 314 315 315 317 320 324 328 328 328 329
313 314 315 317 318 318 319 318 318 317 316 313 311 310 309 308 306 306 306 306 306 307 305 306 305 305 303 305 307 304 302 300 306 309 310 312 314 315 316 319 320 321 323
313 315 315 315 315 316 317 316 314 311 309 309 308 308 307 305 302 302 302 302 302 303 302 302 302 303 303 301 303 304 305 304 301 300 306 308 309 310 311 314 315 315 316
313 313 313 313 312 312 313 312 310 308 308 307 305 304 303 302 300 298 299 299 299 299 300 300 300 301 301 299 299 300 301 302 302 300 297 299 303 304 306 308 310 313 314
312 312 312 310 309 310 309 308 307 305 303 302 301 299 299 298 298 297 297 297 298 297 297 297 298 300 300 298 298 299 299 297 297 295 294 297 297 300 302 305 307 311 313

GFSSE_sfc_thetae_003.txt.gz
Theta_e
338 345 352 352 352 350 350 348 345 341 338 335 333 337 338 342 338 335 338 338 335 332 335 336 337 341 343 342 340 339 337 337 335 333 334 336 337 336 339 334 334 334 336
339 344 351 351 351 350 350 347 343 340 339 336 333 332 333 333 333 333 335 336 333 333 334 336 337 338 339 339 335 334 333 334 332 333 334 336 337 335 334 332 332 336 339
337 343 348 354 352 350 349 346 343 340 338 336 333 332 331 333 333 336 335 335 334 332 333 334 335 335 336 337 336 335 332 331 332 333 334 329 329 336 333 333 334 335 341
337 343 347 354 351 351 348 345 342 341 338 335 333 334 335 335 334 335 332 333 333 333 333 332 332 332 333 335 335 335 334 332 331 331 328 328 328 335 333 334 333 334 337
337 340 349 354 351 351 347 345 343 340 338 336 333 334 338 338 338 336 334 334 333 331 331 331 330 331 333 334 334 335 335 334 332 331 329 328 329 331 331 332 334 334 334
338 341 351 354 351 350 348 346 343 341 339 337 335 336 337 340 341 339 338 336 333 332 332 332 332 332 331 332 332 333 335 333 333 330 330 328 327 331 333 333 333 334 334
338 342 346 353 350 349 347 346 344 342 339 337 336 336 338 341 342 342 340 337 334 332 332 332 333 334 334 333 333 333 333 336 329 327 329 330 327 330 332 334 334 334 335
338 342 344 350 352 351 349 347 345 344 342 339 336 336 337 340 342 341 340 338 335 334 334 333 333 334 336 336 336 335 334 335 328 326 328 330 334 329 331 333 334 335 335
340 342 342 343 345 350 350 350 348 346 344 341 338 335 336 337 338 339 338 336 336 336 336 335 334 334 334 335 336 335 337 335 330 327 327 329 334 331 330 331 334 336 336
340 341 342 342 344 343 343 346 346 345 344 341 340 340 339 338 337 336 338 337 336 336 335 335 335 334 334 335 335 337 336 335 329 328 328 328 335 332 334 332 332 334 336
338 340 342 341 343 343 342 343 344 344 343 342 339 338 337 332 334 334 335 336 335 336 336 336 336 335 336 335 336 336 335 330 328 328 326 331 332 331 333 333 333 333 334
333 337 341 342 342 343 341 342 341 341 340 339 337 336 335 332 333 334 332 335 336 337 337 336 336 336 335 332 332 334 331 331 330 329 329 334 331 331 332 332 333 333 334
331 335 338 341 342 342 342 341 340 339 338 337 336 336 335 334 334 334 334 334 335 333 334 335 334 334 332 332 331 331 331 330 331 331 331 335 334 333 333 334 334 332 333
329 331 335 339 341 342 342 341 340 338 338 337 336 336 335 335 335 334 334 335 335 335 334 335 335 335 334 334 333 332 332 332 332 332 332 333 336 334 335 335 335 335 333
328 330 332 336 338 341 342 341 340 338 337 337 338 338 338 336 336 336 336 336 336 336 335 335 335 334 334 333 333 332 332 332 333 333 334 331 334 336 335 335 336 337 337
328 328 331 332 335 338 339 340 339 339 338 338 338 338 337 337 336 336 336 336 336 336 335 333 333 331 331 332 331 331 331 332 332 333 333 334 333 334 336 335 336 336 339
323 323 323 326 330 334 338 339 339 339 338 338 338 337 336 336 336 336 335 334 333 332 332 332 330 329 328 328 327 328 329 329 330 330 331 332 333 330 333 337 336 336 336
321 323 325 324 326 332 336 338 337 337 336 335 335 335 335 335 335 335 331 329 327 327 326 324 322 322 322 322 322 324 325 326 326 327 328 330 331 330 332 334 336 336 335
322 324 325 329 329 332 335 336 334 333 333 334 334 332 328 325 326 324 319 318 317 319 317 316 315 315 315 316 317 318 317 321 323 323 324 327 329 331 331 331 330 331 333
325 326 328 329 331 332 332 333 333 328 322 320 318 317 317 315 315 316 315 314 314 315 314 314 312 314 313 313 311 312 316 316 317 318 323 319 318 318 320 324 330 330 328
324 326 329 329 331 332 332 327 322 318 318 316 315 314 313 312 311 311 312 311 311 311 310 309 309 308 308 310 307 309 309 313 312 314 313 313 315 319 317 319 322 327 331
319 322 324 327 329 327 324 323 321 318 316 315 314 311 310 308 308 307 307 307 307 307 306 305 305 304 305 306 303 303 300 304 307 308 310 311 310 314 313 317 317 317 319
316 318 319 319 320 320 321 320 318 317 316 311 310 309 307 306 303 303 303 303 303 304 303 303 303 303 301 303 304 300 297 296 300 306 305 307 306 306 310 309 311 312 313
315 318 317 317 317 318 318 316 313 310 307 308 308 307 306 304 301 300 300 301 301 301 301 301 300 302 302 299 301 300 301 300 296 294 301 302 303 303 304 306 305 306 306
315 316 315 314 313 314 313 312 311 309 308 307 306 304 303 302 300 299 299 299 299 299 299 299 299 300 301 298 297 298 298 299 299 294 291 295 298 300 302 302 303 304 305
314 314 314 311 310 311 311 310 308 307 305 304 302 301 300 300 299 297 297 297 297 297 297 297 298 299 299 298 297 296 295 294 294 293 291 292 293 297 301 301 303 304 305

GFSSE_sfc_thetae_006.txt.gz
Theta_e
336 345 353 354 352 351 351 348 345 341 339 336 336 339 343 341 338 336 338 338 336 333 336 339 341 341 342 342 341 339 339 337 334 334 334 334 335 336 337 336 333 334 335
340 345 354 354 351 351 350 347 343 341 339 336 334 337 335 335 336 334 335 335 336 332 335 336 338 338 340 339 336 334 334 333 334 332 335 335 336 335 334 332 333 332 340
337 344 348 355 353 352 350 346 342 340 337 337 333 333 332 333 333 335 336 335 333 333 334 334 333 334 335 338 337 336 334 332 331 332 333 329 326 335 335 334 333 334 337
338 342 345 355 352 351 350 346 343 341 338 336 333 337 335 334 334 334 334 333 334 332 332 332 332 332 333 334 336 335 336 333 331 334 328 326 325 337 335 334 333 333 335
333 342 349 354 353 351 348 345 342 341 339 336 333 333 337 337 339 335 335 333 334 332 331 331 331 330 331 332 333 334 334 334 333 332 326 322 322 330 334 333 332 335 334
332 345 351 353 354 351 348 346 343 341 340 338 335 335 336 340 341 341 337 338 335 333 332 331 332 332 333 332 332 331 332 334 336 325 322 325 321 329 333 333 334 333 334
333 345 349 353 352 351 350 347 345 343 339 338 336 335 336 341 342 341 339 337 335 333 332 332 331 333 335 336 335 335 333 335 328 321 321 322 323 330 331 333 334 335 335
335 340 347 350 350 351 349 348 346 344 342 340 337 334 335 338 341 341 341 338 336 334 335 334 333 333 334 336 337 336 337 335 329 321 320 321 328 333 332 332 333 334 336
336 337 339 344 346 350 349 349 347 347 345 343 340 336 338 337 337 339 340 338 336 335 336 337 336 335 334 335 335 337 338 336 328 324 324 321 331 335 335 334 332 334 336
334 336 336 339 340 342 340 346 345 345 344 342 341 340 338 337 337 339 339 339 337 336 335 335 335 336 336 335 335 337 337 336 328 325 324 323 333 334 335 334 334 333 334
333 334 335 336 339 338 338 342 343 343 342 341 338 337 335 330 329 333 334 335 335 335 336 336 336 337 338 336 336 336 335 328 324 323 322 330 337 334 334 334 335 335 335
329 332 334 335 336 336 338 338 337 337 336 335 334 332 331 327 327 330 329 333 336 337 338 337 338 339 337 331 329 332 329 327 325 324 323 334 337 335 335 334 334 335 335
327 330 334 335 336 336 335 335 334 334 332 331 330 329 328 327 326 327 328 328 328 331 330 332 333 333 330 329 326 325 325 325 324 324 327 335 339 337 337 337 338 336 336
323 328 332 334 335 335 336 334 333 331 331 329 329 329 327 327 327 327 327 329 329 329 328 329 329 330 331 330 329 328 328 326 326 326 326 332 338 340 339 339 340 339 337
322 324 327 331 334 335 335 334 333 331 330 330 331 331 330 329 330 330 330 330 332 332 331 330 330 330 329 329 328 328 328 326 326 327 327 329 334 339 341 340 340 339 339
322 324 326 328 331 334 334 333 332 331 331 331 332 332 332 330 329 330 331 331 331 330 330 329 328 325 324 323 323 322 321 322 322 323 325 325 331 336 340 342 340 340 340
316 318 319 321 327 330 332 333 332 331 332 333 333 331 331 332 330 331 330 328 327 323 321 318 316 316 315 317 316 319 319 319 320 320 321 322 324 328 334 340 342 341 340
316 318 319 320 320 327 331 332 332 332 331 329 329 331 327 327 326 321 315 311 312 312 311 309 309 309 308 308 309 310 310 311 312 315 317 318 320 322 328 334 336 338 338
317 319 321 321 321 327 330 329 329 327 325 320 317 313 312 312 312 311 309 308 308 309 308 307 306 306 305 306 306 305 306 308 307 311 311 309 309 311 313 320 326 329 333
319 321 322 325 326 328 327 326 319 315 313 312 310 308 308 308 308 307 307 306 306 305 305 302 300 301 301 302 302 303 303 304 305 304 304 305 307 308 309 310 311 316 323
321 321 323 324 325 326 325 317 314 311 310 308 307 306 304 304 304 303 303 302 301 301 300 299 298 297 298 298 297 297 298 301 301 301 303 305 303 305 304 305 307 306 308
317 319 322 322 319 319 317 315 313 310 308 307 306 304 302 300 300 299 298 298 297 298 297 296 296 296 297 298 294 294 291 293 297 299 300 300 299 301 302 303 301 300 303
312 312 314 314 315 316 315 314 311 310 307 304 304 302 300 298 297 297 296 296 295 296 295 295 294 294 294 296 295 292 288 288 292 296 297 297 296 298 297 298 299 299 300
310 311 312 313 313 313 312 309 306 303 301 302 301 300 298 297 295 295 295 295 294 295 293 293 295 294 294 292 293 295 292 291 289 288 292 294 294 295 295 297 297 298 298
309 308 307 307 307 307 307 306 304 302 301 300 299 297 295 295 294 294 294 293 292 293 292 291 291 291 293 292 291 291 290 290 290 288 286 288 292 293 295 296 296 297 296
308 307 305 305 305 305 304 303 302 300 298 297 295 294 293 293 293 292 293 292 291 291 291 291 290 290 291 291 291 290 289 287 287 287 287 287 288 290 293 294 294 293 293

GFSSE_sfc_thetae_012.txt.gz
Theta_e
336 346 357 355 354 353 351 346 344 341 338 339 340 343 343 341 340 338 338 336 335 334 335 340 341 343 342 342 340 339 337 335 334 332 332 333 333 333 334 335 334 330 338
341 348 356 355 355 353 351 346 343 340 337 337 338 344 340 338 335 334 336 335 333 333 332 335 336 337 338 339 336 334 333 333 332 331 333 334 333 333 335 336 333 330 336
345 349 351 355 355 352 349 345 343 340 337 336 337 337 335 334 335 336 335 333 333 332 331 331 331 332 332 334 335 335 335 332 331 331 334 327 325 333 335 337 335 334 335
346 348 348 355 354 351 347 345 342 340 338 336 336 334 335 334 337 335 333 334 334 332 330 330 329 328 330 332 333 334 334 334 332 334 327 326 325 332 335 337 336 334 334
344 346 349 355 354 351 348 345 342 340 338 336 336 336 337 337 337 336 333 336 334 333 331 330 330 330 330 330 330 331 333 334 333 332 324 322 321 326 335 337 335 335 335
339 342 349 354 354 353 349 345 343 341 338 336 336 336 337 339 340 341 339 338 336 334 332 331 331 331 333 334 335 334 335 334 336 325 322 320 322 330 333 333 336 335 335
336 341 349 354 354 351 346 345 344 342 340 336 336 337 338 340 341 342 341 338 336 334 333 332 333 332 333 334 336 337 337 338 329 323 321 319 319 332 334 335 333 334 335
339 344 347 352 352 350 347 346 344 342 340 338 337 338 338 338 340 342 339 337 336 335 334 335 335 336 335 334 334 336 337 338 331 325 323 321 326 332 334 335 336 335 334
342 344 344 347 347 348 348 347 346 344 343 341 339 338 339 339 338 340 342 339 338 336 336 336 337 335 336 336 336 336 338 337 330 327 327 324 329 334 334 335 336 337 336
341 342 341 342 345 343 344 346 346 345 344 343 342 339 339 336 336 339 342 340 338 337 337 337 335 335 337 337 337 339 338 336 329 327 327 326 333 337 338 337 337 337 337
336 338 341 340 340 341 340 342 344 344 343 341 339 336 334 327 327 330 334 335 338 338 336 337 337 338 340 338 338 338 336 329 326 326 325 330 335 339 339 339 340 338 337
328 332 337 338 337 338 341 338 337 337 336 334 333 329 329 327 325 326 328 334 338 338 338 338 339 341 338 332 331 333 329 328 328 327 326 331 336 340 340 342 342 341 342
328 331 334 336 334 335 335 335 333 332 332 331 330 329 328 327 323 325 323 324 324 326 326 328 328 328 330 329 328 327 325 324 324 324 327 333 334 337 337 338 341 341 341
324 328 332 334 333 333 334 334 332 331 329 328 329 329 326 322 322 323 326 328 328 330 328 327 323 319 316 315 315 313 314 316 318 320 322 327 328 330 331 333 334 339 341
322 327 329 331 332 332 333 332 330 329 329 327 326 325 325 325 327 328 328 327 323 319 315 312 309 308 307 308 307 307 308 307 308 310 311 320 325 322 323 326 328 331 335
320 327 328 330 331 331 331 329 327 329 330 327 330 331 331 328 327 322 314 315 312 311 309 305 304 303 302 303 303 304 302 302 303 303 306 307 317 316 319 321 322 326 324
318 323 326 328 331 331 330 329 329 330 331 329 322 319 322 322 313 311 309 309 307 304 303 301 300 300 300 300 298 300 299 299 300 300 302 301 303 311 313 315 318 316 315
313 317 320 327 329 330 329 330 330 327 319 314 312 311 311 310 310 307 303 302 302 300 299 298 297 297 296 296 295 296 295 297 299 297 298 298 301 300 304 310 309 309 311
314 315 315 319 327 328 323 318 315 314 311 309 308 307 306 304 304 301 299 299 299 297 296 296 294 295 294 294 296 296 293 295 297 295 292 296 298 298 297 302 304 304 307
313 315 314 316 324 315 313 312 310 307 306 305 302 302 301 300 299 298 296 297 297 295 294 293 292 293 293 293 297 295 292 295 293 291 292 295 294 294 295 293 294 296 304
315 316 315 321 313 313 310 308 307 304 302 298 298 298 297 297 296 295 295 295 295 293 292 292 292 292 292 292 291 290 292 292 290 291 292 290 293 292 293 293 294 294 295
315 317 318 317 313 312 310 306 304 303 300 297 296 294 295 295 295 295 293 293 293 292 290 290 290 290 292 291 288 288 285 288 289 291 290 291 289 291 292 293 292 293 293
312 313 314 313 312 310 308 306 304 302 299 296 294 293 293 293 294 293 292 292 291 290 289 289 288 288 288 289 289 287 283 282 286 288 288 288 289 289 290 291 292 293 293
308 310 311 311 309 308 307 304 302 299 296 296 295 292 291 292 292 292 292 290 290 290 288 288 289 288 287 285 288 291 287 286 282 281 286 288 287 288 288 288 290 291 291
307 307 308 308 307 306 304 303 300 298 297 295 292 290 289 289 290 291 290 289 288 288 287 286 286 285 286 285 286 286 285 285 285 282 280 282 286 288 289 289 288 290 289
302 302 303 305 302 302 302 300 298 296 293 292 290 289 289 289 289 288 289 287 287 287 286 286 285 285 284 285 284 284 284 283 282 281 281 282 282 285 286 288 288 288 288

GFSSE_sfc_thetae_015.txt.gz
Theta_e
334 341 357 354 354 352 350 345 343 341 340 339 339 343 345 342 341 339 337 336 335 333 334 340 342 343 343 342 341 340 336 334 332 333 332 332 333 332 333 335 335 330 337
338 346 356 355 354 352 349 345 343 339 339 338 340 343 343 340 338 336 337 334 334 331 331 335 337 337 339 339 335 335 334 332 332 332 334 333 332 332 333 335 334 329 335
342 349 352 356 356 352 349 345 342 339 337 337 338 343 337 335 332 334 335 333 331 331 330 330 332 333 333 334 335 335 335 332 331 332 333 324 324 333 335 335 336 334 335
346 348 348 356 354 352 348 345 342 339 336 337 336 336 334 333 335 334 333 333 332 331 330 330 329 329 329 331 332 334 334 334 333 334 325 324 323 331 335 336 336 336 335
343 346 347 355 353 351 347 345 342 340 337 336 337 335 335 335 335 335 335 335 334 332 331 330 330 330 331 331 331 331 330 331 335 331 324 322 320 327 334 337 336 335 336
340 342 349 354 354 352 347 345 343 340 338 336 337 336 337 339 340 339 340 339 335 334 332 331 330 330 331 333 335 336 335 335 336 323 321 320 321 327 333 334 334 336 335
337 340 348 354 354 351 348 345 343 341 339 336 336 337 338 339 340 342 342 338 336 334 332 332 332 333 333 333 334 335 335 336 330 324 322 320 319 331 334 335 336 335 334
337 341 347 352 353 352 348 346 344 342 341 336 336 337 338 337 340 341 340 338 337 334 334 335 335 335 336 336 335 335 337 337 331 325 324 323 327 334 334 334 335 337 336
338 341 344 347 349 348 347 347 346 343 342 340 338 339 339 339 338 341 341 339 337 337 336 336 337 336 335 336 337 337 338 337 330 327 327 325 330 336 338 337 336 337 337
339 341 342 343 344 342 342 345 345 344 343 343 340 339 339 337 336 339 342 341 339 338 337 337 336 336 337 338 338 339 338 337 329 326 326 325 334 338 340 339 339 339 339
337 338 341 341 342 341 341 342 344 344 342 341 339 336 334 327 326 329 333 336 338 338 338 337 338 339 340 338 338 337 335 330 330 327 326 330 335 339 341 341 341 340 340
332 334 338 338 338 337 341 338 337 338 336 334 332 328 328 325 323 325 327 333 336 338 337 337 338 338 332 329 328 329 324 323 323 323 324 332 331 335 336 336 336 337 338
331 332 337 336 336 336 337 334 334 332 332 331 329 327 326 326 323 323 323 323 324 325 326 328 326 323 314 315 313 312 313 314 314 317 320 324 327 329 330 330 332 333 335
323 330 334 335 332 333 333 332 332 330 329 328 328 328 325 323 320 321 324 328 328 328 319 314 312 308 307 306 305 305 306 306 306 309 311 320 321 323 326 327 328 331 333
319 326 331 332 331 333 331 331 330 329 329 328 328 328 326 322 325 327 321 315 313 312 310 306 303 302 301 301 301 301 300 300 301 303 304 315 316 318 320 322 325 323 323
310 323 329 331 332 332 332 329 330 328 329 327 326 326 329 329 319 313 312 310 308 307 303 300 299 298 297 298 298 298 296 296 298 297 299 300 310 311 315 318 316 316 317
313 319 326 329 330 330 331 329 330 329 329 325 321 324 322 313 311 310 309 306 303 300 298 296 296 296 295 296 294 296 294 295 297 293 295 298 300 305 310 310 311 311 313
314 320 324 331 330 329 329 330 330 323 315 312 311 311 311 309 308 306 302 300 297 296 296 294 295 294 293 292 292 294 292 294 293 291 293 295 295 296 300 305 306 306 309
312 316 322 327 329 327 323 320 315 312 310 309 308 307 306 305 304 302 299 296 295 294 294 293 292 293 291 292 293 294 291 293 291 291 290 291 293 292 294 298 301 302 304
312 313 314 324 324 315 311 310 308 307 305 305 303 302 301 299 297 296 296 294 294 293 292 291 290 291 291 290 294 293 290 293 290 288 290 290 291 290 292 291 291 293 301
311 312 312 319 313 312 309 307 307 303 301 299 299 298 296 295 295 294 294 293 293 291 290 290 290 289 290 290 288 289 290 290 289 288 289 287 288 289 291 290 291 292 292
313 313 315 312 311 311 309 304 303 302 299 297 295 294 294 294 294 293 292 291 291 290 289 288 288 288 288 290 287 286 284 286 288 289 288 289 287 288 289 290 290 290 290
312 313 312 309 309 308 305 304 301 299 298 296 292 291 292 293 293 292 291 290 289 289 287 287 287 286 285 286 287 284 281 280 284 286 286 286 286 286 287 288 290 290 290
311 312 310 310 307 306 306 304 302 297 295 293 291 290 290 291 291 291 290 289 288 288 286 286 287 286 285 284 286 288 286 284 281 280 284 286 285 286 285 286 288 288 289
308 308 308 307 306 303 304 304 301 298 295 292 290 288 288 289 289 289 289 287 287 287 286 285 284 284 285 283 284 284 283 283 283 281 279 281 285 285 285 286 286 287 287
305 306 306 306 303 302 301 299 299 296 293 290 288 287 287 288 288 287 287 286 286 285 285 285 284 283 283 283 282 282 282 281 280 279 279 280 280 282 284 285 286 286 287

GFSSE_sfc_thetae_018.txt.gz
Theta_e
332 339 359 356 354 352 349 345 343 341 340 339 339 342 345 342 341 339 337 336 334 334 336 341 344 344 343 344 343 340 337 334 333 334 333 333 332 332 334 334 334 332 334
334 340 355 356 353 352 348 345 343 340 340 339 340 343 343 341 339 338 336 333 333 331 332 336 337 339 341 340 337 336 335 333 333 333 334 332 330 332 333 334 336 330 333
336 344 351 356 355 351 348 345 342 339 339 338 341 344 338 336 333 333 335 332 331 331 330 332 333 334 335 335 336 336 335 334 332 333 332 323 323 331 334 336 336 335 334
342 348 348 356 355 351 348 345 342 339 337 337 340 339 334 335 333 332 333 332 332 332 330 330 330 329 329 329 330 332 332 333 333 333 325 323 322 330 333 335 336 337 336
343 346 348 355 354 351 348 345 342 339 337 337 336 336 336 334 337 335 334 335 334 332 330 330 330 331 332 332 333 332 332 332 333 329 323 321 319 326 331 335 337 336 335
340 342 350 355 354 352 348 345 343 340 337 336 337 337 336 337 337 336 338 338 335 333 331 331 330 330 330 332 334 333 334 334 337 323 322 322 322 327 331 334 335 334 335
337 341 348 354 353 350 348 345 343 340 338 336 337 337 338 338 339 340 340 338 336 333 332 332 332 333 333 333 334 335 336 338 329 325 323 322 321 333 333 333 335 336 335
337 341 346 351 353 351 348 346 344 341 339 337 336 337 337 338 341 342 342 338 336 334 334 334 335 335 336 336 336 336 337 337 331 325 324 323 328 336 337 337 334 336 338
337 339 343 347 349 349 348 347 346 343 342 339 338 338 340 339 338 341 340 338 337 336 336 336 337 337 336 337 338 338 339 337 330 327 326 325 331 337 339 340 339 338 338
335 339 340 343 345 343 342 345 345 344 343 342 340 339 338 337 336 337 342 341 338 337 337 338 337 337 339 339 339 340 338 335 330 329 324 324 334 339 341 341 341 341 341
336 336 339 340 340 339 339 341 343 343 341 341 338 335 333 327 326 327 332 336 336 337 338 337 339 339 337 334 333 330 327 323 321 323 323 330 331 335 338 336 337 338 339
332 335 337 338 338 338 342 338 337 338 336 334 332 328 326 323 322 324 326 331 334 335 333 334 335 329 321 318 314 317 311 312 313 315 317 326 328 330 331 331 332 334 335
329 334 337 336 336 336 337 334 334 333 332 331 329 326 325 325 322 322 322 322 323 325 327 321 314 312 307 307 306 305 305 305 304 309 313 322 324 326 328 328 331 331 333
326 331 335 336 334 334 334 333 332 331 330 328 328 327 324 323 319 320 322 326 321 314 311 309 304 302 301 301 300 299 299 300 301 303 305 318 321 322 324 328 325 323 324
319 325 331 334 333 334 331 331 330 330 329 328 327 327 325 321 323 323 313 312 310 308 305 300 299 298 297 297 297 296 294 296 296 297 298 314 313 317 320 318 319 319 320
311 318 328 332 333 332 331 329 329 329 328 327 328 329 328 328 317 313 310 307 305 303 301 297 296 294 293 294 294 294 292 295 292 292 296 297 308 312 312 314 314 314 317
308 308 324 330 332 331 331 330 330 330 330 326 328 329 322 314 312 310 306 303 301 297 295 295 294 293 292 293 291 293 292 294 290 291 293 295 296 303 307 309 309 310 312
308 314 322 330 330 330 331 330 329 328 319 317 314 313 311 309 308 305 301 299 297 294 293 292 293 292 290 290 289 291 290 293 288 289 290 292 293 292 298 303 304 305 307
310 314 321 326 328 328 328 323 316 315 312 311 309 308 306 304 304 302 299 294 293 292 291 292 290 291 289 289 290 291 289 291 288 290 288 290 289 290 291 296 299 300 302
311 313 320 325 325 318 313 312 309 307 306 306 304 302 301 300 299 297 293 292 292 291 290 289 289 289 290 288 291 290 289 291 288 287 288 289 288 288 290 289 289 291 299
310 310 319 320 314 313 310 308 308 303 301 299 299 299 298 296 294 293 292 291 291 290 288 288 288 287 288 288 287 287 288 288 288 288 288 286 287 288 289 288 288 289 290
310 310 316 315 313 313 311 306 304 302 298 297 297 296 295 293 293 292 291 290 289 288 287 286 286 286 286 287 284 284 282 284 286 287 286 287 285 286 288 288 287 289 288
309 310 313 311 309 307 304 302 299 298 296 295 294 293 291 292 291 291 290 289 288 288 286 285 285 285 284 285 286 282 279 278 282 285 285 286 284 285 285 286 287 288 288
309 311 309 308 307 305 304 303 302 299 296 295 293 290 289 290 290 290 289 288 287 287 285 286 286 284 284 283 284 287 284 283 280 279 283 284 283 285 284 284 285 286 287
310 308 307 306 306 304 304 306 303 299 295 293 290 288 287 287 288 288 288 287 286 286 285 284 283 282 283 282 282 282 281 282 281 279 278 279 283 284 284 284 283 285 286
307 306 306 305 302 302 305 304 302 296 293 290 287 287 286 287 287 287 287 285 285 285 284 284 283 282 282 282 281 281 281 279 279 278 277 279 279 281 283 284 283 284 285

GFSSE_sfc_thetae_021.txt.gz
Theta_e
338 345 358 357 354 352 349 346 343 341 340 340 341 345 345 343 341 339 338 336 334 335 339 342 345 344 343 345 343 340 338 335 335 334 334 333 331 331 333 334 334 335 334
340 346 357 357 354 352 348 346 343 342 340 340 339 343 344 342 341 339 336 334 333 332 335 338 339 340 342 341 339 338 336 334 334 334 333 330 330 332 332 333 335 334 333
342 348 352 356 355 351 348 346 343 341 340 339 342 344 340 337 332 333 335 333 332 332 331 333 334 335 336 336 336 336 335 335 333 333 331 331 330 330 334 337 336 337 334
344 348 350 356 355 352 348 346 342 340 339 338 343 342 337 335 332 333 334 333 333 332 330 330 331 330 330 330 330 330 331 331 333 333 330 329 328 328 332 334 336 338 337
344 350 350 356 355 352 348 345 342 339 337 338 340 340 335 335 335 333 333 334 334 332 331 331 331 332 333 333 333 333 333 333 333 331 331 331 330 326 330 334 336 339 338
346 351 352 355 354 352 349 345 343 339 338 337 336 337 337 337 337 337 338 338 335 332 331 331 331 331 331 332 333 335 334 335 336 334 334 332 332 330 333 332 335 335 335
346 349 351 355 354 352 348 346 343 341 338 337 338 337 336 337 338 340 342 339 336 333 332 332 334 335 335 335 335 335 335 338 334 334 333 333 333 335 337 336 334 336 336
345 347 350 351 352 351 349 346 344 341 339 337 338 337 337 338 342 341 341 339 337 334 334 335 336 336 336 336 337 337 338 338 334 334 334 334 333 336 339 339 339 337 337
344 345 349 350 350 349 348 347 346 343 341 339 339 339 340 338 339 342 341 339 337 335 336 337 338 338 337 338 339 339 339 338 336 336 334 334 332 338 340 341 341 341 340
342 344 346 349 350 349 346 345 345 344 343 341 340 339 338 337 335 338 341 340 338 337 337 338 338 340 339 338 335 332 331 331 332 332 333 332 334 336 338 338 338 339 341
337 341 345 347 349 347 346 343 343 342 341 339 337 335 335 336 333 332 333 335 336 336 337 337 338 333 329 324 324 320 322 322 324 324 325 328 329 332 334 333 334 336 337
335 338 343 345 347 346 343 343 343 342 341 340 337 336 335 333 331 329 329 330 332 333 332 332 323 319 317 316 316 315 314 313 316 316 321 326 327 329 330 331 333 333 336
335 338 340 343 344 345 344 343 342 342 340 339 337 335 334 331 331 331 331 331 333 328 319 314 312 312 311 311 310 309 308 311 312 311 318 322 325 328 326 328 326 326 328
332 336 340 341 342 343 343 341 341 339 340 338 337 334 332 331 328 329 332 325 315 314 309 309 308 307 306 306 306 303 304 308 306 309 313 317 319 323 324 323 322 322 325
327 334 338 341 341 341 340 340 340 338 338 337 336 334 333 331 329 320 316 312 309 308 306 306 304 302 302 302 303 301 304 303 301 305 308 313 316 317 317 318 317 319 321
323 326 334 338 340 340 340 338 338 338 337 336 335 334 331 329 319 314 310 308 304 303 303 302 301 300 299 299 301 301 302 302 300 303 303 306 309 311 312 313 313 314 315
315 316 323 334 339 338 339 338 337 337 336 334 333 332 330 319 314 310 306 304 301 300 301 302 301 299 298 298 298 300 300 298 299 298 301 301 300 305 306 308 308 309 310
314 313 314 327 335 337 337 336 335 335 332 328 326 320 315 313 310 306 302 300 299 300 300 299 300 299 297 297 297 299 298 300 297 297 299 298 299 299 300 302 303 304 305
313 314 318 327 332 334 335 335 333 328 321 317 314 311 310 308 305 302 300 299 299 298 298 298 297 298 296 296 296 298 297 299 297 297 296 297 297 297 298 296 298 298 300
313 315 320 327 332 333 328 321 319 313 310 309 308 305 305 303 301 300 299 298 298 297 296 296 295 296 295 294 294 294 298 300 297 297 297 295 296 295 296 296 295 295 297
314 316 321 327 329 322 318 315 313 311 305 303 302 301 300 299 298 299 297 297 296 295 294 294 295 293 293 294 293 294 296 296 297 297 296 294 295 294 295 294 294 294 293
314 316 324 326 321 321 321 316 313 309 303 300 299 298 298 297 298 297 296 295 295 294 293 293 293 293 292 293 290 291 289 292 294 294 294 294 293 293 293 293 292 292 293
312 314 322 319 318 317 312 306 303 301 298 297 296 295 295 296 296 296 295 294 294 294 292 292 292 292 290 291 292 289 287 286 287 292 292 292 292 291 292 291 291 291 291
312 315 319 315 313 310 311 308 307 305 299 298 295 294 293 295 295 294 294 293 293 293 292 291 291 291 291 289 291 290 290 289 285 284 290 290 290 289 289 290 290 290 290
313 314 315 312 311 309 311 310 311 304 297 294 293 291 292 293 293 293 293 292 292 291 290 290 290 289 290 289 289 288 288 288 288 285 282 285 288 289 289 289 289 289 290
313 313 312 310 308 308 309 309 307 298 294 292 292 290 291 292 291 291 291 291 291 290 290 289 289 289 289 288 288 287 287 285 285 284 283 284 284 286 287 288 288 289 289

GFSSE_sfc_thetae_024.txt.gz
Theta_e
341 351 358 355 353 351 349 347 343 342 342 341 344 347 345 343 341 340 338 337 335 336 341 344 344 340 341 345 343 340 337 336 335 335 333 332 331 331 332 334 334 334 335
344 353 358 357 354 351 348 345 343 342 341 340 341 346 345 343 341 339 336 335 332 333 336 339 340 343 343 342 340 338 336 335 334 335 331 329 329 332 333 333 334 335 332
345 351 353 356 355 352 348 345 344 342 340 339 341 344 341 336 333 338 335 332 333 332 333 335 335 336 336 337 337 336 335 334 333 334 332 330 330 329 334 335 337 337 336
346 351 351 355 354 351 348 345 343 342 339 342 345 341 337 334 332 334 334 334 334 332 331 331 332 332 331 331 330 330 331 331 333 333 330 326 326 326 332 334 336 338 338
347 351 351 355 354 350 348 345 342 340 338 341 344 339 337 335 334 334 334 335 334 332 331 332 332 333 333 334 334 334 333 334 334 334 334 333 333 328 331 332 336 338 339
346 350 353 354 354 352 349 345 342 339 339 341 340 337 336 336 336 335 335 337 335 333 333 333 333 333 333 333 334 336 336 337 335 335 335 334 334 334 336 334 334 336 336
345 348 351 355 354 352 348 345 342 340 338 338 338 337 337 337 337 338 341 338 336 333 333 333 335 335 335 336 336 336 335 336 336 336 336 336 336 335 338 339 338 336 337
344 347 348 352 352 351 348 346 343 341 338 339 338 337 338 338 342 341 340 338 337 334 334 335 336 337 336 336 337 338 338 338 336 337 337 337 335 337 340 340 340 341 339
344 346 346 352 350 349 348 347 345 343 341 341 341 338 339 337 342 343 341 339 337 335 336 337 338 338 339 340 339 338 336 335 336 335 334 335 335 338 340 340 339 340 342
344 345 345 349 349 348 347 345 345 344 342 341 340 340 339 336 336 342 341 340 338 337 338 338 340 339 337 331 328 326 326 330 333 333 334 332 331 334 336 336 335 337 338
341 344 344 345 347 347 345 343 343 343 341 339 337 336 335 337 335 334 334 336 335 337 336 337 332 329 325 324 321 319 323 326 326 327 328 327 329 331 332 333 335 336 338
337 340 344 345 345 346 344 344 342 341 339 336 335 334 333 332 332 332 331 331 333 332 331 325 321 318 325 324 323 322 321 320 321 320 323 324 327 329 330 331 329 329 331
338 340 343 345 346 346 343 344 342 341 340 339 338 336 333 331 331 333 335 335 337 329 326 316 320 319 317 317 317 314 313 315 316 317 319 320 324 325 329 326 325 325 329
336 340 342 344 346 347 345 343 342 340 340 338 338 335 332 332 333 334 335 332 327 320 313 315 318 314 312 310 309 308 309 310 310 314 315 317 322 323 322 322 321 323 324
332 337 341 344 345 346 345 343 342 339 340 340 338 335 335 334 333 333 327 322 314 312 315 316 313 310 308 306 307 306 307 308 307 311 313 316 316 317 317 317 317 319 319
328 332 338 342 345 346 345 344 342 340 340 340 337 336 336 335 331 321 316 310 307 308 308 310 308 306 306 305 305 305 304 307 307 308 309 309 310 311 312 312 312 312 313
324 325 330 337 343 344 344 344 342 340 340 339 337 337 337 331 319 315 311 306 304 304 306 308 306 306 305 304 303 304 304 304 305 305 307 306 306 305 306 307 307 307 308
323 323 323 325 334 341 343 344 342 340 341 339 338 337 332 321 315 310 307 303 303 304 306 305 305 305 303 302 302 304 303 303 302 303 303 303 303 303 301 301 302 303 304
322 323 322 323 325 333 339 342 342 340 340 338 332 327 321 315 310 306 303 303 305 305 305 303 303 302 301 301 300 301 302 302 302 301 302 302 301 301 301 298 298 298 299
321 322 323 323 327 333 337 339 340 339 336 329 321 316 313 310 306 303 304 305 304 303 302 302 300 300 299 299 298 299 303 305 303 302 302 299 300 299 299 299 299 298 298
321 321 322 323 328 333 335 334 332 326 325 320 312 311 309 304 302 303 304 304 304 302 301 300 299 298 298 298 298 300 301 301 301 302 302 299 299 298 298 298 297 297 297
319 321 322 325 330 333 333 332 331 325 319 317 310 304 307 304 301 303 304 303 302 300 299 298 298 298 297 297 295 296 295 297 299 299 299 298 297 298 297 296 296 296 296
318 320 322 327 331 332 331 331 322 312 307 304 304 298 299 300 302 302 303 302 301 300 298 298 298 296 296 296 295 293 292 292 292 297 297 296 296 295 295 295 295 295 294
318 322 323 329 329 329 329 319 315 314 311 309 303 298 296 299 299 301 301 300 300 299 298 296 296 296 296 294 296 294 294 292 289 289 294 294 295 293 294 294 294 294 294
318 321 323 327 327 325 321 321 321 317 314 304 298 294 295 296 299 300 299 299 298 297 296 296 295 295 295 294 294 293 292 292 292 289 287 290 293 294 294 293 293 293 293
317 320 323 324 322 321 322 321 321 315 304 297 294 293 293 296 298 298 298 298 297 296 295 295 294 294 294 294 293 292 290 289 289 288 287 288 288 291 292 292 292 292 292

GFSSE_sfc_thetae_027.txt.gz
Theta_e
342 353 358 354 352 350 349 347 344 343 343 346 348 347 345 343 341 340 338 336 335 339 342 344 346 341 344 345 343 340 338 337 336 336 333 330 331 332 333 335 335 335 335
346 352 357 355 352 350 349 345 343 343 342 341 345 347 346 343 341 338 338 334 333 335 339 340 341 344 344 342 341 339 337 337 335 336 334 332 329 333 335 335 336 334 335
347 353 353 356 354 351 347 344 343 342 340 340 343 346 341 339 338 338 335 335 334 333 335 337 336 337 337 337 337 336 335 335 335 335 334 329 329 331 333 336 337 336 337
348 350 351 356 354 351 347 345 344 340 340 342 344 342 338 334 336 335 336 336 333 333 333 334 334 334 334 334 333 332 332 332 333 334 332 329 327 330 328 332 336 339 337
347 349 351 355 353 350 347 344 342 341 341 344 343 340 337 335 335 336 336 336 333 333 333 333 334 334 334 334 336 335 334 335 336 336 334 335 333 335 333 333 334 337 339
346 349 352 353 353 351 347 344 342 339 339 346 342 340 336 335 335 335 336 337 334 333 334 334 335 335 335 334 334 335 335 336 338 335 335 335 335 336 338 337 336 335 336
345 350 351 354 353 351 347 344 341 339 340 341 339 337 337 336 337 338 339 338 335 334 334 335 336 336 336 336 337 337 337 337 335 335 335 336 336 337 339 341 340 340 338
344 347 350 351 351 351 348 345 342 340 339 339 339 338 340 338 340 341 341 338 336 335 335 335 337 338 337 338 339 339 338 339 335 334 334 334 337 338 340 341 341 341 341
344 345 348 350 349 348 348 347 345 343 342 341 340 339 340 338 344 343 341 339 337 336 337 338 338 338 340 339 336 334 333 335 333 333 332 333 334 336 337 338 337 338 339
342 343 345 348 350 347 346 345 344 344 342 342 342 342 338 336 342 343 342 340 339 338 339 339 339 338 334 329 326 324 327 331 330 331 330 327 331 333 335 335 337 338 339
339 341 342 346 347 345 344 343 343 342 340 339 338 337 335 335 336 337 335 337 337 338 337 334 330 328 327 325 321 322 324 325 324 324 325 327 329 330 333 334 332 332 334
337 339 342 343 344 344 342 342 341 339 337 332 332 335 334 334 334 333 332 334 336 334 329 325 321 321 324 325 323 323 320 318 318 318 321 325 329 330 332 329 328 329 331
337 339 342 343 343 344 342 342 340 340 338 335 332 331 331 331 331 331 333 332 333 330 327 322 322 321 320 318 317 314 312 314 314 315 317 321 325 330 327 325 325 327 327
334 338 341 343 344 344 343 342 340 338 338 337 336 333 330 329 329 330 332 334 331 326 321 321 321 317 315 312 310 309 309 311 309 312 314 321 321 322 322 322 321 323 322
331 336 339 342 344 345 344 342 341 338 338 338 337 334 330 330 330 332 332 328 323 319 319 319 317 314 310 308 308 307 306 308 307 309 313 317 316 317 317 317 316 316 316
330 332 338 340 344 344 344 342 341 339 338 338 337 334 333 333 333 331 327 320 314 312 312 313 310 308 307 306 306 306 305 306 306 307 309 309 311 311 312 312 311 311 311
324 329 332 338 341 343 343 343 341 340 339 338 337 335 334 335 331 326 317 311 308 309 311 310 308 307 307 305 304 304 304 304 305 304 306 308 307 306 306 306 306 307 307
325 324 326 332 338 341 342 343 341 341 339 338 337 335 335 334 325 321 314 309 306 309 309 307 306 306 305 304 303 304 304 304 303 302 304 303 304 303 303 301 301 302 303
324 325 325 326 329 335 339 341 341 340 337 337 336 335 336 328 322 317 310 306 307 308 308 305 304 303 302 302 301 302 303 304 304 302 302 302 302 302 302 300 298 301 300
321 324 324 325 324 327 335 339 340 338 337 337 337 336 330 320 312 309 307 308 308 307 305 304 303 302 301 300 299 301 304 304 305 303 302 302 301 301 301 301 301 300 301
320 321 322 323 325 326 331 334 337 334 335 334 334 328 320 315 310 307 307 307 308 306 304 303 302 301 300 299 301 302 303 301 301 303 304 301 301 300 299 299 298 298 297
319 321 321 323 325 327 333 337 338 334 329 331 325 319 313 311 307 306 307 307 306 304 302 302 301 300 299 299 295 299 297 298 299 300 300 299 298 299 298 298 296 296 297
318 320 322 323 326 330 333 337 333 319 315 312 313 311 310 307 306 304 306 306 305 305 302 301 301 299 298 298 296 294 294 294 293 299 298 298 297 297 297 297 296 296 296
317 322 323 324 327 332 335 332 327 316 312 310 308 307 305 303 303 302 303 305 304 303 301 299 299 298 298 295 297 295 294 293 290 289 296 297 297 294 295 296 295 295 294
315 321 324 325 328 332 332 332 327 318 320 311 306 302 300 301 302 301 302 303 302 301 299 298 297 296 296 295 294 294 293 293 293 290 287 291 294 295 295 295 294 294 294
314 319 324 324 328 331 331 328 322 322 316 305 303 301 298 299 300 301 302 301 300 299 298 297 297 296 295 294 293 292 291 290 289 289 288 288 288 291 293 294 293 293 293

GFSSE_sfc_thetae_030.txt.gz
Theta_e
344 351 357 354 352 350 349 348 347 348 349 349 349 348 346 343 342 340 337 336 339 343 343 347 346 345 346 345 343 340 339 338 338 336 333 331 332 334 334 335 336 334 334
347 351 356 355 352 350 349 346 344 345 345 346 347 347 345 343 341 340 336 334 336 340 341 342 343 345 345 343 342 340 339 337 336 335 336 336 334 334 336 337 338 335 336
347 351 351 355 353 351 347 344 343 342 342 343 347 347 344 341 340 338 337 335 334 336 338 338 337 338 337 337 336 335 334 334 333 333 337 329 327 332 332 333 337 337 336
349 349 349 354 353 350 346 345 343 341 341 344 344 340 338 337 338 338 337 334 334 334 336 336 336 336 336 336 335 335 335 334 334 337 332 330 328 334 330 331 334 338 338
347 347 351 354 353 349 346 345 342 342 344 345 345 341 337 337 338 338 338 334 334 334 334 335 335 335 335 335 336 337 336 336 339 337 331 327 327 336 337 335 333 335 337
344 347 352 353 352 351 347 344 343 341 344 344 344 342 339 337 337 338 339 335 335 335 336 337 337 337 337 337 336 335 335 336 339 332 329 334 333 338 339 340 339 338 335
345 347 350 353 352 350 346 344 341 340 346 341 340 339 338 338 338 337 340 337 335 335 336 338 338 338 338 337 337 337 337 339 333 333 331 333 335 339 340 340 341 342 342
345 347 348 350 351 350 347 345 343 341 343 343 342 340 341 339 339 340 340 338 336 336 337 338 339 339 338 339 339 339 339 338 333 329 330 330 337 337 339 340 338 339 340
345 346 346 346 348 348 347 345 344 343 343 343 343 342 339 342 344 343 341 339 337 338 339 339 340 339 340 336 334 331 333 333 326 329 327 326 336 335 337 337 339 340 341
339 344 343 345 345 344 343 344 343 342 343 343 342 341 336 340 342 343 341 340 339 339 339 340 339 337 333 329 325 325 327 328 321 321 321 325 333 333 336 337 335 335 336
336 337 344 344 344 342 341 341 342 342 340 340 339 337 334 331 337 337 337 338 340 338 338 334 333 331 329 329 327 327 326 315 314 318 320 329 331 334 335 332 330 334 333
332 334 340 344 344 343 341 338 336 336 333 331 331 332 332 331 331 334 332 336 338 336 333 329 325 327 327 318 317 321 308 307 309 314 317 326 327 331 330 328 328 329 330
331 333 335 339 342 340 339 338 336 335 332 328 327 330 328 327 326 328 326 328 329 327 321 320 317 316 312 311 307 304 304 305 304 311 318 327 329 328 326 325 325 326 324
331 333 336 336 339 339 340 339 336 335 334 329 327 328 324 323 324 323 327 328 328 324 315 314 312 310 308 304 302 301 301 303 301 309 316 322 322 323 322 321 321 321 320
328 332 335 336 337 340 338 339 336 334 333 332 330 328 325 322 322 324 327 322 315 314 313 312 308 306 301 301 300 300 299 299 299 305 308 318 317 317 317 317 316 315 314
322 330 335 336 339 340 338 337 337 335 334 334 331 329 325 325 325 325 318 314 309 307 307 305 301 300 299 299 299 298 297 297 298 300 305 308 313 312 312 311 310 310 311
317 326 331 335 339 337 339 339 337 336 334 333 334 329 327 328 325 320 312 308 305 305 305 303 301 301 299 299 297 298 297 296 297 296 300 302 305 309 306 305 306 306 307
318 319 326 336 337 338 338 338 337 336 334 333 335 330 328 328 320 313 309 304 303 305 304 301 299 299 297 297 295 295 296 296 296 296 297 297 299 300 303 302 302 303 303
316 318 319 328 334 336 337 338 337 335 336 335 335 331 329 324 318 312 306 303 302 302 301 300 297 296 295 295 295 294 296 296 296 297 295 296 296 296 296 301 300 303 302
314 316 318 320 325 333 337 337 337 334 334 334 333 331 327 320 314 307 303 302 304 302 299 298 296 296 294 293 297 297 296 297 296 295 294 297 295 295 294 294 294 294 302
312 312 314 317 318 321 324 331 332 329 332 333 331 330 320 311 306 303 303 303 303 301 298 297 296 295 293 293 293 294 294 294 295 295 296 296 294 294 293 293 291 291 292
311 312 313 315 318 319 321 327 331 331 329 328 327 321 313 308 305 303 303 302 300 298 296 295 296 294 293 292 289 290 289 291 293 294 293 293 291 292 292 292 291 291 290
311 313 313 315 315 320 321 327 324 321 315 315 316 311 308 308 303 303 303 302 300 298 296 295 294 293 292 291 290 288 286 286 286 291 291 291 290 290 289 291 291 291 290
309 313 314 315 316 319 324 327 323 322 317 311 310 308 304 302 301 301 302 301 299 299 295 294 295 292 292 290 291 292 288 287 284 283 288 289 290 289 289 289 289 290 290
305 307 313 315 316 319 325 327 324 317 312 308 306 303 301 300 299 301 302 300 299 298 293 293 292 291 290 289 289 288 287 287 287 284 282 284 287 289 289 289 288 288 289
304 306 311 314 315 322 326 328 320 315 308 304 302 300 299 302 302 300 300 299 298 296 293 292 291 290 289 289 288 288 287 285 284 283 281 282 282 285 287 288 288 287 288

GFSSE_sfc_thetae_033.txt.gz
Theta_e
342 350 357 353 352 351 351 352 352 351 351 351 350 347 345 343 341 338 337 340 343 343 346 346 347 347 346 345 343 341 339 338 336 335 333 332 334 335 336 338 337 334 334
347 351 355 354 352 350 349 347 347 349 350 350 349 347 345 342 340 338 335 337 342 342 344 347 347 347 345 344 342 339 338 336 334 333 335 335 335 334 336 336 338 334 335
349 351 351 354 353 350 347 345 344 344 346 347 347 346 344 341 339 337 335 335 339 340 340 340 341 340 339 337 336 335 333 332 332 334 338 327 326 331 331 332 336 338 335
349 349 349 353 353 349 345 345 344 342 343 348 347 343 341 340 338 336 335 335 336 338 338 337 337 338 337 337 336 336 336 335 336 339 331 327 328 335 332 331 333 337 339
347 348 350 353 352 348 346 344 342 343 347 347 345 342 340 339 340 338 335 335 335 335 335 335 336 336 336 337 338 337 336 336 339 336 329 325 329 337 338 337 334 333 335
345 348 351 352 351 350 348 345 345 346 346 345 344 342 342 340 340 340 336 336 336 337 337 337 337 338 338 337 337 336 335 336 339 332 330 336 333 339 339 339 339 339 338
344 348 349 353 352 350 348 347 345 346 347 345 342 339 339 339 339 341 337 336 336 337 338 339 339 339 338 339 338 338 338 339 333 329 331 334 335 338 340 341 340 340 341
344 347 348 350 350 349 347 346 344 347 346 344 343 341 340 341 340 342 339 337 337 338 339 340 340 340 340 340 340 338 338 337 331 328 326 330 338 337 339 339 340 341 342
345 345 346 346 346 347 346 344 344 347 346 344 344 343 341 342 344 342 340 338 338 339 340 340 340 341 339 336 332 329 331 331 322 323 325 326 338 336 337 338 338 337 338
343 343 343 343 344 342 341 343 343 343 344 344 344 340 339 341 342 343 341 340 339 340 340 341 341 338 334 330 326 327 328 325 317 319 322 327 333 336 337 333 333 336 335
342 342 342 342 341 340 339 339 341 341 341 340 340 335 335 336 337 337 336 339 341 340 339 337 337 334 330 329 327 327 319 307 314 316 319 333 335 336 332 330 334 332 332
336 339 341 341 341 340 341 337 335 336 333 333 333 331 328 331 333 335 334 337 340 339 336 333 330 330 327 317 313 313 305 304 311 313 319 330 328 332 329 328 329 328 327
330 338 342 342 342 339 338 336 333 332 329 328 328 330 328 327 330 328 328 331 329 328 324 322 317 313 309 307 303 300 303 302 308 312 324 329 329 329 325 326 326 324 323
329 331 341 342 342 339 338 335 333 332 329 325 325 328 324 322 326 324 324 325 325 322 315 312 311 307 303 300 300 298 298 299 305 310 318 325 324 324 322 321 320 319 318
329 331 333 340 339 337 336 335 334 333 332 327 325 327 323 323 322 322 324 325 318 315 312 309 304 301 299 298 298 297 296 297 303 307 310 320 320 319 318 316 315 314 313
327 331 334 334 339 337 336 335 334 334 333 330 327 326 323 323 321 322 317 314 310 308 305 302 299 299 298 297 297 296 295 295 298 304 306 309 316 314 312 311 310 310 310
314 330 333 335 338 337 336 335 335 335 334 331 330 327 323 323 322 317 312 308 306 305 303 300 300 298 297 297 295 295 295 294 294 300 302 302 304 311 307 307 306 307 307
314 321 333 336 337 337 336 335 336 336 333 331 331 329 324 324 319 313 309 305 303 303 301 299 298 296 295 294 293 293 294 295 294 295 298 299 298 299 304 303 303 304 304
311 314 327 334 336 337 337 337 337 334 332 331 330 328 327 320 315 312 307 303 302 301 299 299 295 295 293 293 294 292 294 294 295 296 293 294 294 295 295 302 301 303 302
312 312 314 330 335 337 337 337 335 330 333 333 331 328 325 318 313 308 304 302 301 300 297 296 294 293 292 292 295 295 294 295 294 293 293 295 294 294 293 293 292 292 300
307 308 312 318 332 335 335 333 333 329 331 332 332 327 322 317 310 306 303 301 301 298 296 295 294 293 291 291 291 291 293 292 294 294 294 294 293 293 292 291 290 290 291
308 308 308 312 321 332 334 335 331 327 327 329 329 323 316 311 307 305 303 301 300 297 295 294 294 292 291 290 289 289 288 290 291 292 292 292 290 291 291 291 289 289 289
306 307 310 309 314 319 326 327 323 320 317 317 316 313 309 308 307 304 302 301 298 296 295 294 293 293 291 290 288 288 286 286 285 289 289 289 288 288 288 289 290 290 289
302 306 309 311 311 315 316 324 326 326 323 317 315 309 307 306 304 303 301 299 298 296 294 293 293 292 292 289 289 291 287 286 284 283 287 287 288 288 287 287 287 288 288
301 302 306 310 312 313 317 324 326 325 318 310 307 305 306 304 304 303 302 300 299 298 293 292 293 290 290 289 289 288 286 286 285 283 282 284 285 286 287 287 286 286 287
300 300 303 307 309 311 317 323 325 319 309 306 305 302 302 302 303 303 303 301 299 296 294 293 292 291 289 288 288 287 286 285 283 282 281 281 281 284 285 286 286 285 286

GFSSE_sfc_thetae_036.txt.gz
Theta_e
343 350 356 354 354 354 353 352 352 353 353 350 348 346 344 342 339 338 342 343 344 344 343 343 345 348 346 344 343 341 339 336 334 334 333 334 336 336 337 337 335 334 334
346 350 355 354 353 353 352 352 351 352 352 350 347 345 344 341 338 336 338 342 342 345 347 348 347 347 345 343 341 339 335 333 334 334 334 332 334 333 334 337 336 333 334
347 350 350 353 353 352 350 349 350 350 350 349 347 345 343 340 338 335 336 340 341 342 343 345 345 343 340 338 336 334 332 333 336 337 336 324 325 330 329 331 336 338 334
348 349 348 353 352 349 346 345 345 347 347 348 347 345 342 340 336 335 335 338 339 339 339 339 339 339 338 336 335 335 335 336 337 338 328 326 328 336 333 331 333 336 338
347 347 348 353 351 347 346 345 344 345 348 348 346 343 340 338 336 335 335 336 337 337 336 336 336 336 336 337 337 336 336 336 338 333 326 323 329 337 338 338 335 333 334
345 346 350 352 350 349 347 345 343 346 347 344 345 343 339 340 337 336 335 335 335 336 336 337 336 336 336 336 336 335 337 338 335 329 329 330 332 339 339 340 340 340 340
344 346 348 351 350 348 346 347 347 348 344 341 340 340 341 341 340 336 336 336 337 338 338 339 339 339 339 339 338 338 339 338 328 325 330 333 332 339 340 339 339 341 340
344 346 347 349 350 349 347 347 349 350 346 343 343 342 340 340 342 339 336 337 337 338 339 340 340 340 340 340 339 337 334 333 325 323 324 327 338 338 340 341 340 340 340
345 345 345 346 346 347 346 345 348 349 346 344 343 344 343 343 343 341 338 337 338 339 340 340 340 341 339 336 332 329 330 330 321 321 325 325 338 338 339 337 337 337 336
343 344 344 344 343 341 340 343 345 345 343 343 344 342 340 340 341 343 340 340 339 340 340 340 341 338 334 330 327 329 326 325 317 320 323 326 336 338 334 333 336 335 332
340 341 342 341 339 338 337 338 342 343 342 342 340 336 336 336 338 337 336 338 341 340 340 339 338 334 330 326 327 322 316 314 314 316 320 336 337 334 332 334 333 331 328
336 338 341 340 339 338 338 334 333 336 334 334 333 329 332 333 334 335 333 337 341 340 338 336 335 330 323 315 305 310 303 310 311 314 320 331 334 331 329 331 328 327 326
337 338 340 340 339 338 337 334 331 331 330 330 330 328 327 331 330 330 329 332 330 330 325 321 316 312 307 303 300 299 301 308 310 316 325 333 330 328 326 327 323 322 322
336 337 340 340 339 337 337 335 333 331 328 327 328 329 325 323 326 325 326 326 325 321 316 312 310 305 299 299 297 296 298 303 308 312 320 327 326 324 322 321 319 318 317
330 337 339 340 339 338 335 334 332 331 329 327 326 327 326 322 327 325 323 324 323 319 311 309 304 299 297 297 296 295 295 300 305 308 311 322 322 320 318 316 315 314 314
328 330 340 340 340 338 336 333 332 332 331 326 324 325 324 324 325 322 322 322 317 313 309 303 298 298 296 296 295 294 293 296 303 305 306 312 318 315 313 312 310 309 310
318 330 333 340 340 336 336 333 333 333 332 329 326 324 324 324 321 320 319 315 310 305 301 298 298 297 296 295 293 294 293 292 300 301 302 302 306 313 309 308 307 307 307
311 317 330 336 339 336 336 335 334 333 333 330 328 326 324 323 321 317 315 311 306 302 300 299 297 295 294 293 291 292 293 293 293 299 299 299 297 300 305 304 303 304 304
308 311 325 333 336 336 336 335 334 333 332 330 330 327 324 322 318 315 312 307 303 301 299 298 295 294 292 292 293 292 293 293 292 295 295 296 295 296 294 302 303 302 302
310 307 318 330 334 335 335 334 333 331 330 330 330 328 323 320 315 313 307 304 301 299 297 295 294 292 291 291 294 294 293 294 292 291 292 294 293 293 292 292 291 293 299
304 305 308 323 331 335 333 332 331 329 328 329 330 327 323 318 314 311 306 302 300 299 296 295 293 291 290 290 291 291 292 291 292 292 292 292 292 292 291 291 289 289 290
305 304 304 310 327 333 335 335 333 331 330 329 331 326 322 317 314 310 305 302 300 297 295 294 294 292 290 289 289 289 288 290 290 290 291 292 289 290 290 289 288 288 288
303 305 306 306 316 329 334 330 322 321 319 318 319 323 320 317 314 312 306 303 299 297 296 294 293 293 290 289 288 289 286 287 285 288 288 288 287 287 287 288 288 288 288
301 302 305 307 308 320 327 327 326 326 323 325 324 317 311 313 313 308 304 304 299 297 295 294 294 292 291 289 288 289 286 286 284 284 286 287 287 287 286 286 286 287 287
300 299 301 304 307 310 318 328 327 327 327 314 310 310 309 309 309 307 305 302 299 299 297 296 292 292 291 291 290 287 286 285 284 283 282 284 286 286 286 286 286 285 286
299 299 299 301 304 307 310 319 326 326 314 310 307 307 306 305 305 305 303 302 301 299 297 296 294 293 292 290 289 286 286 284 283 282 281 281 281 284 285 286 285 284 284

GFSSE_sfc_thetae_039.txt.gz
Theta_e
339 349 357 355 355 356 355 355 355 354 352 350 348 346 343 341 341 342 343 343 344 343 341 344 347 346 345 344 342 340 336 335 335 335 335 337 336 336 337 337 337 332 335
345 350 356 356 354 354 351 352 355 354 352 349 348 345 342 340 337 339 341 343 346 344 344 346 348 346 344 343 340 336 334 335 334 334 332 334 335 334 335 337 335 332 333
347 349 351 355 354 354 353 353 353 352 350 348 347 344 341 339 335 337 341 342 344 346 347 348 347 344 341 338 335 332 335 337 338 337 333 323 324 332 331 334 336 338 333
347 348 347 354 353 352 352 351 351 351 350 348 346 344 341 338 335 336 339 338 341 342 342 341 340 339 337 335 335 337 338 338 337 334 325 324 328 337 334 332 333 335 338
346 346 347 353 352 350 348 348 348 349 348 347 346 343 340 336 335 335 337 339 338 338 338 338 338 337 337 337 336 337 337 338 337 331 323 322 328 336 339 340 337 335 334
344 344 349 352 351 349 348 346 345 347 348 347 345 342 339 336 336 335 336 336 336 336 335 335 335 336 337 337 336 337 339 338 332 327 324 327 330 340 342 341 341 341 341
342 344 347 351 349 347 346 344 346 347 348 344 342 341 340 338 336 336 335 336 336 336 336 337 338 338 339 338 338 339 337 333 324 326 329 330 330 340 341 341 342 342 342
342 345 346 348 348 348 345 345 348 348 345 343 343 340 341 340 337 336 336 337 337 338 339 339 339 339 339 339 338 333 331 330 324 323 324 325 339 340 341 339 339 338 338
344 344 343 344 345 346 345 347 348 348 345 343 344 344 343 343 341 337 337 337 338 339 339 340 340 340 339 334 329 328 330 329 319 322 325 325 340 339 336 337 337 336 334
342 343 341 341 342 341 340 345 346 346 344 342 343 342 341 340 341 341 339 339 339 340 340 340 340 337 333 328 327 330 328 325 318 321 322 324 338 336 334 336 335 333 331
341 341 343 340 339 337 336 338 343 343 342 341 340 338 336 334 336 337 335 338 341 340 340 341 339 333 329 327 323 323 320 314 314 316 320 338 335 333 335 334 332 330 327
337 339 341 340 338 336 338 334 334 338 335 335 333 330 331 332 334 335 332 336 341 341 340 339 336 329 320 306 304 309 308 309 311 315 318 336 332 330 332 329 327 326 326
337 339 339 340 338 336 335 332 331 332 331 331 330 327 329 331 331 330 329 331 331 332 327 323 317 311 305 301 299 300 306 307 312 315 325 334 329 327 329 325 323 322 322
336 337 339 340 338 336 335 333 331 331 328 327 328 327 326 326 327 326 326 326 326 323 319 311 308 302 299 298 296 297 301 306 309 312 320 328 326 324 323 321 319 317 317
335 336 338 339 338 336 334 333 331 330 329 329 328 328 325 324 326 325 324 324 323 318 313 310 303 298 296 296 295 295 297 304 306 309 312 323 323 321 319 317 316 315 314
333 336 338 338 338 337 335 333 331 331 330 328 328 328 327 324 325 325 322 322 320 317 310 306 299 296 295 295 294 293 294 302 303 306 307 313 321 317 315 313 311 310 310
324 331 337 338 339 337 336 334 332 331 331 327 326 325 327 324 323 324 322 320 318 313 307 298 296 296 295 295 292 292 292 297 301 302 303 303 307 315 311 309 308 308 307
310 321 332 340 339 338 336 334 333 331 331 329 326 323 324 324 322 320 320 317 311 304 299 297 296 294 293 293 291 291 292 292 298 299 300 299 298 300 305 306 304 305 306
308 310 322 334 338 338 336 335 333 331 331 329 328 324 322 323 321 319 317 314 306 301 298 298 295 294 292 291 292 291 291 291 293 299 296 296 295 296 294 302 303 302 302
305 306 311 327 334 338 336 334 333 330 331 329 330 327 323 321 319 317 313 308 304 300 297 296 294 292 292 291 294 293 292 293 291 292 294 295 293 293 291 292 291 292 301
303 303 305 320 329 334 333 330 330 328 329 327 329 329 324 321 318 315 312 306 303 301 298 295 293 292 290 289 291 291 291 290 290 290 290 291 292 291 290 290 288 288 289
304 303 302 308 327 331 333 333 332 331 330 330 329 328 323 320 318 314 310 306 303 298 295 294 294 291 290 289 289 289 288 289 290 289 290 292 290 290 289 289 288 288 288
301 303 305 303 312 329 333 333 323 323 319 320 323 324 323 321 317 316 312 308 303 301 297 295 294 293 290 288 288 290 286 286 286 287 287 287 287 287 287 287 288 288 287
299 301 303 305 305 315 330 331 328 327 324 325 327 325 317 318 316 316 312 307 304 301 298 298 295 293 291 289 287 288 286 287 285 284 285 286 285 286 285 285 286 286 286
298 298 299 301 304 306 319 329 328 327 327 325 323 319 314 313 314 314 311 307 304 303 303 300 295 295 292 291 289 287 286 287 284 283 282 283 285 285 285 285 285 284 285
297 297 297 299 300 303 306 316 325 326 319 315 311 316 310 309 310 309 308 306 305 304 302 300 298 296 294 293 291 287 289 287 285 284 281 281 281 283 284 284 284 283 283

GFSSE_sfc_thetae_042.txt.gz
Theta_e
335 345 357 358 356 356 356 356 355 354 352 350 347 346 344 344 344 345 344 344 345 342 343 346 347 345 344 344 341 337 336 337 336 337 338 338 337 337 338 338 337 332 336
340 350 356 357 356 356 355 356 355 354 352 349 347 344 342 340 341 342 342 344 343 343 343 347 347 346 344 342 337 336 337 336 335 334 333 334 336 333 338 337 335 332 335
344 349 351 356 356 355 353 355 354 352 351 349 347 344 341 338 336 339 342 345 346 346 347 348 346 344 341 337 334 337 339 339 338 335 331 323 325 331 332 336 339 335 334
347 348 348 355 355 353 354 354 353 351 349 348 346 343 341 337 336 340 342 343 344 345 344 343 341 339 336 334 337 339 339 338 337 333 324 325 330 338 333 333 333 337 338
345 346 347 354 354 354 353 351 351 351 349 347 345 342 340 336 336 339 338 340 341 341 340 340 339 338 337 337 339 338 339 338 336 329 322 324 328 337 340 340 338 337 334
341 342 349 353 353 353 351 350 350 350 349 347 345 342 338 336 336 337 339 338 338 337 337 336 336 337 338 338 338 340 339 336 331 326 322 326 330 342 342 342 342 342 342
339 342 346 352 351 349 347 347 348 347 348 347 344 341 337 337 336 336 337 336 336 336 336 336 337 338 339 339 340 339 335 332 325 325 327 328 329 341 342 342 342 342 342
341 343 345 348 349 348 347 346 347 348 349 346 344 341 339 337 337 336 336 336 337 337 338 339 340 340 340 340 336 332 332 331 325 323 324 325 339 340 340 339 338 337 336
342 342 342 342 344 346 346 345 346 350 347 345 344 343 343 341 338 337 337 338 338 339 340 340 340 340 338 332 330 330 332 328 320 322 324 326 340 337 338 338 336 334 333
341 341 339 338 340 339 339 345 346 345 344 343 344 342 340 340 339 339 339 339 339 340 340 340 340 337 330 329 331 331 328 325 318 320 322 329 337 335 337 336 334 331 330
341 340 338 337 338 337 336 340 344 344 341 341 340 338 336 333 336 335 334 337 340 341 340 340 338 332 327 327 328 325 320 312 313 317 322 337 334 336 335 332 331 329 327
335 338 341 339 336 335 338 334 336 338 336 334 334 333 331 330 332 334 331 336 340 341 341 340 336 328 316 303 305 313 309 309 312 316 318 335 332 333 332 328 327 327 326
336 338 340 339 337 335 335 331 331 333 332 332 331 329 328 330 330 330 328 330 331 332 328 326 316 308 302 299 299 304 306 310 313 315 327 333 329 330 328 325 323 323 322
336 337 338 339 338 335 334 331 330 332 330 330 329 327 326 326 327 327 326 326 327 324 319 312 307 300 299 296 297 299 305 308 309 313 321 329 326 326 324 321 319 318 317
335 336 337 339 337 337 332 331 329 331 331 332 328 327 325 326 326 325 325 324 324 320 316 309 303 297 296 295 295 296 302 305 307 310 312 324 325 322 320 318 317 315 314
335 336 337 338 338 337 334 331 330 329 329 328 328 328 325 326 326 325 323 322 321 318 312 308 299 296 295 294 293 294 299 302 304 306 308 313 322 319 317 314 312 312 312
331 336 336 338 338 337 335 333 331 330 329 328 328 326 327 324 325 325 323 320 320 317 309 301 296 295 294 294 292 292 294 300 302 303 304 305 308 316 313 311 311 309 309
318 327 336 338 338 337 337 335 333 330 330 328 327 326 327 325 323 323 322 321 318 312 304 298 296 294 293 293 291 291 291 295 299 300 300 300 298 300 307 307 306 307 307
306 310 326 336 337 337 337 335 333 331 330 329 327 325 324 325 323 323 321 320 314 306 300 298 294 294 292 291 291 290 290 290 295 300 297 296 296 296 294 303 305 304 303
304 305 308 324 336 337 337 336 334 331 330 329 327 326 321 324 322 321 319 316 312 303 298 296 294 292 292 291 293 292 291 292 290 294 295 296 293 294 291 292 291 291 301
303 303 303 308 325 335 336 333 332 330 330 328 329 328 323 322 320 320 319 315 311 305 300 297 293 292 290 291 291 290 291 290 289 289 290 291 291 291 290 289 288 288 289
303 302 302 304 312 327 334 334 332 332 331 330 329 329 326 322 320 319 317 313 310 305 297 296 294 291 290 290 290 289 288 289 289 289 290 290 289 290 289 288 287 287 287
299 301 303 302 308 319 330 333 324 324 322 325 325 327 326 322 320 320 315 313 308 306 301 298 296 294 291 289 289 291 286 287 286 286 287 287 287 287 286 287 287 287 286
298 299 301 303 303 311 324 329 327 327 326 326 327 328 325 321 320 319 316 313 308 307 304 301 301 303 296 290 288 288 286 288 286 284 285 285 285 286 285 285 285 285 285
297 297 298 299 302 304 312 328 327 326 327 324 325 323 323 319 320 318 316 313 308 306 304 302 301 299 299 294 293 289 287 285 284 285 283 283 284 285 285 284 284 284 284
300 300 299 297 298 301 305 315 326 326 326 319 317 320 314 314 315 316 315 311 309 305 303 303 302 301 298 296 294 291 289 287 285 285 285 284 285 283 284 284 283 283 283

GFSSE_sfc_thetae_045.txt.gz
Theta_e
340 348 359 359 357 357 357 357 357 355 353 351 349 347 347 347 347 346 345 346 343 344 346 347 346 345 344 343 339 338 339 339 339 339 338 339 339 339 339 337 336 335 338
343 353 357 358 357 357 358 358 356 355 353 349 347 345 343 343 344 343 343 343 344 343 344 347 347 345 343 339 338 338 338 337 335 334 334 335 337 338 338 338 335 334 338
345 351 352 357 358 358 358 356 355 354 352 349 346 343 341 339 339 341 344 346 344 344 347 348 346 343 340 336 338 339 340 339 336 334 333 335 332 333 336 338 338 335 333
349 350 351 356 357 356 357 356 354 352 350 349 347 343 340 337 338 342 344 347 348 348 346 345 342 338 336 337 340 340 340 338 336 332 335 337 338 337 334 333 335 338 337
349 350 352 356 356 354 354 356 353 352 350 348 346 343 339 336 338 342 343 344 344 343 343 342 340 338 338 339 340 340 340 338 335 332 335 338 340 339 341 340 339 336 335
348 349 353 354 353 353 354 354 352 351 349 348 344 342 338 336 338 338 341 341 339 339 339 339 338 338 339 339 340 340 338 336 334 332 335 337 339 342 343 343 343 343 343
346 348 349 353 354 353 352 352 352 351 349 347 345 342 337 337 337 339 338 338 337 337 337 337 338 339 340 340 341 337 335 333 334 334 336 338 340 342 342 341 341 341 341
345 347 348 349 351 350 350 349 350 350 349 347 344 341 338 337 337 337 337 337 337 337 338 339 340 341 340 339 335 334 335 333 334 335 335 339 341 340 341 339 337 336 336
346 346 347 346 347 347 347 347 348 349 350 348 346 343 341 340 338 337 337 338 338 339 340 341 341 340 336 332 331 333 331 329 332 332 333 338 339 337 339 337 335 333 332
345 345 345 346 345 345 344 344 345 347 346 345 344 342 340 338 338 339 339 340 340 340 341 341 340 334 331 332 334 333 329 326 329 331 336 336 336 338 337 335 332 331 330
341 344 345 344 344 343 342 341 344 343 342 341 341 338 337 339 337 336 335 337 340 341 341 341 337 330 328 332 329 325 322 324 328 332 336 337 335 337 334 332 331 329 328
337 340 342 343 342 342 340 342 345 344 341 339 340 340 340 340 340 337 333 336 340 340 341 341 333 325 317 315 320 319 320 320 325 331 334 335 333 334 330 328 328 328 326
336 338 339 341 342 341 340 340 342 343 339 338 339 339 338 337 339 339 336 336 339 335 339 336 326 320 312 311 312 317 317 322 326 329 333 333 330 331 327 325 325 323 321
336 337 339 343 341 341 341 338 338 340 339 337 337 337 336 336 336 338 336 336 338 338 333 329 321 313 309 306 309 313 316 320 324 328 330 329 328 327 324 323 321 319 319
335 337 338 340 339 339 339 338 337 337 339 337 337 335 335 335 334 335 336 335 335 335 330 323 314 309 306 305 306 310 313 316 320 324 326 325 327 324 321 320 319 316 316
337 337 339 338 340 339 336 337 336 335 337 338 337 336 334 334 334 335 335 333 333 332 328 321 312 307 306 304 303 305 311 314 317 320 322 322 324 322 319 317 314 313 314
335 339 339 339 340 339 337 338 337 336 335 336 336 335 334 333 334 335 334 332 332 330 325 317 308 305 303 302 302 303 308 311 313 315 317 318 318 319 317 313 312 311 312
318 333 339 340 339 339 338 337 338 336 336 334 335 335 334 332 333 334 333 331 331 328 321 314 307 304 303 303 301 301 303 308 310 311 313 312 311 311 313 310 309 309 308
310 313 329 339 339 339 338 337 336 336 335 335 333 333 333 333 331 332 332 331 330 326 318 311 305 304 302 301 300 300 300 302 307 307 309 308 307 307 306 307 309 307 304
309 310 312 328 338 341 340 338 336 334 334 336 333 332 331 331 330 330 330 330 328 324 318 308 305 302 303 302 297 298 300 300 301 306 306 304 304 304 303 305 304 303 302
308 308 308 310 324 338 336 335 334 331 332 332 333 332 329 329 329 329 328 328 326 323 318 311 304 301 299 300 299 299 299 299 299 300 304 303 301 301 300 301 299 298 298
305 307 307 307 310 322 335 337 336 334 333 333 333 332 331 328 327 328 328 326 324 321 315 308 304 300 300 299 300 299 297 297 298 297 298 300 300 299 298 297 297 296 297
301 303 305 307 308 312 325 335 335 333 329 332 330 330 331 328 327 326 326 325 322 320 314 309 305 304 299 297 298 302 295 298 295 295 295 297 297 297 298 296 295 295 295
302 302 302 304 306 308 316 329 332 328 326 329 330 331 330 330 326 325 325 323 321 319 316 310 305 305 304 298 294 293 295 298 297 293 293 294 294 294 295 294 294 293 293
305 305 304 302 302 305 308 321 330 329 329 331 331 330 330 328 327 325 324 322 319 318 318 313 306 304 305 303 299 292 292 291 290 295 293 291 291 292 293 293 293 293 292
305 306 306 306 306 304 305 308 322 329 329 328 328 327 328 326 324 324 323 321 320 317 315 311 310 308 306 305 302 297 295 293 290 292 289 290 291 291 291 291 291 292 291

GFSSE_sfc_thetae_051.txt.gz
Theta_e
347 352 361 359 359 358 358 357 357 357 356 354 353 351 351 350 348 347 345 344 345 346 348 347 345 345 343 342 342 341 341 340 340 340 340 342 339 338 337 337 338 335 338
350 350 360 359 359 359 359 358 357 355 353 351 350 349 347 347 345 343 344 343 342 345 347 346 346 343 341 341 339 338 337 337 335 334 338 339 342 341 341 336 339 338 338
348 352 354 358 360 360 359 357 354 353 351 349 347 344 343 343 342 343 345 344 342 346 348 346 344 340 340 340 340 339 337 337 336 334 337 330 331 337 340 338 337 335 335
349 352 351 358 359 360 357 355 353 352 350 347 345 342 339 339 342 348 348 346 345 348 347 343 339 338 340 340 340 339 337 336 334 336 335 335 333 335 334 337 339 338 336
349 350 354 358 359 359 357 356 353 351 350 347 344 341 338 340 345 348 349 348 347 345 342 339 338 339 340 340 340 340 337 334 335 336 337 340 341 342 342 340 340 340 336
348 351 354 357 358 358 356 355 353 351 350 347 345 341 337 341 344 346 345 344 344 343 341 339 339 340 340 341 340 339 337 334 336 335 336 341 341 344 345 344 343 345 342
346 352 352 356 356 356 355 354 353 351 348 347 345 341 337 340 341 344 341 341 341 340 339 339 339 340 340 341 338 336 335 335 335 334 336 337 341 343 343 341 341 341 341
345 348 349 351 353 352 353 353 353 351 349 347 346 340 337 339 339 340 340 339 339 338 338 339 339 340 340 338 336 335 334 336 333 333 338 337 342 341 340 338 337 336 336
347 345 346 346 346 348 349 350 352 352 350 347 345 341 340 341 341 339 338 338 338 338 339 340 341 340 336 334 334 335 332 334 333 333 335 335 340 340 337 335 334 333 333
346 344 344 345 346 346 347 347 348 349 348 347 343 342 339 338 339 339 339 339 339 340 341 341 340 335 333 333 334 332 331 332 333 333 334 335 339 339 336 334 331 331 331
344 344 344 343 345 344 344 344 344 345 345 343 341 338 335 334 335 335 336 339 342 342 342 341 335 333 335 334 332 330 330 330 330 330 333 338 338 337 334 331 329 329 328
341 343 343 343 342 342 339 342 339 339 345 342 340 337 334 334 333 332 334 338 339 341 342 339 333 331 332 328 327 325 326 326 327 329 332 338 335 333 331 330 329 328 325
339 342 343 344 343 341 338 338 336 337 343 344 340 337 334 335 335 333 334 334 336 335 337 337 331 325 324 324 325 324 324 324 323 327 331 336 333 330 328 327 326 324 322
339 339 341 344 343 341 339 338 337 340 341 339 339 336 335 336 337 334 332 331 334 335 335 337 335 329 325 323 322 322 322 321 321 324 329 331 332 329 326 325 323 321 320
338 341 340 342 344 343 340 339 338 338 340 340 339 336 335 336 335 337 335 334 332 335 335 336 334 329 325 322 320 320 318 318 319 323 328 327 331 328 325 323 321 320 319
338 340 342 340 342 345 342 341 341 340 340 341 340 339 335 335 335 336 336 336 334 333 334 333 332 329 323 320 318 317 318 317 317 320 324 325 328 327 323 322 320 318 318
336 340 342 342 344 344 344 343 342 343 342 341 341 340 338 336 335 335 335 336 336 335 333 332 331 328 323 319 316 315 316 316 316 317 320 323 322 323 324 321 318 317 317
323 324 332 340 343 343 343 343 342 344 343 342 342 341 340 338 336 335 334 334 336 336 335 332 330 326 321 318 315 315 314 315 314 314 317 318 320 318 319 319 316 315 315
320 321 322 325 332 340 342 343 342 341 343 344 343 342 341 339 338 336 334 335 334 336 332 332 329 324 321 318 316 315 313 314 313 312 314 316 317 316 315 318 317 316 313
318 319 320 320 321 327 335 339 343 340 340 342 344 343 342 341 340 337 336 335 334 334 333 332 329 326 323 319 314 312 312 311 313 312 312 312 313 313 313 310 309 309 310
314 315 317 318 319 320 326 330 339 337 336 336 342 344 342 341 340 339 337 335 335 333 333 332 329 325 321 320 314 310 311 310 308 309 311 311 311 311 311 309 307 306 305
310 311 313 315 317 319 320 324 332 338 336 337 337 339 342 342 341 339 338 336 334 332 332 331 329 324 320 318 311 311 307 306 306 307 307 308 309 308 307 307 306 306 304
312 313 311 311 313 316 318 320 323 333 337 337 337 337 336 338 341 340 338 337 335 333 331 331 330 324 317 315 314 313 309 307 304 305 304 305 306 306 305 305 304 304 303
313 316 315 314 313 312 314 314 316 319 325 332 334 335 336 337 335 336 335 336 335 334 332 331 331 327 320 314 311 312 316 309 305 298 303 302 304 304 304 304 302 302 301
314 315 316 316 315 315 314 313 314 314 318 324 329 331 331 334 336 334 333 333 333 332 331 331 330 328 321 319 310 311 309 306 304 304 297 297 300 301 303 302 301 300 299
314 314 315 313 314 315 315 315 313 313 314 317 323 327 328 331 334 335 331 330 330 329 329 329 330 327 322 321 317 314 308 306 302 301 301 299 296 297 299 301 300 298 298

GFSSE_sfc_thetae_054.txt.gz
Theta_e
344 353 360 362 361 361 360 358 358 357 357 355 354 353 352 350 348 347 346 346 347 348 349 347 347 345 345 344 343 342 340 340 340 341 342 342 340 337 338 341 342 336 341
346 352 359 361 360 360 360 359 358 356 355 353 352 350 349 347 345 344 346 344 345 348 347 347 344 343 343 341 340 339 338 336 335 339 341 341 342 342 338 339 342 337 340
345 350 355 359 359 360 359 356 355 354 351 349 348 347 345 344 342 345 344 345 345 349 348 345 342 342 341 341 339 338 338 336 335 336 340 329 332 339 341 341 338 336 338
347 348 349 358 360 360 358 355 354 352 349 346 344 343 341 341 347 348 346 345 348 349 346 341 340 341 340 341 339 338 337 335 336 339 334 335 333 338 338 339 339 338 339
347 348 353 359 360 359 357 355 354 352 348 346 343 341 340 344 349 349 349 349 348 345 341 340 340 340 340 341 340 337 334 334 338 337 336 337 339 343 344 345 345 340 340
345 349 355 358 359 358 356 355 354 352 349 345 343 340 340 346 348 347 346 345 346 345 341 340 340 340 341 341 340 338 336 337 339 332 337 341 338 345 345 344 344 344 344
347 349 353 357 358 357 355 354 354 353 349 346 343 339 339 344 346 344 343 343 342 341 340 340 340 341 341 340 338 337 335 337 331 334 336 337 338 342 341 342 341 340 341
347 348 350 352 355 355 353 352 353 352 350 348 343 339 339 342 344 342 341 341 340 339 339 339 340 341 341 338 336 335 336 336 332 332 334 336 342 340 339 338 337 336 337
344 345 344 344 347 349 350 351 351 352 349 347 345 342 342 342 342 340 340 340 339 339 340 341 341 340 337 335 335 334 335 334 327 330 334 332 342 339 337 335 334 334 333
339 342 341 340 342 344 346 347 348 348 346 346 343 341 338 337 339 340 340 340 341 341 342 342 340 336 334 334 334 333 333 332 325 328 331 336 340 338 336 333 332 332 331
339 337 339 340 340 342 342 343 346 346 344 342 339 337 334 330 332 334 335 338 341 343 344 341 336 334 336 335 334 333 331 324 323 326 331 340 338 336 334 331 330 330 328
335 336 337 339 340 340 341 340 339 341 341 339 335 331 329 328 329 331 333 337 340 342 342 340 336 335 332 325 323 327 321 320 320 326 332 339 336 334 332 331 330 327 325
335 337 337 336 336 335 333 336 333 334 338 339 336 332 330 328 327 330 330 331 331 332 335 333 328 322 319 320 320 318 318 317 316 324 334 337 334 332 330 329 327 324 323
335 336 338 339 336 334 332 331 330 332 337 339 339 333 329 328 327 325 328 327 329 330 330 331 327 322 319 316 315 315 316 315 313 322 329 334 334 330 328 327 325 323 322
334 336 338 338 338 336 332 331 330 330 338 336 333 331 330 329 329 329 327 326 328 329 328 331 329 326 318 316 315 314 313 312 311 319 321 329 332 329 327 325 323 322 321
333 336 338 340 338 339 335 333 331 332 333 335 333 332 329 329 329 330 329 327 325 326 328 330 330 323 318 315 312 312 311 310 310 316 320 324 329 329 326 324 323 322 321
333 335 338 338 338 337 338 336 335 336 336 334 335 334 333 329 329 329 329 328 328 327 326 326 325 323 317 314 310 309 309 309 309 310 319 319 323 325 326 324 322 321 321
316 317 333 340 339 339 339 339 337 337 338 336 336 336 334 332 330 328 328 328 329 329 326 325 323 321 316 311 309 307 307 309 308 308 312 317 316 316 322 325 321 319 319
313 315 316 318 328 338 339 337 337 337 337 339 339 336 335 334 332 330 327 327 328 327 327 326 323 320 314 311 309 308 306 307 307 308 308 310 313 312 311 320 320 320 319
310 311 312 315 316 317 325 335 338 333 336 337 338 338 336 335 333 331 329 327 327 326 326 325 322 320 315 313 311 309 305 305 306 305 305 309 308 309 309 308 307 308 317
307 307 308 310 313 313 314 319 334 334 335 335 338 337 338 335 334 331 331 329 328 327 327 327 323 319 315 313 307 304 303 303 302 304 305 305 306 307 305 304 303 302 305
305 305 305 306 309 312 313 314 319 334 335 335 334 336 335 337 336 333 331 331 329 327 325 326 325 321 315 314 305 301 298 300 301 302 302 304 304 305 305 303 302 301 300
308 309 309 309 308 308 309 311 312 314 330 329 329 330 334 335 334 336 335 332 327 327 325 325 326 321 317 312 309 305 302 300 298 300 300 301 302 301 302 302 301 301 299
308 311 312 312 310 308 307 307 307 308 309 321 329 333 333 333 333 333 332 332 334 332 329 327 325 323 317 312 309 310 309 305 299 294 297 298 300 301 301 300 300 300 299
309 309 310 310 310 310 310 308 306 306 308 310 313 320 326 328 331 331 331 331 330 332 330 329 326 326 323 317 312 307 308 302 298 297 292 295 297 299 299 301 300 299 298
308 308 308 309 309 309 310 310 308 306 305 306 307 311 318 322 324 328 328 329 329 329 329 328 329 325 325 321 315 311 308 308 302 297 298 296 296 297 299 299 298 297 295

GFSSE_sfc_thetae_057.txt.gz
Theta_e
343 354 362 362 360 360 359 358 358 358 357 355 354 353 351 349 348 347 347 348 349 349 348 347 346 346 346 344 342 341 340 340 340 342 342 343 339 341 343 340 340 337 341
350 356 361 361 361 361 360 358 358 357 356 354 353 351 349 346 345 346 344 346 348 348 347 345 344 344 343 341 340 338 337 337 339 340 342 341 343 340 339 340 340 338 341
350 356 357 360 360 360 359 357 356 355 353 351 350 348 346 342 344 344 345 346 349 349 345 343 343 342 342 340 339 338 338 337 336 339 340 329 333 341 342 339 339 338 339
350 353 354 358 360 360 358 356 354 352 348 346 345 344 342 346 347 346 346 348 350 346 343 342 341 341 341 339 338 338 338 337 337 339 334 329 334 340 341 341 340 342 339
345 348 354 358 359 359 357 356 354 350 346 344 343 341 343 349 349 348 349 350 347 343 341 340 340 340 340 340 337 336 336 338 340 338 336 336 337 344 346 346 341 342 343
345 349 355 358 359 357 356 356 354 349 346 344 341 341 346 349 349 349 348 347 346 344 341 340 340 341 341 340 338 337 337 338 336 337 336 340 338 345 344 345 344 344 344
346 350 354 358 358 357 355 354 353 352 347 344 341 340 346 347 347 347 345 344 343 342 340 340 341 341 341 339 337 336 337 337 330 336 335 335 337 342 341 340 339 339 340
347 350 353 355 356 354 353 352 352 351 350 345 341 339 344 346 344 344 343 342 341 341 340 340 341 342 340 338 336 335 336 335 329 332 334 333 341 339 338 337 337 337 337
346 347 348 350 351 350 350 349 350 351 349 347 344 342 344 344 343 342 341 341 340 340 340 341 341 340 337 336 335 334 336 334 325 331 333 333 341 337 337 335 335 334 333
343 343 340 341 343 344 346 347 347 347 346 345 343 341 339 339 340 341 341 342 341 341 341 342 341 337 335 335 333 335 334 332 324 329 332 335 340 338 335 334 333 331 330
339 339 339 338 339 341 343 344 345 344 343 341 339 336 334 331 333 335 335 338 342 343 343 342 338 336 337 335 334 333 331 322 321 329 332 340 338 336 334 332 331 329 328
332 335 337 337 339 340 343 340 340 342 338 334 333 331 328 327 329 332 331 336 341 342 343 341 337 337 333 325 323 329 321 318 322 328 332 339 337 335 333 331 330 327 326
329 335 335 337 338 338 340 338 336 337 337 334 331 330 327 327 326 328 329 332 331 333 336 335 331 326 323 321 319 318 317 315 320 328 334 338 335 334 333 331 328 325 324
332 332 336 337 333 333 338 334 332 333 336 336 333 330 327 323 324 328 328 327 327 329 329 327 324 321 316 316 318 315 315 314 315 324 330 334 335 332 331 330 327 325 323
332 334 335 336 336 331 331 331 328 332 335 338 336 333 329 325 324 326 326 325 326 327 328 328 326 323 318 315 313 312 312 312 311 322 325 330 333 331 329 328 326 325 324
332 333 335 336 336 336 330 328 327 328 334 336 334 332 330 327 328 326 324 324 325 326 327 329 328 326 320 315 313 311 310 309 308 320 320 326 331 331 328 327 326 325 324
332 335 335 336 337 335 335 332 330 329 332 332 331 331 329 327 327 328 326 324 324 324 327 325 327 324 317 315 311 309 308 308 307 318 319 321 325 327 329 326 326 324 324
320 332 336 339 337 335 335 336 333 335 335 333 333 332 331 330 327 326 326 326 327 325 324 322 322 320 315 312 308 307 306 307 307 309 317 318 318 319 325 327 326 323 324
309 312 326 336 335 334 335 336 335 335 335 336 338 336 333 332 329 327 326 326 326 326 324 323 321 320 314 310 308 307 305 305 306 307 310 315 315 315 314 323 325 323 324
305 306 307 312 320 334 337 335 334 334 334 335 336 336 335 332 331 328 327 326 326 324 324 323 321 318 315 312 310 308 305 304 305 305 304 312 315 313 311 312 314 314 321
303 303 303 305 307 310 311 320 330 332 331 330 334 337 336 335 332 329 329 327 325 325 325 324 322 319 314 311 307 304 302 302 302 304 304 304 308 311 310 310 309 306 311
306 307 307 306 306 306 309 309 317 330 332 334 334 332 334 333 332 331 328 327 325 324 322 323 323 318 318 313 307 301 298 299 301 301 302 304 304 306 308 308 306 303 303
307 308 309 308 308 307 306 307 308 309 319 327 327 328 331 332 332 333 331 329 328 324 324 322 323 321 319 314 310 305 298 297 297 299 301 302 303 303 305 305 304 303 301
307 308 309 309 309 309 307 305 303 304 304 311 319 328 329 330 331 331 331 330 327 327 326 325 323 321 316 314 311 310 308 304 298 296 297 299 301 302 303 302 302 301 301
308 308 308 308 308 308 307 307 304 303 303 305 306 307 313 326 330 330 330 327 326 325 326 325 325 324 323 322 314 310 308 306 303 298 295 297 299 301 303 304 301 300 298
305 306 306 306 307 307 306 306 306 305 304 304 304 304 306 311 318 324 327 328 327 325 327 327 326 324 324 323 320 316 311 309 308 299 297 297 299 302 302 301 300 299 298

GFSSE_sfc_thetae_060.txt.gz
Theta_e
345 355 361 361 359 358 358 358 358 357 356 354 354 351 350 348 347 348 348 349 349 348 348 347 347 347 345 343 341 341 341 340 340 342 341 341 342 342 341 341 341 336 340
350 356 360 360 360 360 359 358 358 357 356 355 353 351 347 346 345 345 347 348 348 346 345 344 344 343 342 340 339 339 339 340 340 341 341 341 341 340 339 340 341 338 340
352 356 357 360 360 360 358 357 356 355 354 354 351 348 344 342 344 344 346 349 349 345 344 342 342 342 340 339 339 339 338 338 339 338 336 330 335 341 338 338 339 338 338
353 355 356 359 360 359 358 356 354 351 349 348 347 344 343 347 345 346 347 350 347 344 342 341 340 340 339 338 339 340 339 337 336 337 330 329 334 341 341 339 342 340 338
351 352 355 359 359 358 356 355 352 348 345 344 343 342 347 348 347 346 349 349 344 342 341 339 339 339 338 337 338 338 339 339 341 338 332 335 337 344 345 342 342 343 343
343 348 353 358 358 357 356 354 351 347 344 342 342 345 350 350 348 351 349 346 345 343 340 340 340 340 339 338 338 338 338 340 339 335 336 340 340 345 344 344 345 344 344
345 350 352 357 357 356 356 353 351 347 345 342 341 347 349 348 349 348 345 344 342 341 340 340 341 341 339 338 337 338 337 337 332 333 333 333 338 342 340 338 340 341 341
346 350 353 354 355 355 354 353 351 349 346 342 341 346 347 347 346 345 344 343 342 341 340 341 341 341 339 337 336 336 336 334 332 332 332 332 340 338 338 337 336 336 336
348 349 351 351 351 349 350 350 350 350 347 345 343 346 347 345 345 344 342 342 341 341 340 341 341 340 338 336 334 335 335 333 329 331 333 332 340 337 335 335 334 333 333
345 346 344 345 346 344 345 346 347 348 346 344 342 342 340 341 341 343 342 342 342 341 341 341 341 339 336 335 334 335 332 331 326 329 331 332 339 337 335 334 332 331 330
340 341 341 340 341 341 342 342 344 344 343 341 339 337 335 332 335 336 336 338 341 342 342 341 340 337 337 335 334 333 329 321 324 329 331 340 339 336 334 332 330 329 328
333 335 338 338 338 338 343 340 339 339 336 334 332 330 329 328 329 333 331 336 341 342 342 342 339 337 334 324 323 329 320 317 322 328 331 340 337 336 333 331 329 327 326
330 333 335 335 337 337 338 337 337 337 334 331 330 328 326 327 325 327 326 330 331 333 335 337 332 328 322 320 318 318 318 314 323 327 333 339 337 336 333 331 328 326 325
331 332 333 334 334 335 337 336 336 336 334 330 329 328 325 322 323 324 325 327 327 329 329 329 325 322 318 319 317 316 314 312 320 325 329 335 337 334 333 331 328 325 325
330 333 334 334 332 332 334 334 331 333 335 335 331 330 327 323 322 325 325 326 325 326 328 326 324 323 318 314 314 315 312 311 313 323 325 330 334 334 332 330 328 326 325
331 332 334 335 335 330 329 330 329 329 331 335 335 333 330 326 324 325 325 325 325 326 327 327 327 325 322 316 313 311 310 310 308 320 323 325 332 333 332 330 328 327 326
332 333 332 334 336 334 331 327 325 327 331 332 335 335 333 326 325 325 324 324 324 324 325 326 326 325 323 320 313 312 310 308 307 317 320 322 326 329 331 330 328 327 326
330 332 334 337 335 334 334 334 330 329 328 331 332 332 332 331 326 326 325 324 324 322 324 323 325 323 321 318 315 310 308 307 306 310 317 320 320 322 327 330 328 327 326
313 319 332 334 335 335 334 334 334 332 332 334 332 331 330 329 327 327 327 327 325 324 322 322 320 320 318 314 311 308 306 305 306 306 314 316 317 319 317 324 327 327 327
303 304 307 313 323 333 333 332 332 332 332 333 334 335 333 330 329 326 325 325 325 324 323 320 320 318 317 317 314 310 306 304 304 304 304 316 316 316 314 314 319 319 324
304 303 302 304 304 307 315 324 328 328 330 329 331 335 334 334 331 328 326 325 324 323 324 323 321 318 318 312 311 306 303 303 302 303 303 305 313 314 312 312 313 311 315
305 306 306 305 305 304 306 307 313 326 329 331 331 331 332 331 332 331 327 326 324 323 322 321 320 317 317 313 310 304 305 304 301 303 302 303 304 312 312 311 310 308 307
306 306 308 308 307 306 305 305 306 307 313 325 326 327 329 330 330 329 330 328 325 323 323 320 320 318 320 312 310 312 299 300 298 299 300 302 303 303 308 311 309 308 304
305 306 307 307 307 308 307 305 302 302 303 307 312 319 318 326 327 329 328 328 328 325 323 323 322 320 318 319 311 313 308 304 299 299 297 297 299 301 302 304 307 307 306
306 304 304 306 306 306 305 306 304 303 302 303 304 304 305 309 316 324 327 326 324 326 325 324 322 319 320 321 315 310 312 309 306 302 304 299 302 303 306 305 304 304 304
303 304 304 304 304 305 305 305 304 304 304 303 304 305 305 306 311 312 316 322 324 323 322 322 322 321 321 321 322 319 316 310 310 306 301 301 299 303 305 305 304 302 303

GFSSE_sfc_thetae_063.txt.gz
Theta_e
343 353 360 359 359 358 358 357 356 356 355 353 352 349 349 348 349 348 349 349 349 348 347 347 347 346 344 342 342 342 340 341 341 340 341 343 343 341 343 341 341 337 339
349 355 359 359 358 358 358 358 357 356 356 354 351 349 348 346 346 347 348 347 345 344 344 344 344 343 341 340 341 341 340 339 341 341 340 340 341 339 341 341 341 336 339
351 355 356 359 359 359 358 357 356 356 355 353 350 347 344 345 344 346 348 348 345 344 342 341 342 341 340 340 340 339 339 339 337 337 337 332 334 337 337 338 338 337 336
352 354 354 359 359 358 356 355 354 351 349 349 347 343 344 344 345 345 349 348 345 343 340 340 340 339 339 341 341 340 338 337 335 337 327 331 335 341 338 339 340 337 337
351 353 355 358 358 357 356 353 350 348 346 346 344 343 347 345 346 346 350 346 344 341 339 339 339 338 338 339 339 339 338 339 340 336 329 335 337 343 341 342 342 343 344
347 350 355 357 358 356 355 352 348 346 344 343 342 346 350 347 346 350 349 345 344 341 339 339 339 338 338 339 339 339 342 342 338 334 335 339 339 344 344 344 344 344 345
344 347 353 357 357 356 354 351 349 345 343 342 343 348 351 349 350 350 345 343 342 340 339 340 340 339 338 338 338 338 339 339 333 332 331 333 337 341 338 337 337 342 342
346 348 351 353 355 355 353 352 350 346 343 341 345 348 347 347 348 346 343 342 341 340 340 340 340 338 337 336 336 337 337 337 333 330 330 331 339 337 336 336 335 335 336
347 347 348 349 351 351 352 350 349 348 346 343 346 348 348 346 345 344 343 342 341 340 339 340 340 338 337 335 334 335 335 335 329 330 331 330 339 336 335 334 333 332 332
345 347 345 346 347 346 347 347 347 346 345 343 343 344 343 341 342 343 342 342 342 340 340 340 340 338 336 335 334 335 332 334 327 328 330 330 338 335 334 332 331 330 329
341 341 342 342 341 340 340 342 345 344 343 341 339 338 336 334 335 336 336 338 341 342 341 340 340 338 337 334 334 334 327 322 323 327 329 337 338 336 334 331 329 328 327
334 337 339 339 339 338 342 338 338 339 336 334 332 331 329 329 330 333 331 336 340 341 341 341 341 338 334 323 321 325 319 316 320 326 329 340 338 336 333 331 329 327 326
334 334 336 335 336 337 338 336 335 334 332 330 329 328 326 327 326 327 326 329 330 333 333 336 333 328 323 319 318 317 318 314 319 325 331 339 338 337 334 332 329 326 325
330 332 333 334 334 334 335 335 335 334 331 329 328 327 324 322 322 323 323 325 326 328 328 329 326 324 321 319 317 316 314 312 317 324 328 335 339 336 335 333 330 326 325
330 331 331 332 333 334 333 333 333 333 333 331 328 328 325 322 320 322 323 324 325 325 326 326 325 323 320 316 315 315 316 313 312 321 324 329 335 337 334 334 331 328 326
330 332 333 333 332 332 333 332 332 331 333 333 331 329 327 324 322 322 323 324 324 324 325 326 325 323 322 319 315 313 313 313 311 317 322 324 332 335 335 333 331 329 327
329 332 333 334 334 330 332 332 329 330 331 332 333 332 330 327 323 323 323 323 324 323 324 324 324 324 322 321 317 314 311 310 308 309 319 321 324 330 333 332 331 330 328
329 331 331 336 334 331 330 329 328 327 327 329 332 333 332 330 326 323 323 323 324 322 322 322 323 322 322 321 319 316 311 308 307 306 315 319 321 323 328 333 333 330 329
325 328 331 332 333 333 332 332 330 327 326 327 328 330 331 332 329 326 324 324 323 322 321 322 320 321 319 320 318 318 313 308 307 307 309 315 318 321 319 325 329 329 330
303 306 315 323 326 332 332 331 331 331 330 331 331 329 329 329 328 326 326 325 324 323 320 318 320 317 320 320 319 317 311 309 304 304 304 313 316 318 317 316 318 321 326
302 302 302 304 304 310 324 326 326 327 329 328 330 333 333 332 329 326 325 324 324 323 323 322 319 317 316 312 310 308 306 304 304 304 304 306 312 317 317 316 315 316 318
304 304 305 305 305 303 305 307 316 324 327 328 328 329 331 331 332 330 327 326 324 322 321 321 319 317 316 312 311 304 311 311 302 305 303 304 304 311 314 316 314 313 313
305 305 306 305 305 304 304 303 304 305 309 318 322 324 327 328 329 329 329 328 326 322 322 321 319 318 319 312 312 317 306 304 301 302 300 302 303 301 308 311 312 312 311
304 305 306 305 305 306 305 304 301 301 301 304 307 310 308 310 316 322 325 325 325 324 321 321 320 319 317 317 309 312 312 308 306 306 300 298 302 300 302 305 310 311 310
304 303 303 304 304 305 304 304 303 302 302 303 304 304 305 306 312 313 315 321 322 323 323 322 320 317 318 317 313 313 312 312 306 303 307 308 301 301 303 304 305 308 309
302 302 302 303 302 303 303 303 304 303 303 304 304 305 305 306 308 309 311 311 315 322 322 320 320 318 317 317 317 317 315 312 308 307 304 306 304 305 303 305 305 303 304

GFSSE_sfc_thetae_066.txt.gz
Theta_e
339 350 360 359 359 358 357 356 356 355 354 352 351 350 349 349 348 349 349 349 348 348 349 348 346 346 344 344 343 342 342 342 341 342 342 344 341 344 344 343 341 336 339
345 353 359 359 359 358 357 356 356 356 355 353 350 348 347 347 347 349 347 346 345 344 344 345 344 342 342 343 342 341 341 341 340 339 339 339 341 341 342 341 339 336 339
350 354 355 359 359 359 358 356 356 355 355 352 349 347 346 345 346 348 347 346 345 342 341 342 342 341 341 341 341 341 339 338 339 339 338 332 332 338 338 338 338 337 337
351 353 353 358 359 358 357 355 355 352 350 349 346 343 343 344 345 349 349 346 344 341 340 341 340 340 342 342 341 340 339 337 336 334 329 333 336 339 339 342 340 340 339
350 352 354 358 358 357 355 354 351 350 348 346 344 345 345 345 345 350 348 345 342 339 339 339 339 339 341 340 340 340 339 340 339 333 332 335 336 341 343 343 344 345 346
349 349 355 357 358 356 354 352 348 347 345 344 342 347 346 346 346 350 347 344 341 339 338 339 338 338 339 339 339 342 343 341 335 332 334 339 337 344 343 342 342 345 345
347 350 353 357 357 355 353 351 348 345 344 343 346 350 348 347 348 349 345 343 341 339 339 339 339 339 339 339 339 340 341 339 332 331 331 332 335 339 338 337 337 339 342
345 348 352 354 355 353 351 350 348 344 342 343 347 349 350 350 350 347 343 342 340 339 339 339 339 339 338 338 338 338 339 337 331 329 329 330 339 338 337 336 335 334 336
345 345 347 351 351 351 350 349 348 346 344 345 347 349 347 347 347 345 342 341 340 339 338 339 339 339 338 337 336 335 335 336 327 329 331 329 340 336 335 334 333 333 332
343 344 342 345 347 347 346 347 346 345 344 343 345 345 342 341 343 344 342 343 342 340 339 339 339 338 337 336 334 333 332 334 325 327 328 329 337 334 334 332 331 330 329
343 344 341 341 341 342 343 343 344 343 341 340 340 339 337 334 335 335 336 338 342 342 340 339 339 338 336 333 332 332 326 323 323 326 327 333 337 335 333 331 329 327 326
337 339 340 339 338 337 341 339 338 339 336 333 332 331 331 330 330 333 332 335 340 341 341 340 341 339 332 322 320 325 319 317 319 324 327 335 338 336 334 331 329 326 325
334 335 338 337 337 337 337 335 334 334 332 330 329 328 327 327 326 327 325 327 329 331 332 334 332 327 323 319 317 316 318 316 314 322 329 335 339 337 335 332 330 327 325
331 333 334 335 335 334 335 334 333 332 330 328 328 327 324 322 322 322 322 323 325 326 327 327 327 325 322 320 316 315 315 314 312 320 325 333 339 338 336 334 332 328 326
329 331 332 332 333 333 332 333 332 332 331 329 327 327 324 321 320 320 321 321 323 324 325 324 325 324 321 319 316 315 314 313 311 317 322 327 334 338 336 335 334 330 327
329 330 332 332 332 332 332 331 332 332 332 330 328 328 326 323 321 320 321 322 322 323 323 324 324 323 322 320 319 316 312 311 311 310 318 322 331 335 337 335 334 333 330
328 331 332 332 332 330 331 331 331 331 332 332 331 329 328 326 323 321 321 322 323 323 323 322 323 323 321 321 320 320 316 312 310 309 311 319 323 330 334 335 334 333 331
328 329 331 335 333 330 330 331 331 329 329 330 331 330 330 328 326 322 321 321 323 322 322 321 321 320 321 320 320 320 318 313 310 308 308 315 319 323 328 333 335 334 332
325 328 329 331 332 332 329 328 328 328 326 327 328 329 330 331 328 325 323 323 322 321 320 320 319 320 318 318 319 320 318 315 313 311 306 309 315 320 321 325 330 331 332
303 312 320 329 330 331 331 330 329 328 326 326 326 327 328 329 329 325 325 323 322 320 319 318 319 318 319 319 319 319 315 314 312 308 310 307 312 316 319 319 320 324 327
302 302 303 307 304 317 326 326 325 326 327 328 328 330 330 328 327 325 325 326 325 322 323 321 318 316 315 314 311 311 309 309 307 308 306 305 307 313 315 317 317 316 318
303 303 304 304 304 303 307 310 320 323 325 326 327 328 328 329 330 329 325 324 323 322 321 320 319 316 315 312 315 309 313 312 305 305 304 304 304 305 312 314 314 313 313
304 304 305 304 305 305 303 303 303 304 307 313 318 321 320 320 325 327 327 327 326 323 322 320 318 317 317 312 312 316 310 307 305 308 305 304 302 301 303 309 311 313 311
303 304 305 305 305 305 305 303 301 300 300 302 304 305 305 307 310 314 317 321 323 323 322 321 320 318 316 317 309 312 310 310 308 308 306 304 302 301 302 304 310 312 313
302 302 303 303 304 304 304 304 303 302 301 302 303 305 306 307 309 310 311 311 318 321 323 322 319 317 315 316 312 309 310 310 308 307 308 309 304 303 301 304 303 308 308
301 301 301 301 301 302 303 304 303 303 303 303 304 304 305 306 306 306 307 307 309 311 318 322 323 320 316 316 316 317 315 312 309 306 304 305 306 308 302 303 303 305 302

GFSSE_sfc_thetae_069.txt.gz
Theta_e
344 354 359 361 359 358 357 356 354 355 354 352 351 350 350 349 350 349 350 349 348 349 348 348 347 347 346 345 344 343 342 342 342 343 342 343 345 345 344 342 340 338 340
349 356 359 360 360 359 358 357 356 356 354 353 349 349 348 348 350 347 347 346 345 345 347 345 345 345 345 344 343 343 341 340 340 340 339 339 342 343 341 340 339 336 339
351 355 356 359 359 359 358 356 355 356 354 351 349 347 346 347 349 348 347 346 343 343 344 344 343 344 343 343 342 341 340 340 340 339 338 339 337 340 340 339 338 338 337
352 354 354 358 359 359 357 355 355 355 351 349 346 345 345 346 348 349 347 345 341 341 342 342 342 343 343 342 342 341 339 338 337 337 341 341 340 341 344 344 344 343 339
352 353 354 358 359 358 357 355 352 350 349 346 344 345 345 345 349 350 347 344 340 340 341 340 341 342 341 341 341 341 342 339 338 342 344 344 345 344 345 345 345 347 344
351 353 355 357 358 357 355 353 350 349 347 345 347 347 345 345 349 350 346 342 340 340 340 339 340 340 341 341 343 344 342 339 339 343 343 344 343 342 341 340 341 345 343
350 353 355 356 356 354 353 351 349 346 344 345 348 348 347 346 349 348 344 342 340 340 340 339 340 340 340 340 341 342 342 339 341 341 340 339 340 339 340 338 337 337 341
349 353 353 353 354 353 352 350 348 345 344 347 351 350 349 349 350 346 343 342 341 340 341 340 339 339 339 339 338 340 340 337 337 338 338 339 340 338 338 336 335 335 334
351 352 353 353 351 349 349 349 347 346 345 347 349 350 350 349 347 345 342 342 341 340 340 341 340 339 338 337 336 335 337 335 338 338 336 337 339 337 336 334 333 332 333
349 349 351 352 350 348 347 346 345 344 343 345 346 344 341 341 343 345 342 343 341 339 339 340 340 339 337 336 334 333 334 334 337 337 338 337 338 335 334 332 331 330 329
345 348 348 349 349 348 347 344 343 342 340 341 342 339 339 343 343 341 337 339 342 341 339 339 339 338 335 332 332 332 329 336 336 336 337 335 338 335 333 331 329 328 327
338 342 346 347 346 347 345 345 344 342 339 337 340 343 342 341 341 340 335 336 340 341 341 339 340 338 333 332 330 328 331 329 331 335 336 334 339 337 335 332 329 327 325
338 340 344 345 345 344 344 344 343 342 340 338 336 338 338 338 338 338 338 337 339 334 340 340 340 340 334 331 328 327 328 328 327 327 332 334 338 339 337 334 331 328 326
336 340 343 344 344 343 342 343 342 341 339 337 336 335 334 334 334 334 334 334 334 337 337 338 337 337 334 331 328 325 324 325 326 324 328 331 336 340 338 336 334 331 328
337 339 341 342 342 342 341 341 341 340 339 338 336 334 333 332 330 331 331 331 331 334 335 335 335 334 334 332 330 326 324 324 323 322 326 327 332 338 339 337 336 334 331
337 337 339 339 341 341 340 340 340 340 340 338 336 335 334 332 331 328 327 328 329 331 332 332 332 332 332 332 331 330 328 325 322 321 322 326 329 333 337 338 336 335 334
335 337 337 338 339 338 339 340 340 340 339 339 338 337 335 334 332 330 329 328 330 331 330 331 331 331 331 331 330 331 330 329 327 324 321 321 324 326 332 337 337 335 335
334 335 337 337 337 337 337 338 338 338 339 339 339 339 338 336 334 332 330 330 330 330 330 330 330 329 329 329 329 329 329 330 329 327 323 320 321 323 327 332 336 336 335
332 333 334 337 337 337 337 336 337 337 337 337 337 338 338 337 335 333 332 332 331 330 329 328 328 328 327 328 327 328 328 328 328 327 326 324 322 321 324 326 329 332 334
316 325 332 334 336 337 337 335 334 334 334 335 335 335 336 335 336 335 334 333 331 330 329 328 327 327 327 327 325 324 327 327 327 326 325 325 322 321 322 323 325 327 328
306 310 319 328 326 332 333 333 333 333 334 335 334 334 333 333 333 333 333 333 331 328 330 329 328 325 325 325 322 324 323 324 323 323 324 322 320 318 319 320 322 324 325
306 307 308 310 309 314 324 327 331 332 332 333 334 334 334 335 335 334 332 331 330 329 328 328 327 326 325 323 324 319 318 321 320 319 318 317 317 315 315 317 319 320 322
307 308 308 309 308 309 308 309 309 310 313 318 322 325 312 314 320 327 330 332 332 329 328 329 327 325 324 323 322 322 314 313 313 318 316 315 314 313 312 313 316 318 319
307 308 308 308 308 309 309 308 307 307 307 307 309 310 311 314 315 316 317 319 324 327 328 327 326 324 323 322 318 318 320 317 313 311 316 314 313 312 312 312 312 315 317
306 307 307 307 307 308 309 309 308 307 307 307 309 310 311 312 312 312 313 314 316 320 322 322 325 323 322 323 320 319 318 317 315 311 309 312 313 316 316 314 312 311 313
305 305 306 305 305 307 308 308 308 308 308 309 309 309 310 311 310 308 309 311 313 314 316 319 321 323 322 321 322 320 318 316 314 311 308 309 310 313 314 314 312 310 308

GFSSE_sfc_thetae_072.txt.gz
Theta_e
348 355 359 360 358 357 357 356 354 354 353 352 351 350 350 351 350 351 349 349 350 349 349 350 349 347 346 345 343 342 341 343 343 341 342 345 345 344 341 340 343 339 341
348 355 358 360 360 359 358 356 355 355 354 351 350 349 348 350 348 347 346 345 346 347 346 347 347 346 345 344 343 342 341 341 340 339 340 341 343 341 340 340 340 338 340
348 353 357 359 359 359 358 355 355 354 353 350 349 348 348 350 348 348 346 343 343 345 345 345 345 345 344 343 342 341 341 340 339 338 339 340 341 343 344 342 341 340 338
350 354 355 359 359 359 356 355 354 352 350 348 347 346 347 350 349 348 346 342 342 343 343 344 344 344 343 343 342 340 340 340 339 340 342 341 341 345 346 347 347 344 340
351 352 356 359 359 358 356 355 355 351 348 346 344 345 345 349 351 348 344 341 341 342 341 343 343 342 342 342 342 343 340 339 338 344 344 344 344 343 343 343 346 344 341
350 351 355 357 358 357 356 354 351 349 347 345 347 345 346 348 351 347 343 340 340 340 340 341 341 342 342 343 344 343 341 339 343 343 343 341 341 341 341 339 339 343 344
348 351 354 357 357 355 354 352 349 347 346 347 348 346 347 348 350 346 343 341 341 340 340 340 341 341 341 342 343 343 342 340 340 339 339 339 339 340 340 338 337 337 338
348 350 352 353 354 353 352 350 348 345 345 349 350 348 348 351 348 345 343 341 341 341 340 340 340 340 340 339 341 341 339 338 337 337 337 338 339 339 338 336 335 335 336
350 348 352 352 351 349 349 348 347 346 348 348 352 351 350 349 347 345 342 342 340 341 341 340 339 339 338 337 336 337 337 335 338 337 335 337 338 337 336 334 333 332 332
348 347 351 351 350 348 346 345 344 344 345 347 346 344 343 342 343 345 343 343 341 340 340 340 339 338 337 335 334 332 334 336 339 339 339 337 338 336 335 333 331 330 329
346 347 349 347 348 348 346 343 342 341 342 343 342 339 339 344 344 342 338 340 341 339 339 339 339 337 333 333 331 330 329 338 338 338 338 334 337 336 334 332 330 328 327
343 346 348 348 348 347 345 345 345 341 337 336 340 342 342 343 343 343 338 337 338 339 339 339 339 337 333 335 332 329 333 334 335 336 336 334 337 339 336 333 330 328 326
342 343 347 348 348 347 346 346 345 344 343 341 340 340 338 337 339 339 340 340 341 336 341 339 339 337 335 335 333 330 330 331 332 332 333 333 337 340 338 337 333 330 327
339 340 347 348 347 347 347 346 345 344 343 342 341 340 340 337 336 334 334 335 335 335 338 339 336 335 334 334 333 330 328 328 329 330 330 330 334 338 340 338 336 333 330
341 343 347 348 348 347 347 346 346 344 343 343 343 341 340 339 336 335 333 332 332 333 335 336 335 333 332 332 332 332 331 330 329 328 328 328 330 335 339 339 337 337 335
341 343 346 346 346 347 346 346 345 345 344 344 343 343 341 340 338 336 335 330 331 332 335 336 336 335 335 334 333 333 333 333 332 331 329 328 329 331 335 338 338 337 336
342 344 344 344 345 345 346 347 346 345 344 344 344 343 342 341 340 337 336 335 332 335 334 335 335 335 335 335 335 335 335 335 335 334 333 330 329 326 329 333 337 338 336
341 342 343 342 343 344 345 345 344 344 344 344 344 345 344 342 341 339 337 337 338 336 336 335 335 334 334 334 334 335 335 335 335 335 335 333 331 329 329 329 333 336 337
339 340 339 341 341 342 343 343 344 344 343 344 344 344 344 343 342 340 338 338 339 338 337 336 335 335 334 334 334 334 334 335 335 334 334 334 334 331 331 329 329 331 335
332 338 339 340 341 343 343 343 342 342 343 344 343 343 343 343 342 340 339 339 339 337 337 337 336 337 335 334 331 330 333 334 334 333 333 333 333 332 330 330 330 329 327
315 323 333 337 340 341 341 340 340 339 341 341 342 342 341 340 339 338 338 339 339 337 337 337 336 334 333 334 330 330 332 332 331 331 331 331 330 328 327 326 327 327 327
313 315 319 327 336 337 339 340 341 341 341 342 343 341 341 340 340 340 340 339 339 337 337 336 335 332 332 334 328 326 321 322 326 327 328 327 327 326 323 323 324 324 324
313 314 315 317 318 320 326 327 326 326 326 329 334 336 323 322 325 329 332 333 334 334 332 333 333 329 326 330 328 326 320 315 320 324 324 324 323 323 321 320 320 321 321
313 315 315 315 314 314 314 315 317 320 318 317 317 317 317 318 319 319 320 322 325 329 329 330 332 330 328 325 325 324 326 323 317 315 321 323 321 322 323 323 320 319 319
313 314 314 314 314 314 315 315 315 314 314 314 315 315 316 317 316 316 317 319 320 322 324 324 324 324 326 325 324 323 323 322 320 315 311 316 322 321 321 321 320 319 317
313 313 313 312 312 314 315 314 314 314 313 314 315 315 316 317 316 313 313 315 316 317 319 320 320 322 322 323 325 323 322 318 318 315 311 313 314 316 317 319 316 313 312

GFSSE_sfc_thetae_078.txt.gz
Theta_e
347 352 360 359 356 356 355 354 354 353 353 350 352 349 352 349 349 350 351 352 353 352 350 349 348 346 344 343 343 341 339 341 344 344 343 344 345 345 345 344 340 336 341
348 352 358 359 358 357 356 355 354 354 353 351 350 348 348 347 346 346 348 348 351 351 349 347 347 345 345 344 344 343 342 341 340 342 343 344 345 348 347 344 342 335 339
348 350 355 358 358 357 356 353 354 353 352 351 351 349 348 347 344 344 345 346 347 348 347 346 346 344 343 344 343 343 342 341 341 342 342 340 340 348 348 345 345 344 342
349 348 351 358 358 358 355 353 353 350 349 349 350 351 350 347 343 343 343 345 346 345 344 345 345 344 343 343 342 343 343 343 344 345 338 337 337 343 346 346 346 347 347
347 348 353 358 358 357 355 354 351 349 349 348 349 351 350 347 343 342 343 343 344 344 343 344 344 345 345 344 342 342 343 345 345 340 334 334 333 338 341 342 341 343 345
345 351 355 357 357 356 356 354 350 348 345 347 348 349 351 347 343 341 342 342 343 344 343 343 343 345 344 343 342 343 344 344 341 331 332 337 333 338 337 336 337 340 341
348 351 354 357 357 356 355 353 351 348 347 347 347 348 352 347 343 341 341 341 342 342 342 342 342 343 343 343 343 342 341 340 332 330 332 332 334 338 336 335 334 334 336
348 349 352 353 354 353 353 352 351 349 349 348 350 350 351 347 344 342 342 341 341 341 342 341 341 340 341 342 341 340 340 338 333 329 332 332 340 338 337 334 333 332 332
346 347 349 349 349 349 349 348 348 349 350 350 350 350 350 347 345 343 341 342 342 341 340 340 340 339 338 337 336 336 337 336 330 330 333 332 340 338 336 334 333 332 331
345 346 346 345 344 341 341 344 346 347 348 350 348 347 344 342 343 344 343 342 342 341 341 340 339 338 336 335 333 335 333 333 328 330 332 334 338 337 336 334 333 331 330
343 345 344 344 342 341 338 339 343 344 344 344 343 341 339 337 339 338 338 340 341 341 340 340 338 336 336 334 334 333 331 326 327 329 330 339 338 337 335 333 332 331 329
340 343 345 343 340 340 339 333 332 340 338 338 339 337 337 336 336 338 335 338 340 340 340 340 340 339 335 328 326 330 323 324 324 325 330 338 336 337 338 336 333 330 328
339 343 343 342 341 341 338 336 330 329 334 334 334 334 333 335 334 335 333 333 333 333 333 337 335 335 329 327 325 323 322 321 321 323 331 336 336 336 338 339 338 334 331
339 341 342 343 341 341 340 337 337 334 331 329 331 332 329 326 327 327 329 332 331 331 331 331 331 331 327 326 325 324 322 321 320 321 327 333 335 334 336 339 338 339 336
338 340 341 343 342 341 340 337 337 334 334 334 334 334 332 329 327 326 323 324 324 323 323 326 327 326 324 323 323 323 323 323 321 322 321 328 332 334 334 336 338 338 338
337 337 339 341 342 342 340 338 338 337 335 335 335 335 334 331 329 327 327 324 322 323 324 327 327 327 327 327 327 327 326 325 326 326 325 324 331 333 334 334 336 338 338
338 339 338 339 342 341 340 340 339 337 337 335 336 336 334 334 332 329 328 326 323 325 326 326 327 328 327 329 327 328 328 327 327 327 328 327 327 328 332 333 334 336 337
336 336 339 342 340 340 340 340 339 338 335 337 336 336 336 335 335 333 331 331 332 328 329 328 328 328 327 327 327 328 329 331 329 328 329 329 329 327 328 332 335 335 335
335 334 336 339 337 338 339 340 339 338 337 338 337 337 337 337 336 334 333 332 333 332 331 330 329 329 328 330 330 330 330 328 329 330 328 328 328 329 328 330 329 330 333
332 335 337 337 336 336 338 338 338 337 338 338 339 338 340 339 339 337 334 333 332 331 330 330 330 332 331 331 331 329 328 328 328 327 327 328 326 326 327 325 324 324 327
320 331 336 336 336 336 335 334 334 334 336 336 337 340 340 339 339 337 337 336 335 333 333 332 330 328 327 328 326 325 325 327 327 327 327 324 322 324 321 320 320 319 320
311 324 330 334 334 334 336 334 335 335 336 337 338 338 335 335 336 336 334 334 335 334 333 333 332 330 330 329 325 323 315 317 320 321 322 321 320 319 319 317 316 316 316
308 313 323 326 331 334 334 331 329 327 329 329 334 333 323 324 325 325 327 329 329 331 330 330 329 328 326 327 328 323 315 310 314 317 318 318 317 317 315 317 317 315 314
310 312 312 317 319 320 321 326 325 324 324 319 320 318 315 316 316 317 317 317 317 319 322 325 328 325 322 320 321 324 322 320 311 309 314 316 316 316 317 318 317 315 312
312 312 312 313 314 314 314 316 317 313 311 310 310 311 312 313 313 313 314 314 314 315 316 317 317 317 318 316 315 317 318 318 316 312 307 311 316 316 316 315 312 309 308
312 312 312 311 311 312 312 312 311 310 309 309 309 310 311 313 312 312 312 311 312 312 312 313 314 315 314 315 317 317 317 316 315 314 313 314 312 313 313 310 309 307 307

GFSSE_sfc_thetae_081.txt.gz
Theta_e
346 353 359 358 356 355 355 354 353 353 351 351 351 350 349 350 351 354 353 353 354 350 348 348 346 344 344 343 341 341 343 343 343 345 346 347 348 346 343 339 339 336 343
350 353 357 358 358 356 355 354 353 353 353 351 349 348 346 347 349 349 351 352 351 349 347 347 346 345 345 344 344 343 343 341 342 345 344 342 347 346 345 344 344 338 339
350 353 355 358 357 356 354 352 353 353 352 352 351 347 345 344 346 347 348 349 349 346 345 345 344 345 345 345 345 344 344 343 340 342 341 335 339 347 347 347 348 345 343
349 351 354 357 357 356 353 351 351 351 351 353 352 348 344 343 344 344 347 347 346 344 344 344 344 343 343 343 344 345 346 346 345 340 334 334 335 343 343 345 345 346 346
346 351 354 356 356 355 353 351 350 349 349 351 353 350 344 342 343 344 345 345 343 343 343 344 344 344 344 343 344 345 345 344 342 336 332 330 330 336 340 341 342 343 343
344 351 354 356 356 355 354 352 349 348 348 349 352 350 345 342 343 343 344 344 343 344 343 344 344 344 343 343 345 344 342 343 337 330 331 334 330 336 335 335 336 339 340
348 351 353 356 356 355 354 352 349 347 347 348 351 349 346 342 342 343 342 343 343 343 342 343 344 344 343 343 342 341 340 339 330 330 330 331 332 337 336 334 334 334 335
348 351 352 352 354 354 353 351 350 349 347 349 351 351 346 343 342 342 342 342 342 342 342 342 341 342 342 341 340 339 339 337 330 330 330 332 339 338 336 335 333 332 332
349 349 349 349 349 349 349 349 349 350 349 350 351 350 348 345 343 342 342 342 341 341 341 341 340 339 338 337 335 335 335 335 327 330 332 331 340 338 336 335 334 332 331
346 346 345 344 344 341 340 345 347 347 348 348 348 346 343 342 342 343 342 343 342 341 340 340 339 338 336 335 334 335 333 332 325 328 330 332 339 337 336 335 333 332 330
343 343 342 340 337 336 338 342 343 344 345 344 343 340 338 337 338 338 337 339 342 341 341 340 338 337 335 334 334 333 331 323 322 327 329 339 339 337 336 334 333 331 329
339 340 341 339 337 335 336 336 337 340 340 340 341 337 336 333 334 337 335 337 340 340 340 340 340 339 334 326 324 329 323 321 321 325 329 338 337 337 338 337 334 331 329
340 341 340 339 337 335 330 329 332 335 335 336 337 336 334 334 334 333 331 333 332 333 332 336 335 333 328 327 324 322 322 319 319 320 330 337 337 335 337 338 339 335 331
338 339 342 340 339 337 334 332 326 333 331 330 332 332 327 329 330 329 329 329 329 330 328 329 328 329 329 327 323 322 321 319 319 319 325 334 337 335 335 337 339 339 338
334 339 340 341 340 339 337 335 330 327 328 328 330 330 327 325 324 323 325 328 327 327 326 327 327 326 323 322 322 322 321 321 320 319 319 329 333 336 334 334 336 338 338
337 338 339 341 341 341 339 335 337 335 333 331 331 331 330 328 325 324 322 321 319 319 320 323 325 325 324 324 324 324 323 322 323 323 322 322 331 333 336 335 335 336 338
337 338 338 338 342 339 339 338 337 336 336 333 332 333 332 331 328 326 325 324 320 321 322 323 325 325 325 326 325 326 327 326 325 325 325 324 325 329 333 336 336 336 336
336 337 339 342 340 340 339 339 337 339 335 336 333 333 333 333 332 328 327 328 326 323 325 325 325 325 325 325 325 326 328 329 329 327 327 327 326 328 328 334 337 337 336
336 335 336 338 337 338 339 340 338 338 335 334 335 336 335 334 334 332 331 331 331 330 328 327 327 326 326 327 329 329 329 329 327 328 326 326 326 328 326 329 330 330 332
334 335 335 337 338 339 338 336 338 336 336 336 337 337 337 336 335 334 332 331 330 329 329 328 328 329 330 330 330 328 327 327 327 326 326 327 326 325 326 326 325 323 326
326 332 335 335 334 334 334 333 332 333 335 336 336 339 338 337 338 336 336 334 335 333 332 332 331 330 328 327 327 324 324 325 325 325 326 325 324 322 318 317 316 316 318
316 326 331 334 332 334 334 334 332 334 334 334 335 330 332 333 333 333 333 334 334 333 332 332 331 329 329 329 325 323 317 316 318 318 319 321 320 319 316 316 315 314 314
307 320 326 330 334 334 334 332 328 328 328 330 331 326 320 323 322 322 324 327 328 329 328 329 329 327 325 326 328 323 316 309 312 316 317 317 316 315 315 315 315 315 311
307 312 321 324 326 328 331 328 326 325 324 322 325 316 316 316 315 316 316 316 315 316 316 318 319 320 318 317 318 321 319 319 314 311 313 314 315 316 314 314 312 310 308
307 308 313 315 316 319 319 324 323 316 314 310 311 312 312 312 313 313 312 312 312 313 313 314 315 315 315 313 313 312 312 313 314 312 307 309 313 313 311 309 309 308 307
308 309 310 312 312 312 314 314 317 309 308 308 308 308 310 310 310 310 310 309 309 309 309 309 310 311 312 312 312 311 311 311 310 310 308 309 308 311 308 308 307 306 305

GFSSE_sfc_thetae_084.txt.gz
Theta_e
346 351 357 357 355 353 355 353 350 351 351 351 350 352 353 353 353 353 353 352 352 349 348 345 344 344 342 343 345 345 345 347 346 346 346 347 345 345 343 340 339 336 342
349 352 357 357 356 355 354 353 351 351 352 351 348 349 351 352 353 353 352 351 348 347 347 345 345 346 346 345 345 344 344 346 344 343 342 343 345 346 347 344 343 337 339
349 352 353 357 356 355 353 352 352 351 351 350 345 345 348 350 350 351 350 348 345 346 345 346 346 346 346 346 346 345 345 342 340 342 340 334 339 346 348 347 345 346 346
349 351 352 356 355 354 352 351 352 352 351 350 344 343 345 346 348 347 346 344 344 344 344 344 344 344 345 346 346 346 345 342 341 338 332 332 336 342 344 345 345 344 345
349 351 353 355 355 354 351 351 351 351 351 351 345 342 343 344 345 345 344 343 343 343 343 343 344 344 344 345 346 344 344 341 339 334 329 327 327 334 338 341 341 340 341
347 350 353 354 354 353 352 351 350 351 351 349 346 342 343 344 345 344 343 343 343 343 344 344 343 343 344 345 344 343 341 339 335 330 330 332 328 335 335 334 336 338 338
347 350 351 353 354 352 351 350 350 349 351 350 346 342 343 343 343 344 343 343 343 343 343 344 343 344 343 342 341 341 340 337 329 329 329 329 330 337 335 334 333 333 335
348 349 351 351 352 352 350 349 348 349 350 352 349 344 341 342 343 343 343 343 342 342 343 343 343 342 341 340 339 338 338 335 330 328 330 330 338 337 336 334 332 332 332
348 347 348 349 349 349 349 349 348 349 349 351 350 347 344 343 342 342 342 342 342 342 341 341 340 340 338 336 334 335 334 334 326 328 332 331 340 338 336 334 333 331 330
347 346 344 343 344 342 343 346 347 347 348 349 348 345 342 340 341 343 342 342 342 341 340 340 339 338 336 334 334 334 332 330 324 327 329 330 339 338 336 334 332 331 330
343 343 342 338 336 336 339 342 344 345 344 344 342 339 338 336 337 337 337 340 342 341 340 339 338 336 336 334 334 333 331 321 320 325 327 338 339 338 337 334 332 331 329
339 340 340 337 334 334 341 337 337 342 340 340 340 336 335 333 334 336 333 337 341 341 340 340 339 338 333 324 323 327 322 319 318 324 327 339 338 337 338 337 334 331 329
338 339 339 336 334 331 335 333 335 336 337 337 338 335 333 333 331 332 330 332 331 332 331 334 332 331 327 325 324 322 321 320 316 319 329 337 338 336 336 338 339 336 332
334 338 338 337 334 329 331 332 332 334 333 333 335 335 331 329 330 328 328 328 328 329 326 327 327 327 327 326 324 321 321 318 317 317 321 334 338 337 336 336 338 339 339
324 328 339 337 335 331 329 329 328 330 331 332 331 331 328 329 329 328 327 327 326 327 326 326 326 326 326 326 322 320 320 319 319 318 318 327 334 338 337 335 335 337 339
323 330 339 337 337 334 333 331 326 327 329 328 328 329 326 326 324 323 321 324 325 322 325 321 325 324 321 321 322 321 321 321 321 321 320 320 330 334 338 336 336 336 337
332 336 339 338 338 337 335 334 336 331 330 329 329 329 329 327 325 324 322 320 318 318 318 320 322 323 323 324 324 325 325 325 324 323 323 323 323 328 333 336 337 338 337
335 337 339 342 339 337 337 336 337 336 334 333 333 331 331 331 329 325 324 325 323 319 321 321 323 323 323 324 323 325 325 329 329 328 327 327 327 327 329 334 337 336 335
334 335 337 339 339 339 338 339 337 337 335 335 335 332 331 332 332 329 327 328 329 327 323 325 325 325 324 326 328 329 329 329 328 328 326 326 325 327 327 327 330 330 330
332 334 336 338 338 339 339 337 337 336 334 335 335 334 335 333 333 332 331 330 329 328 328 327 327 327 329 328 330 329 329 329 326 325 325 326 325 324 325 327 322 322 328
328 330 332 335 337 337 334 332 332 332 333 335 338 338 336 335 335 332 333 333 333 331 331 331 331 330 327 329 327 324 322 324 323 324 323 322 324 323 321 317 315 317 321
325 328 330 333 333 334 334 333 332 330 331 333 334 333 334 336 335 333 331 331 332 332 332 332 331 329 328 329 323 321 313 316 316 316 317 318 318 317 317 316 315 316 314
314 324 329 331 333 333 333 332 329 330 330 328 327 325 326 327 327 326 326 327 326 327 325 324 325 325 322 321 322 319 312 309 311 315 314 315 314 315 315 315 314 311 309
306 317 327 330 331 332 332 330 327 327 326 328 329 320 319 320 318 317 316 315 317 316 315 316 317 318 318 316 316 319 316 319 313 308 312 313 313 315 314 312 310 308 306
306 307 320 325 327 327 328 329 327 324 322 318 317 315 314 314 313 313 313 312 312 313 312 313 313 313 314 313 312 310 309 309 310 309 309 308 310 308 307 308 308 306 306
303 306 312 316 318 321 321 325 324 321 314 314 314 314 313 314 310 309 310 309 308 308 307 307 308 308 310 310 311 310 309 308 308 307 310 309 306 306 306 307 306 305 303

GFSSE_sfc_thetae_087.txt.gz
Theta_e
344 349 356 356 353 353 353 350 349 351 352 351 353 355 354 355 354 353 352 351 349 347 344 343 342 344 346 347 347 348 346 346 347 347 345 346 346 345 343 339 339 334 340
347 350 356 356 354 354 352 349 351 350 351 350 353 354 354 354 353 352 351 349 348 345 344 346 345 346 346 346 346 346 346 343 343 343 343 343 345 347 346 343 343 341 343
347 350 352 355 355 354 351 350 350 351 349 348 350 352 353 353 353 351 348 347 346 345 346 346 347 346 346 346 345 345 343 341 341 340 339 333 336 346 346 346 346 346 348
348 350 350 354 353 352 350 349 349 348 346 345 348 350 350 351 350 348 346 345 345 345 346 346 346 347 347 347 345 344 345 343 339 336 329 329 334 342 344 344 343 343 345
348 350 350 353 353 352 350 350 348 349 345 343 345 348 348 348 347 345 345 343 343 343 344 345 345 345 346 345 345 344 342 339 337 331 326 325 325 333 338 340 338 338 340
346 348 351 352 352 352 352 351 350 350 346 342 343 344 346 345 344 344 343 343 343 344 344 345 345 345 346 344 343 343 341 338 334 328 328 330 326 335 335 334 336 337 338
347 348 349 352 352 350 350 350 351 351 347 343 342 343 344 345 344 343 343 342 343 343 343 343 344 345 344 342 342 341 339 335 328 327 327 327 329 337 336 334 333 333 335
346 347 348 349 350 350 349 348 350 352 349 345 342 343 343 345 343 342 343 342 342 343 343 343 343 343 341 340 339 339 337 334 329 327 328 329 338 337 336 334 332 332 332
346 346 346 346 347 347 347 348 348 350 351 348 344 343 344 343 344 343 342 342 342 342 342 342 341 340 338 336 335 335 335 333 326 327 331 330 340 337 336 334 333 331 330
343 344 345 343 345 343 343 345 346 347 348 347 345 342 340 339 340 342 342 343 342 341 341 339 339 337 335 334 334 334 332 330 324 327 328 329 338 336 335 334 332 331 330
342 343 341 339 339 338 339 342 344 344 344 344 342 338 336 333 335 336 336 339 341 341 339 339 337 335 336 332 332 332 329 319 319 323 326 333 339 336 335 334 332 331 329
337 341 340 336 335 335 341 338 337 340 340 343 337 334 333 332 332 334 333 337 340 340 340 338 337 337 332 323 322 326 320 318 317 321 326 334 339 337 337 336 334 331 329
337 339 338 334 332 333 336 334 335 336 336 338 335 334 332 332 330 330 329 330 330 332 329 332 330 329 325 323 323 322 321 319 316 317 326 334 339 338 336 337 339 336 333
328 327 331 333 332 329 334 333 334 334 334 335 336 334 330 328 328 328 327 327 326 327 325 325 325 325 325 325 323 323 320 319 317 316 318 330 338 338 337 337 337 339 340
327 328 329 328 333 329 332 331 332 333 333 333 335 334 331 328 328 327 326 325 325 325 325 324 325 325 324 324 325 321 320 319 318 318 317 323 333 337 337 337 336 337 339
322 324 329 327 335 331 329 329 331 330 332 331 332 334 331 329 328 327 326 325 324 324 325 324 322 325 324 320 320 319 319 319 319 320 320 320 326 334 337 336 337 338 338
326 326 327 327 335 333 330 329 329 331 331 330 330 330 329 327 327 326 322 320 323 322 319 318 319 321 321 322 322 323 324 324 324 323 324 325 325 327 332 336 337 338 337
325 323 325 330 339 338 336 332 331 328 328 330 328 329 329 327 325 323 322 321 320 318 318 318 320 321 321 322 322 324 324 327 328 329 327 327 327 327 328 332 337 336 333
324 326 326 332 337 338 338 337 336 335 332 330 331 331 329 330 328 326 325 325 326 321 320 322 323 323 323 324 325 328 328 328 329 328 325 326 326 325 325 327 330 330 331
332 333 335 337 338 337 338 338 337 335 334 334 333 333 332 331 331 329 328 327 328 327 326 325 325 326 326 327 329 329 329 328 328 326 324 325 324 324 323 324 323 324 329
330 332 334 334 336 335 334 334 333 333 334 331 332 334 333 333 332 331 330 329 329 328 328 330 329 329 328 328 324 320 320 322 321 321 318 317 319 323 322 319 318 322 324
325 329 331 333 333 335 335 334 334 334 334 333 334 334 335 334 333 332 331 330 329 330 332 331 329 328 326 325 319 318 312 315 315 315 315 314 315 316 315 316 316 315 313
315 324 328 331 333 335 335 332 329 329 329 328 329 329 329 331 331 330 330 329 328 327 327 324 322 321 319 319 319 318 312 307 309 315 314 312 313 312 314 314 312 310 309
306 316 327 330 332 333 332 330 328 327 325 327 326 323 323 323 323 324 322 322 319 318 316 315 316 317 317 315 314 316 314 317 311 306 311 311 312 312 311 311 308 307 308
306 304 318 325 328 328 331 331 329 325 324 323 320 317 317 319 319 319 318 316 315 314 312 312 311 310 311 311 312 309 308 308 308 310 308 306 308 305 305 306 306 304 307
305 304 309 318 322 324 326 327 327 324 319 317 315 315 314 314 315 315 314 312 310 309 308 308 308 307 308 308 308 308 308 306 305 304 305 305 304 305 306 306 305 303 303

GFSSE_sfc_thetae_090.txt.gz
Theta_e
342 348 355 354 352 352 350 349 350 351 352 354 354 354 353 354 354 353 351 349 347 344 344 346 347 346 347 348 347 345 346 346 346 346 346 347 346 343 341 340 339 334 339
346 349 355 355 353 353 350 349 351 351 351 354 355 354 354 354 353 352 350 348 345 345 344 345 346 347 347 347 347 345 343 345 344 343 342 340 346 345 347 346 348 344 344
346 349 351 355 354 352 349 349 349 349 350 352 354 355 355 354 353 351 349 347 345 346 347 347 347 346 346 346 345 344 342 341 341 340 338 332 336 346 344 344 345 346 344
347 348 349 354 353 351 349 349 349 348 348 351 353 353 353 353 350 348 346 345 345 347 346 347 346 347 347 346 345 345 343 338 337 334 327 327 332 342 342 340 339 340 342
346 348 350 353 352 351 350 349 348 346 346 349 351 352 352 352 348 346 346 344 345 346 345 346 347 347 345 345 344 342 338 337 335 329 324 324 325 334 338 339 338 339 339
345 346 351 351 352 351 350 349 346 344 344 346 347 349 349 347 345 344 344 343 344 345 345 346 346 346 344 346 344 342 339 337 333 326 326 330 327 335 335 334 335 337 337
346 346 348 352 351 351 350 350 350 345 342 343 344 345 345 344 344 344 343 343 343 344 345 345 345 345 343 343 342 341 337 334 327 326 326 326 330 337 336 334 333 334 336
345 345 346 348 350 351 349 350 351 346 342 342 343 345 343 344 343 342 342 343 343 344 344 345 345 343 341 341 340 339 337 333 328 326 327 328 338 337 336 335 333 332 332
344 343 344 344 345 346 348 348 349 349 346 344 344 345 345 342 341 341 341 342 343 343 343 343 342 340 338 337 336 336 335 333 325 326 330 329 339 336 336 334 334 332 332
341 343 343 341 341 340 340 345 345 346 345 344 343 342 340 339 338 340 341 342 342 341 341 340 339 337 335 334 334 333 332 330 323 326 326 327 337 336 335 334 333 332 331
338 341 342 340 338 338 338 340 343 345 344 342 340 337 335 333 334 335 336 339 341 340 339 338 337 335 333 330 331 332 326 318 318 321 325 331 338 336 335 334 332 331 330
337 338 340 338 336 336 341 337 336 340 343 341 335 332 331 330 331 333 332 337 340 340 339 337 336 336 330 322 321 324 318 317 316 319 325 333 338 338 337 336 334 332 330
338 334 331 332 333 335 336 335 334 335 337 340 334 331 330 330 329 328 327 329 328 331 328 330 328 326 323 322 322 321 320 318 317 316 321 333 337 339 337 337 339 337 335
329 328 329 328 332 330 334 333 334 334 334 338 333 332 329 327 326 327 326 325 325 325 323 323 324 323 323 323 321 322 320 319 317 316 317 325 333 339 338 337 337 338 340
328 328 329 330 328 332 329 331 334 333 333 335 335 333 330 328 327 327 326 325 324 323 323 322 323 323 323 323 323 323 321 318 318 318 317 322 326 336 338 338 337 338 339
327 325 328 330 329 330 328 330 332 333 333 333 335 334 331 329 328 328 326 325 324 323 323 323 322 322 323 321 320 320 318 318 319 319 320 320 326 330 335 337 337 338 339
324 323 325 329 331 330 330 328 330 333 332 331 332 333 332 330 329 329 327 325 325 324 324 321 319 320 321 322 321 323 323 323 323 323 325 324 326 326 330 335 337 338 337
323 323 325 330 330 333 332 332 332 330 331 331 331 330 332 329 328 327 325 322 321 320 319 316 317 319 320 321 321 323 324 325 328 328 328 328 327 327 329 331 335 337 334
325 324 324 327 330 334 336 336 333 334 331 330 330 329 329 328 326 326 323 322 322 318 318 318 319 321 322 323 324 325 327 326 329 328 326 326 325 325 324 327 329 331 333
324 324 324 326 330 334 336 335 336 336 334 333 331 330 331 329 327 325 324 324 325 323 322 321 321 324 325 326 327 327 325 324 323 322 321 322 322 323 323 322 322 325 329
323 324 324 324 330 331 332 331 333 332 334 333 333 333 331 330 330 327 327 326 327 327 326 326 326 324 327 325 323 319 317 319 318 316 315 315 317 319 319 318 319 320 321
326 325 326 326 332 334 333 331 332 333 334 334 334 333 334 333 332 331 330 328 328 326 327 330 330 324 322 322 317 314 310 313 313 314 313 313 312 314 313 314 314 314 314
324 329 330 330 332 333 333 333 329 328 328 329 331 332 333 333 333 331 330 329 328 327 327 324 323 322 318 316 317 317 312 306 308 313 311 310 310 310 311 311 310 310 310
310 321 327 329 330 332 333 331 328 327 327 329 330 328 325 326 325 327 328 327 324 322 322 320 318 317 316 314 313 314 312 316 310 305 309 309 308 309 308 307 306 308 308
305 305 315 323 325 327 329 330 329 328 325 324 324 322 320 321 322 322 321 320 319 318 317 316 313 311 311 310 310 308 307 306 306 310 305 304 305 304 304 304 305 306 307
305 304 303 311 320 324 325 326 326 325 323 322 320 319 319 318 316 317 316 315 313 311 309 308 308 308 309 308 307 307 307 305 303 302 305 306 303 303 303 305 305 304 305

GFSSE_sfc_thetae_093.txt.gz
Theta_e
345 352 355 355 351 350 350 350 352 353 354 354 354 353 355 354 354 352 350 348 347 349 351 349 347 349 348 347 347 346 346 347 347 346 347 347 345 346 346 343 343 339 341
348 352 354 354 352 350 350 350 351 352 353 355 354 354 354 354 353 351 349 346 345 346 347 347 348 348 347 346 344 344 345 345 344 342 342 344 345 346 345 347 347 344 343
349 351 351 353 355 352 351 351 350 351 353 355 355 356 355 354 353 351 348 346 345 346 347 348 347 346 346 346 344 343 341 343 341 340 340 343 343 344 342 345 346 346 346
349 350 349 353 354 351 350 350 349 349 352 354 354 355 356 353 352 349 346 346 348 347 348 346 346 346 346 346 345 343 338 338 336 334 333 335 337 341 340 340 341 340 342
349 350 350 352 352 352 349 349 348 348 350 352 353 353 353 353 349 346 345 348 345 345 347 347 347 346 346 344 342 338 337 336 334 334 333 335 334 336 338 339 339 339 340
348 350 351 352 352 352 351 349 347 347 348 350 350 351 352 350 347 345 345 346 347 347 346 347 346 345 348 345 342 339 338 336 334 335 336 336 336 337 336 335 337 338 338
347 349 350 351 352 350 350 348 345 345 346 347 349 349 348 345 344 344 343 345 345 345 346 346 345 344 344 344 342 339 337 334 334 335 336 337 337 337 337 335 334 335 337
346 348 348 348 350 349 349 349 346 343 343 345 347 346 344 345 343 341 342 343 343 345 346 345 344 343 342 341 341 339 336 334 333 335 336 337 340 338 337 335 334 333 333
346 346 347 347 347 347 348 348 347 344 344 345 345 343 344 344 340 340 341 342 343 344 345 345 343 340 338 338 338 337 336 332 335 335 334 338 339 337 336 335 334 333 333
345 345 344 345 345 345 346 346 346 344 343 343 340 342 339 338 337 339 341 342 342 343 343 342 340 338 336 335 334 333 333 330 335 335 336 337 337 336 335 334 333 332 331
340 343 342 342 342 343 343 343 344 343 341 340 339 337 337 337 337 338 338 339 342 341 340 339 337 335 332 331 332 331 327 329 329 331 336 332 337 336 335 334 333 331 330
335 338 340 341 341 341 341 343 345 344 341 339 339 339 339 339 339 338 336 337 340 339 339 338 336 334 331 331 331 327 329 328 328 328 334 332 336 339 337 337 335 333 332
336 333 337 337 340 341 340 341 342 345 344 340 337 337 337 337 338 337 338 338 339 334 337 337 336 335 331 332 332 332 331 330 330 328 327 330 336 339 339 337 339 340 337
329 330 333 336 335 337 339 339 339 341 343 339 337 336 335 334 335 334 334 335 335 335 333 333 334 333 332 332 332 332 332 330 330 329 328 324 328 337 340 339 338 339 340
328 329 331 331 333 334 336 338 338 339 341 341 338 338 336 334 333 334 333 333 333 333 333 331 332 333 333 333 332 331 331 329 329 329 329 324 326 330 337 339 339 339 339
329 329 331 331 332 333 333 335 337 338 339 341 340 339 337 335 334 333 334 333 332 332 332 332 331 332 332 332 329 329 330 329 330 331 332 332 327 329 332 337 338 339 339
328 328 329 330 332 333 334 332 334 337 338 337 340 340 337 335 334 334 334 334 333 333 331 331 330 328 329 329 329 331 332 332 333 333 334 333 332 327 330 334 338 339 339
329 326 326 328 332 333 335 333 333 334 337 336 336 337 339 337 335 335 334 334 334 332 331 329 325 325 327 328 330 332 332 333 334 333 334 332 334 334 332 331 334 336 338
326 324 325 329 331 334 335 335 335 335 334 335 336 334 335 338 336 334 333 333 331 326 327 325 324 327 328 331 331 334 335 334 334 333 332 332 333 333 334 330 328 330 335
325 325 326 327 329 333 337 336 337 337 336 335 334 333 333 335 335 333 332 331 329 325 324 324 325 327 329 331 330 331 334 333 330 329 328 328 328 328 330 331 332 331 330
325 324 324 326 328 332 332 331 332 331 334 336 337 335 333 333 333 332 331 329 329 329 328 327 329 329 331 333 331 328 328 328 326 325 324 323 325 326 328 329 330 330 328
323 325 324 325 327 332 332 332 331 333 335 337 338 336 335 333 333 332 331 330 330 330 331 332 331 331 331 330 326 323 320 321 323 321 322 320 320 323 322 323 324 322 321
323 324 325 325 326 331 333 332 331 333 330 331 334 334 334 333 332 333 331 331 332 331 330 329 328 329 328 326 325 326 317 315 318 321 319 318 318 319 319 318 317 317 315
326 327 326 327 327 330 333 331 329 325 326 328 329 329 328 329 330 331 330 330 327 325 325 322 321 323 325 324 323 321 323 322 314 311 317 317 315 315 316 315 315 314 312
314 322 327 329 329 330 331 331 329 328 328 327 326 324 323 324 325 327 328 325 322 320 318 318 316 316 318 318 318 318 317 317 317 315 309 313 314 312 312 312 313 312 309
310 310 310 322 326 328 330 330 329 328 327 326 326 324 321 318 319 319 320 321 320 316 315 313 312 313 314 314 314 315 314 313 311 311 309 309 310 312 311 311 311 310 309

GFSSE_sfc_thetae_096.txt.gz
Theta_e
347 353 356 355 352 351 350 353 354 355 354 358 357 355 354 354 353 352 350 349 354 354 348 349 351 348 348 346 347 348 348 347 348 347 347 347 348 348 346 345 347 340 345
349 352 355 354 352 350 351 353 353 354 354 356 356 355 354 354 353 351 348 348 351 350 348 350 348 346 345 345 345 345 346 345 344 344 345 345 345 346 348 345 347 344 345
348 350 351 353 353 353 352 352 352 352 355 355 355 357 355 353 352 349 347 346 348 348 349 350 349 345 345 344 343 342 344 342 340 340 342 339 340 343 342 345 347 347 346
348 350 350 353 353 353 351 351 352 352 355 354 355 355 354 353 351 348 346 347 349 350 348 346 345 346 346 345 341 338 339 337 335 335 332 333 333 340 340 341 341 343 345
348 350 349 353 353 352 350 350 350 352 354 354 353 352 352 352 350 347 349 349 347 349 348 348 346 346 345 342 338 337 336 336 334 336 334 335 334 336 338 338 338 341 344
348 349 351 352 352 351 352 351 350 351 353 353 352 352 352 351 347 346 349 347 347 349 348 346 346 346 344 341 339 338 337 335 337 336 336 336 336 336 336 336 337 338 340
347 348 350 352 353 352 351 350 349 350 350 351 351 350 350 348 346 346 346 347 347 348 347 345 346 346 344 342 340 338 336 333 335 335 336 337 337 337 336 335 334 335 336
346 347 349 348 350 351 349 348 348 349 349 349 350 350 348 347 345 344 345 345 346 347 346 345 344 343 343 342 340 338 335 335 335 336 336 337 338 337 336 335 334 334 333
347 346 347 348 347 347 347 345 346 347 347 348 348 347 346 345 341 344 344 345 346 346 346 345 343 341 340 340 339 337 335 332 337 337 335 337 338 336 336 335 334 333 333
345 345 345 345 342 342 347 344 343 344 344 345 344 342 339 338 339 343 342 344 346 345 345 343 341 338 336 335 335 334 334 333 337 338 338 337 337 336 335 334 333 333 332
343 344 346 343 341 340 344 344 342 342 341 340 339 336 336 338 338 339 338 340 343 344 342 340 338 335 333 333 331 330 329 335 333 335 338 333 336 337 336 334 333 332 331
337 340 342 341 340 343 342 345 342 338 339 338 340 337 337 338 338 338 337 338 342 341 340 338 336 334 330 331 332 328 333 333 333 332 335 333 336 339 338 339 337 335 333
335 336 338 338 338 339 342 345 344 340 336 335 338 339 338 337 338 338 339 338 338 334 335 335 334 332 331 333 334 334 333 333 334 334 330 328 335 338 341 339 339 341 339
324 335 339 338 336 336 342 343 344 343 340 338 334 334 335 334 334 334 334 335 334 333 332 332 331 331 331 333 334 333 334 334 334 335 334 327 329 334 339 341 340 340 340
324 332 338 340 338 338 336 338 342 344 341 340 340 336 334 332 331 332 332 333 333 334 333 332 334 334 333 334 334 334 334 334 334 336 336 327 327 331 334 339 340 340 340
326 330 333 339 339 339 337 337 336 342 344 342 340 340 339 337 334 335 335 335 335 335 334 334 335 335 335 335 334 334 335 335 335 336 337 337 329 330 333 336 339 340 340
327 330 330 334 337 337 337 337 337 336 339 342 342 343 341 339 338 335 337 337 336 335 334 335 334 334 333 334 334 334 335 336 336 335 335 335 336 328 330 335 337 340 340
330 329 330 332 334 338 338 337 337 338 337 337 342 344 343 340 339 338 338 338 337 336 335 333 332 329 331 333 333 335 336 336 335 335 334 333 334 334 332 333 334 336 337
329 329 327 329 329 334 339 337 337 339 340 339 338 338 341 342 340 337 337 339 338 336 334 333 330 329 330 333 335 336 336 335 334 334 333 333 334 334 334 333 329 329 333
329 328 328 328 329 333 338 339 337 336 337 339 340 338 337 340 341 338 337 338 337 335 331 331 329 331 333 335 332 331 333 333 332 331 331 330 330 332 332 333 334 333 331
327 326 327 328 330 334 337 335 335 335 337 337 337 337 338 337 338 337 337 337 336 333 331 331 331 332 332 335 331 329 329 330 330 330 330 328 328 330 331 332 333 334 331
324 324 325 326 328 332 334 334 334 335 337 339 340 340 339 337 337 335 335 335 334 333 333 333 334 333 332 335 329 328 321 322 326 327 328 326 326 327 328 329 330 330 330
322 324 326 326 328 329 333 334 335 336 337 335 336 338 340 338 337 336 334 333 334 336 334 333 331 330 330 332 330 326 318 314 320 323 324 325 324 325 326 326 325 324 322
323 326 327 327 327 329 334 333 331 330 328 331 333 332 330 334 334 332 333 331 330 330 329 328 327 328 331 327 330 328 329 324 314 311 320 323 322 321 322 323 323 321 320
325 326 327 328 328 329 331 331 331 327 327 329 329 326 325 325 328 329 330 328 325 323 323 321 321 321 321 320 319 319 318 319 319 315 309 313 319 319 320 319 319 319 316
317 320 328 329 329 330 329 330 328 327 328 327 328 326 325 324 323 324 325 325 324 322 320 320 321 317 315 317 317 317 315 313 313 312 311 311 311 314 316 317 316 316 316

GFSSE_sfc_thetae_099.txt.gz
Theta_e
347 352 356 355 353 352 350 351 351 352 358 359 356 356 354 353 353 351 351 351 352 351 351 351 351 349 346 348 349 348 347 347 346 346 347 347 349 347 347 347 348 344 347
349 352 355 355 353 351 350 353 355 353 357 357 356 355 354 353 353 350 351 353 352 348 352 349 346 346 346 346 346 346 346 346 345 345 345 343 345 346 344 346 349 345 348
349 351 352 354 353 353 352 354 354 354 357 356 356 356 354 353 352 349 350 352 350 350 351 347 345 345 344 343 344 345 343 342 340 340 343 335 340 343 343 346 348 348 348
349 351 348 353 353 353 352 353 353 354 354 355 356 356 355 352 350 348 349 350 351 351 350 347 346 345 344 340 339 339 338 335 333 335 332 330 331 340 342 342 344 347 347
348 349 349 353 353 353 352 352 352 353 355 354 354 354 353 352 349 347 349 351 350 348 346 347 346 345 342 338 337 336 335 333 335 337 335 335 333 336 339 340 341 343 344
347 349 350 353 353 353 352 351 352 354 353 353 353 353 352 352 349 349 348 349 347 349 348 346 346 344 340 339 338 337 335 334 338 335 334 336 335 337 336 337 338 340 341
346 347 350 352 352 352 351 351 352 354 353 353 352 351 352 351 348 349 347 347 348 348 346 346 346 345 342 340 338 337 334 335 334 335 335 336 336 337 337 336 335 334 334
345 348 348 348 350 351 350 350 351 353 352 351 351 351 351 349 347 344 344 347 348 347 345 346 346 345 343 341 339 337 333 335 334 334 336 335 339 338 337 335 335 335 334
345 346 346 348 347 347 348 348 349 350 350 349 350 349 347 345 346 346 346 347 349 348 345 344 343 342 342 341 339 336 333 335 335 334 335 335 339 336 336 335 334 334 334
332 346 345 346 345 345 344 345 345 346 346 346 346 343 341 339 342 344 344 345 347 348 346 343 341 340 338 337 336 335 335 335 335 335 335 335 337 336 334 334 333 333 332
328 329 344 344 342 339 337 340 342 342 342 342 340 336 335 337 340 339 339 341 345 346 345 342 339 337 336 335 334 333 332 333 331 332 335 337 338 337 336 334 333 333 331
323 325 326 342 337 337 335 337 336 339 339 340 339 336 335 336 338 338 337 339 342 342 342 340 337 334 331 330 329 329 330 331 330 330 334 336 335 339 339 338 338 335 334
325 326 324 339 337 337 339 337 334 334 334 336 336 337 335 334 336 338 338 338 339 335 336 336 334 330 329 330 331 331 331 330 331 332 330 335 335 337 340 340 340 340 339
325 325 328 338 338 339 341 339 334 332 333 335 337 335 335 335 335 335 334 335 334 333 332 332 331 330 330 331 331 331 331 333 332 333 330 330 331 333 336 340 341 341 340
324 325 325 335 334 339 341 343 338 333 332 332 335 335 334 333 332 333 332 333 333 332 331 330 329 329 328 330 332 332 332 333 333 333 334 329 330 332 334 336 339 341 341
325 325 326 336 334 334 337 339 342 337 335 335 333 332 331 331 331 331 331 331 332 333 332 332 331 332 332 332 332 333 333 333 334 334 335 333 332 333 334 337 339 340 340
325 325 326 330 337 335 334 336 340 341 339 336 338 336 335 334 333 333 334 335 334 334 332 333 332 333 332 333 333 333 334 334 335 334 334 335 334 330 334 336 337 339 340
325 325 329 333 333 337 336 335 334 337 341 341 339 339 338 337 336 335 337 336 336 335 334 332 331 330 329 331 332 333 334 335 334 332 333 333 335 333 333 335 336 334 336
327 327 329 332 332 332 337 336 336 335 336 339 341 342 341 339 338 338 338 338 337 335 334 333 330 328 327 330 332 333 333 334 332 331 331 332 332 333 332 332 332 331 332
328 329 330 330 329 329 335 337 336 337 337 337 337 338 340 340 340 339 338 337 337 336 333 332 330 328 330 330 330 330 332 332 333 331 329 328 329 331 332 333 333 329 332
330 328 327 325 327 330 334 334 333 332 335 337 338 337 336 338 340 339 338 337 337 335 333 331 330 329 331 333 330 329 330 330 329 329 329 327 327 329 329 330 331 333 328
326 325 325 325 327 329 332 334 334 336 338 337 338 338 339 338 339 339 338 337 336 335 334 332 331 332 334 333 327 328 320 322 325 325 326 325 324 327 326 327 329 329 329
323 325 324 326 328 330 331 332 334 335 335 334 336 337 338 339 339 339 337 336 336 335 331 335 335 332 330 332 331 325 318 314 319 323 324 323 322 324 324 325 325 325 323
321 325 326 326 327 328 330 328 329 329 327 331 335 335 335 336 335 336 336 335 334 333 329 329 329 330 330 326 329 328 327 322 313 311 320 321 321 320 321 322 322 321 321
320 321 323 326 327 327 327 329 329 328 328 330 332 331 331 332 333 334 334 333 330 326 324 323 322 321 321 318 318 317 318 318 318 314 310 315 318 319 320 319 320 320 317
322 323 324 325 326 328 329 328 328 324 325 324 327 328 328 326 329 329 330 329 327 324 323 322 322 322 320 319 318 316 314 313 312 312 310 311 312 315 317 317 317 317 316

GFSSE_sfc_thetae_102.txt.gz
Theta_e
345 350 357 355 353 352 351 351 352 356 359 359 356 356 354 354 354 353 351 350 351 352 352 352 349 348 350 350 348 347 347 347 348 346 347 349 348 346 348 348 349 345 348
348 350 355 356 353 352 351 352 353 354 358 357 357 355 353 354 353 351 352 352 350 352 350 350 346 346 348 347 346 345 346 346 345 346 343 342 344 347 348 348 349 346 349
347 350 352 355 354 353 353 355 354 354 358 357 356 356 354 354 352 352 353 352 351 351 347 346 345 345 345 344 344 345 344 342 340 343 344 336 338 345 345 347 348 348 349
348 349 349 354 354 353 354 354 355 353 357 356 355 356 356 353 351 353 353 353 353 352 347 345 344 343 341 342 341 339 336 333 337 339 329 329 334 342 343 345 347 347 347
347 348 349 353 353 353 353 353 354 355 355 355 355 355 355 354 350 351 352 352 352 350 348 346 345 342 339 338 337 334 334 336 339 334 330 327 328 337 341 343 343 344 344
346 346 349 352 353 353 353 353 354 355 354 354 353 353 352 353 350 352 351 350 348 348 348 346 343 340 339 339 337 336 336 337 338 328 329 335 331 338 337 337 338 340 340
345 347 348 352 353 353 352 352 353 354 354 352 353 352 351 352 351 350 348 345 348 349 347 345 343 342 340 339 337 335 335 337 330 329 330 330 331 338 338 337 336 335 335
344 346 347 349 351 351 352 351 351 353 353 352 353 352 351 351 350 345 343 342 349 347 346 346 345 343 341 340 338 335 336 335 332 330 330 331 339 338 338 337 336 336 335
338 345 345 345 347 348 348 349 349 353 351 351 350 349 348 346 343 343 342 347 348 347 346 346 345 344 342 340 338 336 336 335 329 329 333 331 340 338 337 337 336 336 335
333 332 330 333 343 342 343 346 345 348 348 348 346 345 342 340 341 343 342 345 346 347 346 345 343 341 340 340 338 338 335 334 327 330 331 333 339 337 335 335 335 334 334
329 327 327 327 326 339 338 341 343 343 344 343 341 338 336 336 339 339 339 341 344 346 345 343 340 339 337 335 335 334 332 327 325 327 330 340 339 337 336 335 334 333 332
324 324 326 327 326 326 337 338 339 342 341 340 337 334 334 335 336 337 337 339 343 343 342 342 339 337 333 325 324 329 322 324 323 324 330 338 337 339 339 338 338 336 334
324 324 325 325 326 326 325 334 337 338 338 338 335 334 332 334 333 335 336 338 337 334 334 335 332 328 323 323 324 321 322 323 323 325 332 337 337 337 339 341 340 340 340
323 323 325 326 325 326 327 330 329 333 336 336 334 332 330 331 333 333 332 332 331 331 329 328 328 326 324 324 323 324 324 324 326 326 327 333 337 336 337 339 341 341 341
321 323 326 329 330 332 336 331 329 328 329 332 331 331 330 330 328 331 331 331 329 327 326 325 324 322 322 322 324 325 325 325 325 326 323 328 332 336 336 337 338 339 340
324 324 325 333 334 335 336 335 328 327 326 329 330 331 329 329 326 326 326 326 325 325 324 324 323 324 323 325 325 326 326 326 326 327 327 325 332 334 337 338 339 340 340
326 325 326 332 334 333 334 333 336 332 329 326 326 326 326 327 325 325 324 325 326 327 326 326 325 326 326 327 325 327 327 327 330 329 330 330 329 330 335 338 339 338 338
324 324 327 330 328 329 332 333 336 335 333 332 330 328 328 328 328 328 330 330 329 328 327 326 325 325 324 324 325 326 326 328 328 327 326 327 328 330 330 335 337 336 335
324 324 326 327 324 327 330 333 333 334 335 333 334 333 332 332 331 331 332 332 330 329 327 327 324 323 322 322 326 327 329 329 328 326 323 324 324 324 325 330 331 330 331
325 325 327 326 324 327 330 332 331 331 332 333 336 337 336 334 334 334 334 333 332 330 328 327 325 324 323 323 328 327 327 326 324 323 321 322 323 324 325 325 325 326 329
325 325 326 327 327 328 328 328 329 328 330 329 331 334 338 337 337 334 333 333 333 331 329 327 325 323 322 328 326 325 323 323 321 321 321 318 321 323 322 323 325 325 324
323 324 325 324 326 328 328 329 329 331 332 334 335 334 333 334 336 336 335 333 333 331 330 328 325 324 326 328 322 320 314 316 318 319 319 318 317 320 321 322 322 324 323
322 323 323 324 325 327 328 328 329 329 329 331 331 332 333 334 334 334 333 333 331 331 329 328 329 327 324 325 325 320 312 308 312 318 317 316 315 315 318 319 320 320 317
322 323 324 324 325 326 327 326 325 323 322 326 329 331 330 332 332 332 331 331 330 329 328 327 328 324 324 322 324 323 319 317 309 305 314 316 316 315 314 315 316 317 314
320 321 323 324 325 325 325 325 324 322 324 325 326 326 327 329 330 331 330 329 328 327 325 324 323 322 321 317 316 315 313 313 315 311 306 309 314 315 315 313 313 312 311
320 321 322 322 323 325 326 325 324 323 323 322 323 324 325 325 325 326 328 327 326 325 324 322 321 319 320 318 316 314 312 311 310 309 308 308 308 310 313 312 311 310 310

GFSSE_sfc_thetae_105.txt.gz
Theta_e
343 350 357 355 353 352 352 352 357 359 358 358 356 355 355 355 353 350 349 350 351 352 352 348 351 351 349 347 347 348 348 347 348 347 346 348 348 349 349 348 348 345 348
346 351 356 356 354 352 352 353 355 358 357 357 358 355 355 355 353 351 350 352 352 352 350 348 350 349 348 345 347 347 346 345 344 345 342 342 345 348 349 348 349 346 349
347 351 352 355 355 354 353 353 354 357 358 356 356 355 354 353 352 353 351 352 352 350 347 346 346 347 345 344 346 346 345 343 341 343 341 335 338 346 348 348 348 349 349
348 350 351 355 355 353 353 353 353 355 358 357 356 356 355 353 353 353 352 352 350 347 345 345 344 344 345 344 342 341 337 338 342 337 328 332 336 343 346 347 346 345 346
347 349 350 354 354 353 354 354 353 354 357 356 355 356 355 354 354 353 354 353 351 348 347 344 342 340 340 338 335 337 339 340 339 333 327 327 329 340 343 343 343 343 342
346 346 351 353 354 353 354 354 354 353 356 356 355 354 353 354 353 352 353 351 350 349 347 344 340 339 338 337 337 338 338 339 335 328 329 333 330 337 337 337 337 338 337
342 346 349 353 354 354 353 353 354 355 353 355 354 353 352 352 352 352 351 348 349 348 345 342 340 340 339 338 337 337 337 338 328 328 328 329 331 338 338 337 336 336 336
344 345 347 350 352 352 353 352 353 353 354 353 353 353 352 352 351 351 348 348 348 347 345 343 342 341 340 338 337 336 336 335 330 329 329 330 340 339 338 337 337 337 336
339 339 333 340 347 348 350 350 351 351 352 351 350 351 349 348 348 347 344 348 348 347 347 345 343 342 341 339 336 336 336 335 326 329 332 330 340 338 338 337 337 336 336
330 329 330 329 327 331 342 345 346 347 348 348 347 345 344 341 341 342 341 344 347 348 347 346 344 343 342 340 337 337 335 333 325 329 330 332 339 337 336 335 335 335 334
327 328 328 328 328 327 330 341 343 343 344 343 343 339 337 338 337 337 337 341 344 345 345 344 342 341 339 336 335 334 332 325 323 328 330 340 340 337 336 335 334 333 332
322 324 326 327 327 327 328 328 337 342 341 342 341 338 337 337 337 336 336 339 342 343 342 342 340 338 333 325 324 329 322 321 320 327 330 340 340 340 339 339 337 336 335
321 322 324 325 327 326 326 326 329 338 339 338 336 335 335 335 335 337 337 338 339 336 336 336 333 328 323 322 321 319 319 320 320 326 331 338 339 338 340 341 340 341 340
321 321 323 325 326 325 326 324 325 335 337 336 335 334 333 331 334 334 335 336 335 332 330 329 327 324 322 321 321 321 321 322 322 323 328 334 339 339 339 339 340 341 341
320 321 322 324 324 325 325 326 330 335 337 336 335 333 333 332 333 331 330 332 329 329 327 326 325 323 321 320 322 323 322 322 323 324 323 329 335 338 338 338 338 339 340
321 321 324 325 325 327 326 328 330 333 336 336 334 333 329 332 331 330 330 330 329 327 327 325 322 320 320 320 321 325 325 323 324 323 322 324 332 335 339 339 339 340 339
322 322 323 326 329 330 331 333 332 329 332 333 333 332 331 330 329 328 329 328 327 324 322 321 320 322 322 323 323 324 325 325 326 328 328 327 329 330 335 339 339 338 337
323 323 325 330 331 330 332 332 332 329 328 331 329 329 330 329 325 325 325 324 324 324 324 323 323 322 322 323 323 325 325 326 326 327 324 327 329 328 330 334 337 336 335
323 324 325 328 327 329 329 331 331 331 329 328 327 326 326 326 325 328 327 328 327 325 324 324 323 322 321 320 323 325 326 328 329 325 322 323 323 323 323 329 330 329 331
323 325 325 326 325 328 328 328 332 331 331 332 329 329 329 329 328 331 330 330 328 327 325 325 322 322 320 320 324 325 326 327 324 321 319 321 322 323 322 322 324 325 329
323 323 323 325 323 324 323 325 327 327 329 329 332 332 332 332 332 331 332 331 330 328 326 326 324 322 320 324 323 324 324 324 320 319 318 318 320 321 321 323 323 322 323
322 323 323 324 324 325 326 328 327 328 328 330 330 332 335 333 334 333 332 330 330 329 327 326 323 323 322 325 320 317 314 315 317 318 317 316 317 318 319 321 322 321 318
320 322 324 325 326 326 326 327 327 327 329 328 330 328 330 333 334 335 333 332 331 330 328 327 325 324 323 322 323 320 312 309 313 317 316 314 314 316 317 318 318 317 315
320 322 323 324 325 325 326 325 324 322 322 324 326 328 329 331 332 332 332 331 330 328 326 326 327 325 324 320 321 321 319 315 308 309 315 315 315 315 314 315 315 314 312
321 322 323 324 324 325 325 325 323 321 323 324 325 324 325 326 328 328 328 328 328 326 325 324 323 322 322 321 319 316 314 313 315 309 306 310 314 314 312 312 312 310 312
321 321 322 322 322 323 325 324 323 322 322 322 323 324 324 324 324 326 326 326 326 325 324 322 322 320 320 318 314 314 312 310 308 309 307 307 309 309 312 313 310 309 308

GFSSE_sfc_thetae_108.txt.gz
Theta_e
343 349 356 354 353 355 357 358 360 359 357 356 356 355 354 353 349 348 352 351 352 351 348 350 350 346 346 346 349 348 349 347 346 346 347 349 349 349 349 348 348 344 348
345 350 356 355 353 353 355 358 359 358 357 358 355 355 355 352 349 350 352 352 352 350 351 350 349 346 346 348 347 346 345 344 343 344 343 343 347 348 349 348 349 345 349
346 350 352 355 355 354 354 354 357 357 357 357 357 355 355 353 351 351 353 352 352 349 349 347 346 344 347 347 347 346 344 343 342 341 341 335 340 348 348 347 348 348 348
348 350 350 355 355 353 352 351 355 358 357 356 355 356 355 353 353 351 352 351 349 347 347 346 344 343 345 345 343 338 340 340 340 336 330 333 338 346 346 346 345 344 344
347 349 350 355 355 353 353 351 351 356 357 356 355 356 356 354 354 352 352 351 349 347 345 344 344 344 342 340 338 341 340 339 337 331 326 327 330 341 342 342 341 340 340
346 348 352 354 354 354 355 354 351 354 357 356 355 354 354 353 353 354 352 349 347 347 344 341 340 339 337 339 340 340 340 338 334 328 328 332 328 338 337 337 336 336 336
344 347 350 354 354 355 354 354 353 353 356 355 354 353 354 353 353 351 351 349 348 348 343 340 339 339 338 339 338 339 338 336 327 326 327 328 330 339 338 337 337 337 336
343 347 349 350 352 353 353 353 354 355 355 354 354 353 353 352 351 351 350 349 348 345 341 340 340 339 338 338 337 337 337 334 329 327 328 330 339 339 339 338 337 337 337
341 337 339 345 346 349 350 351 352 353 351 352 353 351 350 349 349 350 349 349 347 344 343 342 341 340 339 338 336 336 336 333 326 328 331 330 341 339 338 337 337 337 336
331 331 330 331 332 332 339 345 346 348 348 350 348 346 344 343 344 347 345 346 347 347 346 345 342 341 340 338 337 336 333 331 324 328 329 330 339 338 337 336 336 335 334
328 328 327 327 328 329 328 335 341 343 344 345 343 340 339 342 339 336 336 342 345 347 347 345 343 343 341 337 336 334 331 323 324 327 328 339 339 337 336 335 335 334 333
324 325 325 326 326 326 329 325 330 339 339 341 341 341 340 337 336 335 335 338 343 343 343 343 342 340 334 325 324 328 321 321 319 326 328 340 340 340 339 337 336 336 335
323 325 324 325 326 327 326 325 326 334 338 337 337 339 337 336 335 334 336 337 337 335 336 337 335 329 323 320 319 317 318 318 319 326 329 339 342 341 342 341 341 341 340
320 322 323 324 326 327 329 327 325 328 334 337 336 336 335 334 334 334 336 337 335 332 331 329 327 324 321 320 319 319 318 319 320 324 326 334 340 339 340 341 341 341 341
319 320 322 323 324 325 325 326 325 327 332 337 335 335 335 334 334 333 334 335 334 329 329 327 325 322 320 319 319 320 320 320 321 323 323 329 335 340 341 340 339 339 339
319 319 321 322 323 324 323 322 324 329 333 337 335 334 335 334 333 333 331 331 331 328 327 326 323 322 320 319 318 320 321 321 321 322 322 323 332 336 340 339 338 339 338
320 321 321 322 323 323 323 324 325 327 334 335 335 334 333 333 333 331 331 330 328 326 326 324 322 320 318 318 318 321 323 323 323 322 323 322 327 329 334 338 339 338 337
320 320 322 326 328 325 324 325 326 329 333 335 335 334 331 333 333 331 330 330 328 325 324 321 320 318 320 320 320 322 324 324 324 325 325 324 325 326 329 334 336 336 335
322 321 322 323 327 329 328 330 330 329 330 333 334 333 332 332 331 329 328 327 325 324 323 322 321 321 320 320 321 323 323 324 326 325 322 323 324 323 322 329 329 329 331
321 321 322 325 328 327 328 330 330 328 328 329 330 330 330 330 329 327 325 325 326 324 323 323 321 321 320 320 321 322 323 325 323 321 321 321 321 322 321 322 322 324 329
319 320 322 323 323 325 325 325 326 325 327 327 327 328 328 328 327 327 327 327 327 325 324 323 323 320 319 319 320 321 322 321 320 320 319 319 320 320 321 322 321 320 321
319 319 322 324 322 324 325 326 327 328 327 328 329 330 329 329 329 331 330 329 328 327 325 324 322 321 320 321 320 317 314 316 316 317 315 318 317 319 320 322 320 318 316
318 319 321 322 321 323 325 326 326 326 326 325 327 328 329 331 330 331 331 331 329 328 326 325 322 322 320 322 323 319 312 310 312 315 315 314 315 316 316 318 319 317 314
318 321 323 323 324 324 325 324 321 318 319 322 325 326 327 329 331 331 331 330 329 328 326 325 325 323 323 320 321 322 320 314 308 308 313 313 313 315 316 317 316 313 313
318 320 323 324 325 323 325 325 322 320 323 325 325 324 325 325 327 329 329 328 327 325 324 324 323 323 323 321 320 318 317 316 316 309 307 310 314 314 315 315 314 312 311
320 320 322 322 322 324 324 324 323 323 322 322 322 322 323 323 324 325 326 326 326 325 324 323 323 323 322 322 324 318 314 311 310 309 306 306 310 311 311 311 310 310 309

GFSSE_sfc_thetae_111.txt.gz
Theta_e
340 348 357 356 357 359 358 357 358 357 357 356 354 355 353 350 349 350 350 349 349 348 347 347 345 346 347 349 349 348 347 347 347 347 347 348 349 349 348 348 348 343 348
344 350 356 356 356 358 358 358 358 357 357 356 352 353 353 349 350 352 351 350 349 349 352 349 346 345 346 346 346 346 345 344 344 344 344 344 346 348 348 347 348 345 348
346 350 351 355 355 357 358 358 357 357 357 356 354 352 352 349 350 353 353 352 350 351 350 348 345 345 345 345 345 344 343 343 342 341 340 336 341 348 348 347 347 346 345
348 350 350 354 355 354 355 356 357 356 355 356 356 354 354 351 352 353 353 352 351 349 347 345 345 346 346 343 339 339 339 340 339 337 332 334 339 345 345 343 344 342 342
346 349 349 354 355 354 352 354 356 357 356 355 354 355 355 353 353 353 352 352 349 349 343 345 345 345 344 339 341 340 341 339 336 330 327 329 332 339 341 341 339 338 337
345 346 352 354 354 354 353 352 354 355 355 356 354 353 354 352 353 352 352 349 347 347 345 344 344 342 339 341 341 339 339 337 333 327 327 331 328 338 338 337 336 336 337
344 346 350 354 354 355 354 353 352 354 355 355 354 353 353 353 353 352 350 348 347 345 342 342 340 337 339 340 341 340 339 335 326 325 326 327 329 338 338 337 337 337 337
344 347 349 351 353 354 354 354 352 354 355 354 353 354 353 353 351 351 348 348 346 343 340 339 338 338 340 340 339 339 337 333 328 326 327 328 339 339 338 338 338 338 337
341 343 344 347 349 350 351 352 352 352 354 353 352 352 350 350 349 350 348 347 345 342 341 340 339 339 339 339 338 337 336 333 325 327 330 329 341 339 338 337 337 336 336
335 335 334 334 337 340 342 346 347 350 349 350 348 348 344 343 344 348 346 346 346 344 344 343 341 340 340 339 338 336 334 333 324 327 328 329 339 338 337 337 336 335 334
332 331 329 329 329 329 333 335 340 343 344 344 343 341 338 342 343 342 341 342 344 345 345 343 342 342 340 337 336 333 330 323 323 326 327 335 339 338 337 336 335 334 333
326 327 326 326 326 327 328 325 330 339 338 339 341 339 341 340 340 338 337 339 344 344 344 344 344 342 336 326 324 328 320 320 320 325 327 337 339 339 338 337 336 335 335
325 327 324 326 325 325 325 324 328 333 336 338 336 338 338 338 334 332 336 338 339 336 337 338 336 330 324 320 319 316 317 317 318 324 328 337 340 340 341 341 340 340 339
322 324 325 324 324 324 325 324 324 330 332 336 337 336 334 334 334 331 333 334 335 335 333 330 327 325 322 320 318 318 317 316 318 323 325 333 340 341 341 342 342 342 342
319 323 323 324 324 324 324 323 324 323 331 332 337 336 335 334 333 333 333 335 334 334 332 330 325 323 320 318 318 317 318 318 318 320 323 327 335 340 341 341 340 339 339
319 319 323 323 324 324 323 323 323 326 330 334 335 336 335 335 334 333 333 332 333 332 329 329 324 322 320 318 318 318 319 319 319 321 321 322 331 336 340 340 339 339 339
318 319 319 322 323 322 322 322 321 324 331 334 334 335 335 336 334 333 331 331 331 330 328 327 323 321 319 319 316 317 319 321 321 321 322 321 323 329 333 338 339 339 339
316 319 320 323 322 322 322 322 323 323 325 333 333 334 334 335 334 333 331 331 329 328 326 325 322 320 317 316 316 318 320 322 322 323 323 323 322 324 329 335 337 337 336
316 319 319 321 323 323 323 323 323 323 324 328 334 333 332 333 334 332 331 330 328 326 324 323 320 319 318 318 319 320 321 322 323 325 322 323 323 324 323 327 329 329 330
315 320 320 321 322 326 327 327 328 327 327 328 333 331 333 332 332 331 330 329 327 326 323 320 319 320 319 319 321 321 321 322 323 321 320 322 322 322 322 323 322 323 329
314 318 319 321 323 325 326 325 325 327 326 325 332 332 332 332 331 329 328 327 326 326 325 323 321 319 319 318 317 318 320 320 319 319 318 319 320 320 320 321 320 319 321
315 318 319 322 323 325 324 322 323 325 327 326 327 329 330 331 328 326 327 326 325 325 323 323 322 320 319 319 318 315 314 316 316 317 315 317 317 318 320 320 318 317 316
314 317 319 322 321 323 323 323 324 326 325 325 325 326 327 329 328 328 328 328 326 326 324 323 323 321 317 319 321 318 311 311 313 315 314 314 315 315 316 318 318 316 315
315 317 319 321 320 321 322 322 322 320 320 322 324 326 326 328 328 329 329 329 327 327 324 324 324 321 322 319 320 321 318 314 311 308 312 313 313 314 315 317 317 316 314
315 317 319 320 321 321 322 323 322 318 321 323 324 323 324 325 326 327 328 328 328 328 326 324 323 322 322 320 319 317 317 316 315 309 310 311 313 313 317 317 316 313 312
313 315 317 319 320 323 323 323 323 320 321 321 322 322 322 322 323 325 325 324 324 324 322 322 322 322 322 321 321 319 318 315 313 312 308 308 310 311 312 313 313 311 310

GFSSE_sfc_thetae_114.txt.gz
Theta_e
337 348 358 358 358 358 357 356 357 358 358 356 355 354 353 351 348 348 347 347 348 348 346 345 344 347 349 349 348 347 347 347 348 348 348 349 349 348 349 348 347 343 348
342 349 357 358 360 359 358 358 357 357 356 356 354 353 352 350 350 351 349 347 347 348 347 345 346 349 347 346 346 345 345 346 346 346 345 345 347 348 348 347 347 345 347
345 350 352 356 358 358 357 357 357 357 356 354 353 351 351 350 352 352 349 349 350 351 348 345 345 343 346 344 344 343 344 344 343 342 341 338 342 348 348 346 346 344 342
347 349 349 355 357 358 358 357 355 357 356 355 351 353 351 349 352 353 351 351 351 351 349 345 345 345 345 343 341 341 341 341 340 338 333 335 338 345 343 342 341 341 339
345 347 348 355 356 356 357 356 355 356 355 355 354 355 353 351 353 353 352 352 351 349 346 347 346 345 341 341 341 341 340 338 336 331 328 330 332 339 341 339 337 337 337
342 345 350 354 355 354 355 357 356 355 354 354 354 352 354 354 354 352 351 350 348 346 345 346 346 343 340 342 341 341 339 336 332 326 327 332 329 338 338 337 337 337 337
344 343 349 354 354 354 353 355 356 356 356 355 354 353 352 353 352 351 350 349 348 346 344 345 344 339 341 341 341 340 338 334 325 324 325 326 328 338 338 338 338 338 337
344 347 348 351 353 354 353 352 354 356 356 355 354 354 353 353 351 351 348 347 345 344 343 343 340 339 341 341 341 340 336 332 327 325 325 327 339 338 338 338 338 337 337
342 343 343 346 348 349 351 352 350 353 354 354 353 353 350 348 349 350 348 346 344 342 341 340 339 340 340 340 340 340 336 332 323 326 329 328 341 338 338 337 337 336 336
335 337 337 340 343 342 343 348 348 349 350 351 350 348 345 343 345 348 345 345 345 343 343 342 341 340 341 340 338 338 335 332 323 325 327 328 339 338 337 336 335 335 335
331 332 332 334 337 338 337 340 343 346 346 345 344 341 339 342 343 341 341 342 343 343 343 342 342 342 340 337 336 334 333 324 322 324 325 332 339 338 337 336 335 334 333
327 329 329 329 329 331 331 332 336 340 339 340 340 339 340 340 341 342 338 339 343 343 343 343 343 342 335 325 324 329 321 321 321 324 325 333 340 339 338 337 336 336 335
322 328 328 327 326 326 325 325 330 335 337 337 337 337 337 339 338 339 339 339 339 336 338 339 338 331 325 322 320 318 319 318 317 321 327 333 339 340 340 340 339 339 339
317 323 328 327 325 324 326 323 325 330 337 338 337 337 334 332 334 333 335 334 336 337 334 332 332 326 322 319 316 315 315 315 316 318 324 331 337 340 341 342 343 343 342
315 322 325 326 323 325 324 325 323 322 328 335 338 338 335 333 334 332 331 331 331 333 332 331 327 324 320 318 317 316 316 316 316 318 321 326 333 339 341 341 341 340 339
314 319 323 325 324 325 323 322 321 321 324 330 334 336 337 335 334 332 332 333 330 331 330 330 326 322 320 318 316 317 317 317 317 317 319 322 329 335 338 340 341 339 339
308 317 320 324 325 323 324 323 322 322 326 328 331 335 335 334 333 333 333 333 333 333 330 327 326 321 319 318 316 316 316 317 319 319 320 321 322 327 332 336 339 340 339
307 314 319 323 324 324 324 322 322 321 322 328 334 332 334 335 335 333 332 332 333 332 330 328 325 321 318 317 316 316 316 318 320 320 321 321 321 322 327 334 338 339 338
303 308 316 319 321 321 321 320 320 321 320 321 330 333 334 334 335 333 332 332 331 330 329 327 324 322 318 317 317 318 318 319 321 323 322 322 322 322 322 327 330 330 331
302 308 314 319 320 321 321 321 322 323 322 322 325 331 333 333 334 334 333 331 330 328 326 325 323 320 319 318 320 319 320 321 322 322 322 322 322 322 322 322 323 323 328
304 308 315 317 319 323 323 322 322 323 324 325 325 330 331 332 332 331 331 330 329 327 325 324 322 321 318 317 316 316 318 320 320 320 319 319 320 320 320 320 321 321 320
304 308 314 318 320 322 323 323 325 325 326 326 326 329 331 331 331 330 329 326 327 326 325 323 322 319 319 318 315 314 312 316 317 318 316 318 318 318 319 319 319 318 316
304 308 314 318 321 323 324 325 325 325 324 324 325 326 329 331 330 328 326 326 325 326 324 324 322 321 317 317 320 318 311 311 313 314 314 315 316 316 316 318 318 316 316
306 310 315 319 322 322 322 323 323 319 319 321 325 326 326 329 329 325 324 323 324 325 324 324 324 322 320 317 319 321 318 315 311 310 313 314 313 315 315 316 319 317 316
310 312 316 319 320 319 322 323 321 317 318 319 321 324 323 325 327 327 325 324 324 326 325 325 322 321 321 319 319 316 316 315 313 310 309 311 312 313 316 317 319 316 314
309 314 315 318 320 319 320 320 319 318 318 319 320 322 322 323 325 327 327 328 328 327 326 324 322 321 321 321 320 318 318 315 313 312 309 311 312 313 314 316 315 313 312

GFSSE_sfc_thetae_120.txt.gz
Theta_e
348 352 359 359 357 357 358 357 358 359 358 357 356 355 352 350 348 347 346 345 347 350 352 351 351 349 350 350 349 348 348 349 349 349 349 349 349 349 349 347 349 343 344
350 353 357 359 358 358 359 358 358 357 357 357 356 355 353 350 348 348 347 346 346 347 347 351 350 349 348 348 347 347 348 348 348 347 347 346 348 349 348 346 347 343 341
349 352 352 358 359 359 359 358 356 356 357 357 355 355 352 349 348 348 348 347 347 346 345 349 348 348 346 345 346 346 347 347 346 345 346 346 347 347 345 343 342 340 339
349 353 351 357 357 358 357 358 357 357 356 357 356 354 351 350 350 349 349 348 350 350 349 348 347 344 344 344 345 345 345 345 343 344 342 342 342 344 342 339 339 339 338
350 354 351 356 356 356 356 357 356 357 356 355 354 354 352 351 352 350 350 351 351 350 349 347 343 345 343 342 342 343 343 342 340 342 341 341 339 340 339 338 338 338 338
350 353 353 355 356 355 356 356 356 356 356 355 354 354 354 353 352 351 351 351 350 349 348 346 345 342 341 342 340 339 340 339 338 340 338 337 337 338 339 339 339 338 338
349 351 353 355 354 354 355 354 354 354 355 355 354 353 353 352 351 350 350 351 349 349 348 346 343 342 341 343 342 339 337 335 335 334 334 335 338 339 339 339 339 338 337
348 350 350 350 352 353 353 353 354 354 353 353 353 353 351 352 352 352 350 349 349 349 347 346 342 342 342 341 342 338 335 333 330 332 334 338 339 339 339 339 338 337 337
345 349 350 350 349 349 351 352 351 353 353 352 352 352 351 349 349 351 348 349 347 347 347 346 342 342 341 342 341 338 335 333 333 334 334 337 340 339 339 338 337 337 336
341 342 346 348 349 348 347 348 348 349 347 350 349 347 345 345 345 347 345 346 347 346 345 345 343 342 342 341 342 338 335 332 332 334 336 338 338 338 338 337 336 335 335
325 339 340 344 346 347 346 344 345 344 344 343 346 342 341 348 348 347 342 343 345 346 346 344 343 344 342 340 341 337 334 335 334 333 334 335 338 339 338 337 336 335 335
315 319 335 339 341 345 345 346 345 345 345 343 346 348 348 346 346 345 340 339 343 343 342 343 342 343 338 336 336 334 336 336 335 335 336 334 337 340 339 339 338 337 336
313 315 319 335 339 339 344 346 346 350 347 343 343 346 346 346 347 347 348 344 343 337 338 339 338 336 336 335 335 335 335 335 334 335 335 333 336 340 341 340 340 339 339
313 314 316 325 338 339 342 342 344 344 343 342 345 344 345 345 346 346 345 345 344 340 335 334 332 333 335 334 333 333 333 334 333 333 332 332 335 338 341 342 343 342 341
310 314 316 320 333 338 340 340 341 341 342 344 344 344 346 344 344 345 346 346 344 342 340 335 333 334 334 332 331 330 329 331 331 331 331 328 331 336 338 341 343 343 342
309 312 315 317 325 336 337 340 339 339 342 343 344 346 345 345 346 345 344 344 343 341 341 338 333 333 332 332 330 329 328 328 328 330 331 331 329 332 336 338 340 341 342
310 312 312 315 322 331 335 338 339 337 336 340 341 345 344 344 344 343 343 343 343 344 340 338 337 333 332 332 330 328 327 327 328 329 331 332 332 327 331 336 338 339 340
311 311 312 312 317 326 333 335 337 337 335 335 336 336 338 342 344 342 337 340 342 342 342 339 334 335 332 329 330 329 328 327 328 329 330 331 333 333 331 332 336 338 340
310 311 311 313 314 323 330 334 335 336 335 335 335 335 336 336 338 340 340 339 341 340 339 339 336 332 331 329 328 330 329 327 328 328 328 329 332 333 334 332 329 331 336
310 311 311 311 312 316 325 332 333 332 334 336 334 333 335 335 334 335 337 338 339 339 338 337 336 335 332 332 327 326 329 328 329 329 329 329 331 333 334 334 334 331 329
310 310 310 310 311 313 317 324 326 327 332 334 334 334 332 334 335 335 335 337 338 337 336 335 334 334 328 333 330 326 326 328 327 329 329 331 332 333 334 334 334 333 332
309 310 310 310 311 312 316 321 326 329 331 332 334 333 333 332 334 334 334 333 336 333 334 333 333 330 327 328 322 321 317 322 325 327 328 329 330 331 331 332 332 333 333
309 310 310 310 311 313 316 319 327 330 330 329 330 331 332 332 334 334 334 334 336 332 330 330 330 327 323 325 326 323 316 315 320 324 324 326 326 327 328 328 329 329 330
312 313 313 313 311 313 317 320 322 323 324 328 329 331 330 333 333 333 334 333 331 331 329 329 330 330 326 322 323 327 325 322 317 314 322 323 324 323 326 326 327 327 328
313 314 314 313 313 314 318 321 323 323 324 328 329 327 331 332 332 333 333 331 330 329 329 330 328 325 325 324 323 322 321 322 321 318 312 318 321 321 323 325 327 326 327
313 316 316 313 313 316 318 321 322 322 322 324 324 326 328 328 330 332 332 332 331 328 327 327 327 326 325 324 322 321 320 318 317 316 315 318 319 322 323 323 322 325 325

GFSSE_sfc_thetae_123.txt.gz
Theta_e
349 352 359 358 357 357 356 358 358 358 357 357 355 354 351 349 347 345 345 347 348 350 349 349 349 350 350 350 350 349 350 350 349 350 349 349 349 349 349 347 347 340 342
349 351 358 359 358 357 358 357 358 358 357 356 355 355 351 348 346 346 345 346 347 349 351 350 349 350 349 348 347 346 348 348 348 348 347 346 347 348 347 345 344 339 340
347 351 354 358 358 359 359 358 358 357 357 356 354 354 353 349 348 347 346 345 346 346 349 350 349 347 346 346 346 346 347 347 346 347 347 345 344 346 344 341 341 340 340
348 352 350 357 359 359 359 358 358 357 357 357 355 354 352 349 348 348 348 347 347 348 349 349 349 346 345 345 345 346 346 345 343 344 343 341 340 343 340 339 339 339 339
348 353 351 357 358 357 357 357 357 358 357 357 355 355 352 349 350 349 349 350 351 351 350 348 347 344 343 343 343 344 344 342 342 341 338 339 339 338 339 340 339 339 339
349 351 353 356 356 355 355 356 356 357 355 355 355 354 354 351 352 350 351 350 350 350 348 346 345 343 341 340 339 341 341 340 340 337 336 335 337 339 340 339 339 339 338
348 349 353 355 355 354 355 355 355 356 356 354 354 353 352 352 351 350 350 350 350 349 347 345 343 341 340 341 340 337 336 337 336 333 333 335 337 340 340 339 339 338 338
345 349 350 351 354 354 353 353 353 354 353 353 353 352 351 351 351 350 349 349 350 349 348 345 342 342 340 341 342 337 334 334 329 331 333 338 340 340 339 338 338 337 337
343 348 350 350 349 350 351 351 351 352 352 352 351 351 351 349 350 350 349 348 348 349 348 346 342 342 341 341 340 337 334 334 331 332 333 336 341 339 338 337 337 336 336
342 344 347 349 348 347 348 347 348 349 350 349 350 348 346 345 345 348 346 346 347 348 348 347 343 342 341 341 341 337 335 333 331 333 333 338 340 338 338 336 336 335 335
324 333 343 345 347 347 345 344 345 345 345 345 345 343 342 346 347 345 343 343 345 346 346 346 344 343 342 340 342 337 334 332 331 331 332 339 339 339 338 337 336 335 335
316 319 323 341 344 346 346 344 345 341 341 342 344 345 346 344 343 344 340 340 344 344 344 345 343 343 339 336 335 336 334 334 333 333 334 338 337 340 339 339 338 337 337
314 316 318 321 339 342 344 346 343 344 346 343 340 341 343 341 344 345 347 344 344 338 339 340 339 337 334 333 334 334 333 333 333 333 334 336 335 338 341 341 340 340 339
315 314 317 318 324 339 341 343 344 347 346 344 342 340 341 341 342 346 345 345 343 341 336 334 332 331 330 333 333 332 332 332 332 332 332 334 336 337 339 342 342 342 342
313 316 316 318 319 331 339 341 341 341 343 342 342 342 341 343 342 342 346 346 346 343 339 334 331 330 330 332 332 330 329 329 330 331 331 330 334 337 338 340 341 343 341
311 314 317 316 317 323 335 339 339 340 341 343 343 342 342 342 347 344 343 343 342 346 342 338 334 331 331 332 330 329 328 328 327 328 330 330 331 333 336 338 339 340 341
310 313 315 317 317 319 326 336 339 340 338 341 342 342 343 342 343 342 343 343 346 345 343 341 336 334 332 331 329 329 328 327 326 326 327 330 332 329 333 336 338 339 340
311 311 313 314 316 316 322 331 335 339 338 338 341 341 341 342 341 342 341 340 342 345 344 341 338 334 330 328 327 329 326 326 325 326 329 329 331 331 330 334 337 338 339
311 311 313 315 314 315 318 327 333 335 338 336 338 339 339 340 341 341 340 339 340 342 340 339 338 336 333 332 330 328 329 326 324 325 326 328 330 331 333 332 331 332 335
312 312 312 313 313 314 315 324 332 333 334 337 336 336 337 337 336 337 338 337 338 339 339 337 336 336 335 334 331 329 330 329 329 327 326 327 328 329 332 333 334 331 327
312 312 312 312 313 313 314 318 326 328 330 332 337 337 335 336 336 335 335 335 337 337 336 336 337 335 334 335 330 330 329 329 328 328 329 328 328 330 332 333 334 335 333
311 311 312 312 313 312 314 316 322 328 330 333 336 336 336 334 335 335 335 334 335 336 333 334 335 333 333 334 327 326 317 322 326 326 326 325 326 330 330 331 332 333 332
311 311 311 312 313 312 313 315 319 324 330 329 330 333 335 335 335 336 335 335 334 333 334 335 335 331 326 328 328 322 316 312 316 324 325 325 328 328 329 330 330 328 329
314 315 313 313 313 313 315 314 315 319 321 327 329 331 332 333 332 334 335 334 334 334 332 334 334 333 329 324 325 327 324 323 315 315 323 324 325 325 326 329 327 327 327
312 316 316 315 315 316 314 315 316 317 321 327 328 329 330 331 332 333 334 334 332 333 332 331 329 328 328 325 324 323 324 323 321 318 313 314 321 322 325 325 326 326 327
310 317 317 315 314 314 314 315 316 318 320 323 325 324 326 328 329 331 333 334 333 332 329 328 328 328 328 326 323 321 319 317 316 315 313 314 314 318 325 327 325 325 326

GFSSE_sfc_thetae_126.txt.gz
Theta_e
348 353 360 359 358 358 359 360 359 358 357 356 353 354 348 347 346 346 348 348 346 347 348 349 350 350 350 350 350 351 350 350 349 350 349 349 349 349 347 346 342 338 341
350 353 359 359 359 359 359 359 358 358 356 356 355 354 350 347 346 345 346 347 350 352 350 350 351 350 349 348 346 349 348 348 348 349 346 345 346 347 344 342 343 338 341
348 352 354 359 359 359 359 358 358 358 357 356 355 353 352 347 347 346 346 346 347 350 351 350 349 347 347 346 344 346 347 347 347 348 347 341 341 343 341 341 341 340 341
348 351 350 358 358 360 359 358 358 358 356 356 355 354 353 348 348 347 347 346 346 348 350 350 347 346 346 346 346 346 345 344 345 344 343 340 338 341 340 340 341 340 340
347 350 352 356 358 358 358 358 357 357 357 356 355 353 354 349 348 348 348 350 350 351 350 349 346 344 344 344 344 345 344 344 344 340 332 332 331 338 342 341 339 339 339
346 351 353 356 356 355 357 357 356 356 356 356 354 354 353 351 350 350 352 350 350 350 349 346 345 343 342 342 341 342 341 341 341 332 327 337 333 340 340 340 339 339 339
345 349 349 354 355 354 354 355 355 355 355 354 354 353 353 352 350 350 350 349 350 349 348 346 344 342 341 341 339 337 336 337 332 326 327 331 334 341 340 339 339 338 338
343 349 349 350 353 353 353 354 354 354 354 353 353 353 353 352 352 351 350 349 349 349 348 345 343 342 341 342 342 337 336 333 328 324 330 333 341 341 340 338 338 338 337
344 345 348 348 349 350 351 351 352 352 351 351 351 351 351 349 350 350 349 349 349 349 348 346 343 342 341 343 341 338 335 332 326 327 332 333 342 340 339 338 337 337 336
329 340 341 346 347 345 345 348 348 348 349 349 349 347 346 344 345 348 346 347 348 349 349 347 344 343 342 343 342 338 334 332 323 326 330 335 343 340 339 337 336 336 335
318 320 322 340 343 344 345 344 345 346 345 345 345 342 341 343 343 343 342 342 345 347 348 347 345 344 341 340 341 337 333 326 322 325 330 341 341 340 339 338 337 336 335
310 314 315 318 335 340 345 342 342 342 343 343 343 342 343 342 340 343 339 339 343 344 344 346 345 342 339 332 334 335 328 328 327 326 330 340 340 341 340 339 339 338 337
308 311 314 315 318 334 338 340 342 340 337 336 336 340 342 342 338 342 338 339 339 336 340 341 339 336 332 330 329 331 329 328 326 326 332 337 339 338 341 341 341 340 340
308 310 312 314 314 318 338 337 340 342 339 340 340 336 336 339 337 342 340 339 339 338 334 335 333 332 329 327 325 327 327 326 326 325 329 334 339 338 339 340 342 342 342
306 309 310 312 313 315 326 336 337 337 339 340 340 337 335 337 337 341 340 340 339 338 335 330 328 328 326 323 326 325 323 323 325 325 325 330 335 339 339 340 341 342 343
306 308 311 312 312 314 318 331 334 337 340 339 337 338 338 337 340 340 340 339 338 339 338 333 326 323 323 323 325 324 322 322 321 321 322 326 332 336 339 339 340 341 341
305 307 309 311 312 312 313 322 332 334 337 339 337 338 337 339 340 338 337 338 338 339 338 336 333 328 324 327 325 323 323 321 320 320 320 322 326 330 334 338 339 340 341
306 306 308 311 311 311 311 316 326 332 334 333 338 336 337 338 338 337 336 336 338 338 337 335 333 330 326 323 322 323 325 323 322 321 322 322 326 328 329 335 338 340 341
306 307 307 309 310 310 310 312 318 328 330 334 335 336 337 338 338 339 337 336 336 336 336 334 333 330 326 325 324 323 323 321 321 321 319 322 323 325 326 329 331 333 336
308 308 308 307 309 309 309 310 316 327 329 331 333 335 334 333 334 335 336 334 335 332 332 331 332 332 331 329 329 328 323 324 322 321 319 321 321 323 324 326 329 328 329
309 308 307 307 306 308 307 306 312 321 325 328 331 332 334 332 332 330 329 330 330 330 331 332 330 331 328 331 328 327 328 325 323 322 322 322 322 324 325 327 329 330 329
308 310 308 308 308 308 308 308 310 319 326 327 329 331 331 333 333 330 329 328 328 328 329 328 330 329 327 328 325 324 319 322 325 323 322 322 322 325 326 327 328 328 328
306 307 311 308 308 308 308 308 309 313 321 323 325 329 331 330 330 330 329 329 328 328 327 326 327 327 324 324 325 320 314 313 313 317 321 322 322 322 325 325 326 327 327
305 307 308 311 309 309 308 306 306 308 311 318 323 326 329 329 329 330 329 328 327 327 326 327 328 326 325 322 323 326 322 318 312 313 318 320 320 321 322 323 325 325 325
304 305 307 311 310 310 308 307 306 306 309 316 320 321 321 324 327 328 328 327 327 327 326 325 325 324 324 324 322 320 322 323 321 314 312 314 319 320 322 323 324 324 325
305 306 307 311 311 311 310 308 306 307 308 313 316 318 320 322 326 327 328 327 329 327 325 324 324 323 325 326 326 324 321 319 318 317 315 314 313 316 320 322 322 323 324

GFSSE_sfc_thetae_129.txt.gz
Theta_e
347 353 360 360 358 358 359 358 358 358 356 354 352 349 348 346 347 349 348 346 346 348 350 350 350 350 351 349 351 350 350 350 349 349 349 348 349 346 344 342 341 337 342
350 354 359 360 359 359 360 359 358 357 356 356 354 352 347 346 345 348 349 350 351 350 351 352 350 350 348 347 348 348 348 348 348 347 345 345 345 343 342 341 341 338 341
349 353 355 359 359 359 359 359 358 358 357 356 355 353 350 347 346 345 347 348 351 352 351 350 349 347 346 344 346 347 347 346 347 346 344 339 337 342 342 341 341 341 340
349 352 354 358 359 358 358 358 357 357 357 356 355 354 353 348 347 346 346 347 347 351 350 348 347 346 345 346 346 346 345 344 345 343 341 336 335 341 341 341 341 340 340
347 351 353 357 358 357 358 358 357 357 357 356 355 355 353 349 348 347 347 349 351 351 351 347 346 345 345 345 344 344 343 344 343 335 331 329 331 340 342 340 339 340 339
346 348 352 355 355 357 356 356 356 356 356 356 354 354 354 350 349 349 351 350 351 349 349 346 344 343 343 343 343 341 341 341 338 326 332 336 333 340 340 339 339 339 339
344 348 349 352 354 353 355 356 356 355 355 355 355 353 353 351 351 351 350 350 350 349 348 346 344 341 341 340 338 337 335 336 328 323 329 331 334 341 340 339 339 339 338
344 347 348 349 351 351 352 352 354 353 354 354 354 354 353 352 352 351 350 350 351 349 346 345 343 342 342 342 340 336 335 333 326 324 330 332 341 340 339 338 338 338 337
341 344 345 349 349 349 350 350 352 352 352 352 351 352 351 349 349 351 350 350 350 349 348 345 343 342 342 343 341 337 334 332 323 324 333 333 342 341 339 338 337 336 336
319 326 327 343 348 346 346 347 347 348 348 349 348 346 344 343 344 348 346 347 349 349 348 346 344 343 342 343 341 337 333 331 322 323 331 332 343 341 339 337 337 336 335
312 315 315 318 339 344 344 344 345 345 345 344 344 342 341 342 342 342 341 342 346 348 348 347 345 344 342 340 340 337 332 324 319 321 331 340 343 341 340 338 337 337 336
305 308 312 313 316 326 343 342 342 344 343 343 343 342 341 341 340 342 338 339 344 345 346 347 345 343 339 333 335 335 327 325 325 325 330 341 342 341 341 340 339 338 338
304 307 310 311 313 314 331 336 338 340 339 341 340 341 341 342 339 339 338 339 339 337 340 343 341 336 333 331 329 331 329 325 325 324 331 340 342 340 341 342 341 340 340
303 305 309 310 310 311 315 334 335 337 338 334 335 337 339 339 335 337 338 337 337 337 336 336 334 333 331 330 326 328 328 326 325 323 327 335 341 341 340 341 342 342 342
302 305 306 308 308 310 311 322 334 335 336 338 339 339 336 336 334 339 338 338 337 337 335 333 333 333 330 328 326 326 326 324 323 323 324 330 336 341 342 340 341 342 343
303 304 307 309 309 310 310 311 325 332 334 336 337 337 337 334 336 339 339 338 337 337 336 332 330 328 328 326 324 322 322 321 320 321 321 326 332 337 341 341 341 341 342
303 304 305 307 310 308 309 310 315 328 334 333 337 336 336 336 336 339 339 337 338 338 335 334 329 326 321 322 321 323 323 321 320 319 318 322 326 330 336 340 341 342 342
303 304 305 308 310 309 308 309 311 320 328 331 333 335 336 336 337 338 337 336 337 336 335 334 332 331 326 322 321 322 322 322 321 319 319 318 322 325 329 335 339 342 343
306 306 306 307 306 308 308 308 309 312 321 329 331 333 335 335 335 334 334 334 335 334 333 333 332 329 327 326 323 321 321 320 320 321 317 318 319 323 323 327 331 333 337
308 307 307 307 306 306 307 307 307 310 317 325 329 330 333 334 335 336 337 335 334 333 332 331 330 329 328 327 329 327 326 326 324 320 319 319 318 320 321 324 325 326 329
307 307 307 308 308 305 304 304 305 307 315 323 326 329 330 331 332 333 335 331 331 332 331 330 327 325 326 328 326 328 328 324 323 321 321 320 320 321 320 321 323 326 328
304 305 306 308 309 308 305 305 306 309 318 322 325 326 329 329 329 328 327 327 327 326 327 328 327 324 324 325 322 320 316 319 323 323 322 322 321 322 322 322 323 325 328
301 302 304 306 308 309 308 306 306 308 314 321 322 324 326 328 329 329 327 326 325 326 325 325 325 322 321 321 323 320 315 310 311 315 320 322 321 319 320 321 324 327 326
302 304 304 305 306 308 308 305 304 303 304 313 320 322 324 327 328 328 329 327 325 325 325 325 326 324 322 321 320 323 319 315 312 311 315 316 317 318 319 321 323 325 324
303 305 308 307 306 308 309 306 304 302 304 311 315 318 321 323 325 326 326 327 323 324 324 323 323 323 324 322 320 317 321 323 321 317 314 316 317 320 320 321 323 324 324
304 306 308 306 306 309 309 306 304 302 303 305 310 314 316 318 321 323 324 323 325 324 323 323 322 322 322 322 320 319 322 320 319 319 316 315 313 317 319 320 321 322 323